[[[{"header":{"parameterUnit":"kt","parameterCategory":2,"dx":1,"dy":1,"la1":29.587661999999998,"la2":31.0,"lo1":-88.76705300000003,"lo2":-86.6583820000003,"nx":115,"ny":88,"refTime":"2022-10-14T12:00:00:Z","depth":0,"parameterNumber":1,"parameterNumberName":"U-component_of_WINDS"},"data":[19.8057,19.8057,19.8057,19.8057,19.8057,19.8057,19.8057,19.8057,19.8057,19.8057,19.8057,19.8057,19.8057,19.8057,19.8057,19.8057,19.8057,19.8057,19.8057,19.8057,19.7756,19.7605,19.6703,19.4522,19.3169,19.1364,18.9785,18.9409,18.8432,18.8206,18.8206,18.8206,18.8206,18.8206,18.8432,18.8733,18.9259,18.8808,18.9033,18.9259,18.8281,18.8206,18.8206,18.8206,18.8206,18.8206,18.8281,18.8432,18.9635,19.159,19.4297,19.6477,19.7681,19.8057,19.8057,19.8057,19.8057,19.8057,19.8057,19.8057,19.6177,19.362,19.2718,19.159,18.9635,18.8357,18.8579,18.8756,18.9145,18.9524,18.96,18.9752,18.998,19.1878,19.3473,19.446,19.5067,19.5067,19.5371,19.613,19.689,19.7649,19.8712,19.9623,19.9851,20.0003,20.0003,20.0003,19.9471,19.8712,19.7877,19.7118,19.6586,19.6054,19.5903,19.651,19.6586,19.7421,19.8408,19.9244,19.9775,20.0003,19.9471,19.8788,19.7118,19.5067,19.3473,19.203,19.1499,19.165,19.0739,19.0512,19.1802,19.2182,19.1802,19.8057,19.8057,19.8057,19.8057,19.8057,19.8057,19.8057,19.8057,19.8057,19.8057,19.8057,19.8057,19.8057,19.8057,19.8057,19.8057,19.8057,19.8057,19.8057,19.8057,19.7981,19.7229,19.5951,19.4222,19.2567,19.0913,18.9409,18.8582,18.8206,18.8206,18.8206,18.8206,18.8206,18.8206,18.8206,18.8507,18.8657,18.8432,18.8733,18.8582,18.8281,18.8206,18.8206,18.8206,18.8206,18.8206,18.8657,18.9485,19.1139,19.3169,19.535,19.7079,19.7906,19.8057,19.8057,19.8057,19.8057,19.8057,19.8057,19.7981,19.5951,19.4071,19.3395,19.174,18.9184,18.8463,18.8722,18.9069,18.9524,18.9828,18.9828,18.9904,18.9904,19.0663,19.203,19.3321,19.3549,19.3701,19.4384,19.5143,19.5751,19.6358,19.7649,19.9244,19.9699,19.9927,20.0003,20.0003,19.9851,19.9168,19.8712,19.8256,19.8029,19.8636,19.9092,19.9016,19.8712,19.9244,19.9016,19.9547,19.9851,19.9471,19.894,19.8029,19.651,19.4536,19.2789,19.1347,19.1802,19.2258,19.1423,19.0891,19.2258,19.3321,19.3093,19.8057,19.8057,19.8057,19.8057,19.8057,19.8057,19.8057,19.8057,19.8057,19.8057,19.8057,19.8057,19.8057,19.8057,19.8057,19.8057,19.8057,19.8057,19.7981,19.7605,19.7154,19.6266,19.4748,19.3019,19.1515,19.0537,18.9033,18.8206,18.8206,18.8206,18.8206,18.8206,18.8206,18.8206,18.8281,18.9109,18.9334,18.8281,18.9259,18.9033,18.8206,18.8206,18.8206,18.8206,18.8206,18.8206,18.8733,18.9785,19.1364,19.3319,19.5425,19.6853,19.7906,19.7981,19.7981,19.7981,19.7981,19.8057,19.8057,19.7681,19.6477,19.4297,19.3019,19.1515,18.9033,18.8621,18.8954,18.9145,18.96,18.9904,18.9904,18.9904,18.9904,19.0132,19.1347,19.1878,19.1878,19.2638,19.3852,19.484,19.6054,19.6662,19.8029,19.9547,19.932,19.9547,19.8788,19.856,19.9547,19.9699,19.9471,19.9244,19.932,19.9775,20.0003,20.0003,20.0003,20.0003,19.9851,20.0003,19.9927,19.9244,19.8332,19.7118,19.5675,19.3852,19.2486,19.1119,19.1195,19.3017,19.2486,19.1499,19.2941,19.4384,19.5295,19.8057,19.8057,19.8057,19.8057,19.8057,19.8057,19.8057,19.8057,19.8057,19.8057,19.8057,19.8057,19.8057,19.8057,19.8057,19.8057,19.8057,19.8057,19.7831,19.7004,19.6266,19.5289,19.3771,19.1816,19.067,18.9843,18.9033,18.8206,18.8206,18.8206,18.8206,18.8206,18.8206,18.8206,18.8281,18.8958,18.9184,18.8281,18.8958,18.8883,18.8281,18.8206,18.8206,18.8206,18.8206,18.8206,18.8883,19.0011,19.1816,19.3169,19.4974,19.6628,19.7906,19.7605,19.753,19.7455,19.7305,19.7229,19.7305,19.7455,19.6177,19.4297,19.2643,19.0838,18.9635,18.9259,18.9145,18.9297,18.9524,18.9752,18.9904,18.9904,18.998,19.0436,19.0967,19.0587,19.0208,19.1726,19.3473,19.4991,19.6586,19.7877,19.9016,19.9471,19.9168,19.8788,19.8256,19.8332,19.9547,20.0003,19.9699,19.9775,20.0003,20.0003,20.0003,20.0003,20.0003,20.0003,20.0003,20.0003,20.0003,19.932,19.8484,19.6814,19.4991,19.3701,19.2258,19.0967,19.1878,19.4156,19.4232,19.3701,19.4688,19.5903,19.7421,19.8057,19.8057,19.8057,19.8057,19.8057,19.8057,19.8057,19.8057,19.8057,19.8057,19.8057,19.8057,19.8057,19.8057,19.8057,19.8057,19.8057,19.7981,19.753,19.5665,19.5289,19.3921,19.2192,19.0746,18.971,18.8808,18.8206,18.8206,18.8206,18.8206,18.8206,18.8206,18.8206,18.8206,18.8206,18.8657,18.8657,18.8206,18.8507,18.8657,18.8281,18.8206,18.8206,18.8206,18.8206,18.8357,18.9033,19.0688,19.2943,19.4071,19.5575,19.753,19.753,19.6929,19.6101,19.5801,19.5726,19.5876,19.6327,19.7079,19.565,19.4222,19.2943,19.1139,18.9635,18.8883,18.9069,18.9221,18.96,18.9828,18.9904,18.9904,18.9904,19.0208,19.036,19.0208,19.0132,19.1043,19.3017,19.5447,19.7042,19.8484,19.9547,19.9092,19.8712,19.9547,19.9471,19.932,19.9927,20.0003,19.9927,19.9927,20.0003,20.0003,20.0003,20.0003,20.0003,20.0003,20.0003,20.0003,19.9927,19.932,19.8636,19.6206,19.3777,19.2789,19.241,19.1575,19.1802,19.446,19.5675,19.5599,19.6358,19.7497,19.8636,19.8057,19.8057,19.8057,19.8057,19.8057,19.8057,19.8057,19.8057,19.8057,19.8057,19.8057,19.8057,19.8057,19.8057,19.8057,19.8057,19.8057,19.7981,19.7079,19.55,19.4447,19.2626,19.0971,18.971,18.8883,18.8507,18.8206,18.8206,18.8206,18.8206,18.8206,18.8206,18.8206,18.8206,18.8206,18.8206,18.8206,18.8206,18.8206,18.8206,18.8206,18.8206,18.8206,18.8206,18.8206,18.8883,18.9861,19.1665,19.347,19.4898,19.6553,19.7981,19.7756,19.6477,19.5425,19.4071,19.4071,19.4372,19.5199,19.6177,19.5124,19.3771,19.2943,19.1139,18.971,18.8752,18.9016,18.9221,18.96,18.9904,18.9904,18.9904,18.9904,18.9904,18.9904,18.9904,19.0208,19.0663,19.2789,19.5523,19.7421,19.8788,19.9168,19.8636,19.8636,19.9395,19.9699,19.9699,19.9775,19.9927,20.0003,20.0003,20.0003,20.0003,20.0003,20.0003,20.0003,20.0003,20.0003,19.9927,19.9775,19.9092,19.7725,19.5447,19.3017,19.2789,19.2789,19.203,19.2334,19.4384,19.6206,19.6738,19.7725,19.8712,19.9244,19.8057,19.8057,19.8057,19.8057,19.8057,19.8057,19.8057,19.8057,19.8057,19.8057,19.8057,19.8057,19.8057,19.8057,19.8057,19.8057,19.8057,19.7831,19.6703,19.5199,19.3679,19.1799,19.0219,18.8883,18.8432,18.8206,18.8206,18.8206,18.8206,18.8206,18.8206,18.8206,18.8206,18.8206,18.8206,18.8206,18.8206,18.8206,18.8206,18.8206,18.8206,18.8206,18.8206,18.8507,18.8657,18.956,19.0913,19.2643,19.4146,19.55,19.7079,19.753,19.753,19.6252,19.4372,19.2793,19.2551,19.2852,19.3996,19.5049,19.4538,19.2868,19.2267,19.0612,18.9409,18.871,18.9069,18.9297,18.96,18.9828,18.9904,18.9904,18.9904,18.9904,18.9904,18.998,19.0132,19.0739,19.1954,19.4612,19.7118,19.8484,19.9623,19.9244,19.9016,19.932,19.9547,19.9547,19.9623,19.9927,20.0003,20.0003,20.0003,20.0003,20.0003,20.0003,20.0003,20.0003,20.0003,20.0003,19.9547,19.856,19.689,19.5447,19.4156,19.3549,19.3321,19.3928,19.4384,19.6054,19.7118,19.8029,19.894,19.9395,19.9927,19.8057,19.8057,19.8057,19.8057,19.8057,19.8057,19.8057,19.8057,19.8057,19.8057,19.8057,19.8057,19.8057,19.8057,19.8057,19.8057,19.8057,19.7906,19.5966,19.3936,19.2927,19.0896,18.9259,18.8281,18.8206,18.8206,18.8206,18.8206,18.8206,18.8206,18.8206,18.8206,18.8206,18.8206,18.8206,18.8206,18.8206,18.8206,18.8206,18.8206,18.8206,18.8206,18.8357,18.8958,18.956,19.0387,19.174,19.347,19.4974,19.6026,19.7079,19.6778,19.6252,19.565,19.347,19.1799,19.0896,19.0971,19.174,19.3996,19.326,19.1214,19.0913,18.9861,18.8958,18.8771,18.903,18.9297,18.96,18.9752,18.9904,18.9904,18.9904,18.9904,18.9904,18.998,19.0132,19.0739,19.1802,19.3625,19.6054,19.8181,19.9395,19.9927,19.9623,19.9775,19.9775,19.9699,19.9775,20.0003,20.0003,20.0003,20.0003,20.0003,20.0003,20.0003,20.0003,20.0003,20.0003,19.9699,19.9092,19.8332,19.6662,19.5447,19.4764,19.4764,19.484,19.5447,19.6358,19.7193,19.8105,19.894,19.9395,19.9927,20.0003,19.8057,19.8057,19.8057,19.8057,19.8057,19.8057,19.8057,19.8057,19.8057,19.8057,19.8057,19.8057,19.8057,19.8057,19.8057,19.8057,19.7981,19.7079,19.4838,19.326,19.2041,19.0236,18.8883,18.8206,18.8206,18.8206,18.8206,18.8206,18.8206,18.8206,18.8206,18.8206,18.8206,18.8206,18.8206,18.8206,18.8206,18.8206,18.8206,18.8206,18.8206,18.8281,18.8657,18.9635,19.0462,19.1214,19.2567,19.3996,19.5575,19.6026,19.6703,19.7229,19.5726,19.4447,19.2776,19.1047,18.9994,18.971,19.0312,19.2207,19.138,18.956,19.0312,18.9785,18.8733,18.8808,18.9066,18.9297,18.96,18.9828,18.9904,18.9904,18.9904,18.9904,18.9904,18.9904,18.998,19.0056,19.0967,19.2562,19.484,19.7345,19.9244,19.9547,19.9775,19.9927,20.0003,20.0003,20.0003,20.0003,20.0003,20.0003,20.0003,20.0003,20.0003,20.0003,20.0003,20.0003,19.9775,19.9471,19.8788,19.7877,19.6434,19.5067,19.4688,19.4688,19.5599,19.6814,19.7649,19.8484,19.9092,19.9471,19.9927,20.0003,20.0003,19.753,19.8057,19.8057,19.8057,19.8057,19.8057,19.8057,19.8057,19.8057,19.8057,19.8057,19.8057,19.8057,19.8057,19.8057,19.7681,19.7154,19.5726,19.4071,19.2358,19.1289,18.971,18.8657,18.8206,18.8206,18.8206,18.8206,18.8206,18.8206,18.8206,18.8206,18.8206,18.8206,18.8206,18.8206,18.8206,18.8206,18.8206,18.8206,18.8206,18.8206,18.8281,18.8958,19.0595,19.1214,19.2041,19.2943,19.4522,19.5425,19.5726,19.5274,19.5515,19.4538,19.3094,19.144,18.9861,18.9109,18.8733,18.9409,18.9785,18.9259,18.8958,18.9109,18.9184,18.8582,18.8808,18.9106,18.9297,18.9676,18.9828,18.9904,18.9904,18.9904,18.9904,18.9904,18.9904,18.9904,18.9904,19.0208,19.1802,19.3093,19.5447,19.7725,19.8256,19.894,19.9244,19.9699,19.9851,19.9851,19.9851,19.9699,19.9699,19.9699,19.9851,20.0003,20.0003,20.0003,20.0003,19.9699,19.9092,19.8105,19.7193,19.5979,19.5143,19.4688,19.446,19.6206,19.7801,19.8864,19.9395,19.9623,19.9927,20.0003,20.0003,20.0003,19.6628,19.7981,19.8057,19.8057,19.8057,19.8057,19.8057,19.8057,19.8057,19.8057,19.8057,19.8057,19.8057,19.7831,19.7605,19.6778,19.5726,19.5049,19.3695,19.1364,19.0445,18.956,18.8657,18.8206,18.8206,18.8206,18.8206,18.8206,18.8206,18.8206,18.8206,18.8206,18.8206,18.8206,18.8206,18.8206,18.8206,18.8206,18.8206,18.8206,18.8281,18.8507,18.9485,19.1064,19.2342,19.2868,19.347,19.4673,19.5199,19.4974,19.4297,19.3861,19.326,19.1891,19.0236,18.8733,18.8281,18.8206,18.8281,18.8281,18.8357,18.8357,18.8357,18.8582,18.8657,18.8913,18.9183,18.9373,18.9752,18.9904,18.9904,18.9904,18.9904,18.9904,18.9904,18.9904,18.9904,18.9904,18.9904,19.0739,19.1878,19.3245,19.5447,19.7118,19.7877,19.8712,19.932,19.9623,19.9547,19.9395,19.9016,19.894,19.8864,19.9016,19.9168,19.9623,20.0003,20.0003,19.9547,19.8408,19.7421,19.651,19.5827,19.5295,19.5371,19.6206,19.7497,19.8712,19.9244,19.9775,20.0003,20.0003,20.0003,20.0003,20.0003,19.6553,19.7981,19.8057,19.8057,19.8057,19.8057,19.8057,19.8057,19.8057,19.8057,19.8057,19.7981,19.7455,19.6553,19.6327,19.5425,19.3921,19.2793,19.1648,19.0595,18.956,18.8657,18.8357,18.8206,18.8206,18.8206,18.8206,18.8206,18.8206,18.8206,18.8206,18.8206,18.8206,18.8206,18.8206,18.8206,18.8206,18.8206,18.8206,18.8206,18.8432,18.9259,19.0612,19.2267,19.3695,19.3996,19.3695,19.4146,19.4673,19.3921,19.3244,19.2959,19.2492,19.1515,18.9936,18.8808,18.8206,18.8206,18.8206,18.8206,18.8206,18.8206,18.8206,18.8281,18.8505,18.8895,18.923,18.9524,18.9752,18.9904,18.9904,18.9904,18.9904,18.9904,18.9904,18.9904,18.9904,18.9904,18.9904,18.9904,19.1195,19.2562,19.4308,19.5143,19.613,19.7118,19.7801,19.8332,19.8332,19.8105,19.7953,19.7801,19.8029,19.8256,19.8408,19.932,20.0003,19.9927,19.9395,19.8105,19.6966,19.5827,19.5143,19.5599,19.6662,19.7877,19.8712,19.9244,19.9699,20.0003,20.0003,20.0003,20.0003,20.0003,20.0003,19.5575,19.7154,19.7831,19.8057,19.8057,19.8057,19.8057,19.8057,19.8057,19.8057,19.8057,19.7981,19.7154,19.5951,19.5425,19.4372,19.2192,19.1047,19.037,18.9485,18.8808,18.8281,18.8206,18.8206,18.8206,18.8206,18.8206,18.8206,18.8206,18.8206,18.8206,18.8206,18.8206,18.8206,18.8206,18.8206,18.8206,18.8206,18.8206,18.8657,18.9033,19.0312,19.174,19.362,19.4913,19.3861,19.3319,19.3545,19.3019,19.2267,19.138,19.1456,19.159,19.0312,18.9184,18.8357,18.8206,18.8206,18.8206,18.8206,18.8206,18.8206,18.8206,18.8357,18.879,18.899,18.9286,18.96,18.9828,18.9904,18.9904,18.9904,18.9904,18.9904,18.9904,18.9904,18.9904,18.9904,18.9904,18.9904,19.0891,19.1878,19.2562,19.3321,19.446,19.5599,19.6358,19.689,19.6662,19.6434,19.6282,19.613,19.7269,19.7725,19.7953,19.894,20.0003,19.9699,19.9395,19.8256,19.7193,19.6054,19.613,19.651,19.7421,19.8484,19.932,19.9851,20.0003,20.0003,20.0003,20.0003,20.0003,20.0003,20.0003,19.3996,19.5515,19.7154,19.7906,19.8057,19.8057,19.8057,19.8057,19.8057,19.8057,19.8057,19.7981,19.7004,19.5575,19.4748,19.3395,19.0537,19.0462,18.956,18.8657,18.8206,18.8206,18.8206,18.8206,18.8206,18.8206,18.8206,18.8206,18.8206,18.8206,18.8206,18.8206,18.8206,18.8206,18.8206,18.8206,18.8206,18.8206,18.8206,18.8883,19.0011,19.1139,19.2342,19.4237,19.4087,19.3109,19.2793,19.2041,19.1423,19.0988,18.9727,18.9426,19.0537,18.9409,18.8657,18.8206,18.8206,18.8206,18.8206,18.8206,18.8206,18.8206,18.8206,18.8432,18.8997,18.9105,18.9382,18.9828,18.9828,18.9904,18.9904,18.9904,18.9904,18.9904,18.9904,18.9904,18.9904,18.9904,18.9904,18.9904,19.0284,19.0891,19.165,19.1878,19.2789,19.3777,19.4612,19.5219,19.4991,19.5067,19.484,19.5067,19.6282,19.7193,19.7497,19.8484,19.9699,19.9775,19.9016,19.8029,19.7421,19.7801,19.7725,19.8029,19.8105,19.9092,20.0003,20.0003,20.0003,20.0003,20.0003,20.0003,20.0003,20.0003,20.0003,19.326,19.3861,19.55,19.6929,19.8057,19.8057,19.8057,19.8057,19.8057,19.8057,19.8057,19.7981,19.6402,19.4222,19.3529,19.21,18.9033,18.8733,18.8432,18.8357,18.8206,18.8206,18.8206,18.8206,18.8206,18.8206,18.8206,18.8206,18.8206,18.8206,18.8206,18.8206,18.8206,18.8206,18.8206,18.8206,18.8206,18.8206,18.8206,18.9109,19.0688,19.1816,19.2884,19.4087,19.5139,19.5124,19.2116,19.1573,19.1423,19.0612,18.9033,18.8825,18.9936,18.9033,18.8281,18.8206,18.8206,18.8206,18.8206,18.8206,18.8206,18.8206,18.8206,18.8432,18.9011,18.9322,18.96,18.9904,18.9904,18.9904,18.9904,18.9904,18.9904,18.9904,18.9904,18.9904,18.9904,18.9904,18.9904,18.9904,19.0056,19.0436,19.0512,19.0663,19.1195,19.2106,19.2789,19.3397,19.3625,19.3777,19.3701,19.3777,19.5143,19.651,19.7421,19.8636,19.9471,19.9699,19.8636,19.7877,19.7801,19.8105,19.8636,19.894,19.894,19.9623,20.0003,20.0003,20.0003,20.0003,20.0003,20.0003,20.0003,20.0003,20.0003,19.2417,19.3109,19.4823,19.6477,19.7981,19.8057,19.8057,19.8057,19.8057,19.8057,19.8057,19.8057,19.6628,19.4297,19.2476,19.0971,18.9485,18.8582,18.8507,18.9184,18.8582,18.8206,18.8206,18.8206,18.8206,18.8206,18.8206,18.8206,18.8206,18.8206,18.8206,18.8206,18.8206,18.8206,18.8206,18.8206,18.8206,18.8206,18.8357,18.9409,19.1515,19.3169,19.4162,19.4312,19.5199,19.3771,19.144,19.1122,19.0312,18.971,18.8883,18.8657,18.9033,18.8808,18.8206,18.8206,18.8206,18.8206,18.8206,18.8206,18.8206,18.8206,18.8206,18.8357,18.884,18.9221,18.96,18.9904,18.9904,18.9904,18.9904,18.9904,18.9904,18.9904,18.9904,18.9904,18.9904,18.9904,18.9904,18.9904,18.9904,19.0056,19.0132,19.036,19.0815,19.1802,19.2638,19.3397,19.3625,19.3701,19.3549,19.3397,19.4688,19.6206,19.7725,19.894,19.9775,19.9851,19.8712,19.8636,19.8484,19.8484,19.9016,19.932,19.9471,19.9623,19.9927,20.0003,20.0003,20.0003,20.0003,20.0003,20.0003,20.0003,20.0003,19.1289,19.2852,19.4522,19.6252,19.7605,19.7981,19.8057,19.8057,19.8057,19.8057,19.8057,19.7981,19.7154,19.5049,19.2476,19.1064,19.0236,18.9409,18.9501,19.0403,18.9109,18.8281,18.8507,18.8357,18.8206,18.8206,18.8206,18.8206,18.8281,18.8507,18.8507,18.8206,18.8206,18.8206,18.8206,18.8206,18.8206,18.8206,18.8432,18.9861,19.2267,19.4071,19.4763,19.4538,19.3996,19.2342,19.0387,18.971,18.8883,18.8507,18.8206,18.8206,18.8206,18.8206,18.8206,18.8206,18.8206,18.8206,18.8206,18.8206,18.8206,18.8206,18.8206,18.8281,18.8765,18.9221,18.9524,18.9828,18.9904,18.9904,18.9904,18.9904,18.9904,18.9904,18.9904,18.9904,18.9904,18.9904,18.9904,18.9904,18.9904,18.9904,18.9904,19.0132,19.0512,19.1575,19.2638,19.3549,19.4156,19.446,19.446,19.4688,19.5675,19.7042,19.8484,19.932,19.9851,20.0003,19.9699,19.9699,19.9471,19.9395,19.9699,19.9699,19.9851,20.0003,20.0003,20.0003,20.0003,20.0003,20.0003,20.0003,20.0003,20.0003,20.0003,18.9635,19.1289,19.2868,19.4522,19.6101,19.7455,19.8057,19.8057,19.8057,19.8057,19.8057,19.7981,19.7154,19.535,19.347,19.1891,19.0612,19.0554,19.108,19.1681,18.9936,18.9033,18.9409,18.9033,18.8206,18.8281,18.8357,18.8206,18.8733,18.9635,18.9259,18.8733,18.8281,18.8206,18.8206,18.8206,18.8206,18.8582,18.9334,19.0294,19.1364,19.2658,19.356,19.3395,19.3228,19.1648,18.9334,18.9259,18.9184,18.8507,18.8206,18.8206,18.8206,18.8206,18.8206,18.8206,18.8206,18.8206,18.8206,18.8206,18.8206,18.8206,18.8206,18.8507,18.8865,18.9176,18.9448,18.9752,18.9904,18.9904,18.9904,18.9904,18.9904,18.9904,18.9904,18.9904,18.9904,18.9904,18.9904,18.9904,18.9904,18.9904,18.998,19.0208,19.0967,19.203,19.3397,19.4232,19.5143,19.5447,19.613,19.6206,19.6738,19.8105,19.894,19.9775,19.9927,20.0003,20.0003,20.0003,20.0003,20.0003,20.0003,19.9851,20.0003,20.0003,20.0003,20.0003,20.0003,20.0003,20.0003,20.0003,20.0003,20.0003,20.0003,18.9184,19.0838,19.2417,19.3996,19.565,19.7305,19.8057,19.8057,19.8057,19.8057,19.8057,19.7981,19.6778,19.4823,19.4055,19.3905,19.2943,19.2358,19.2809,19.347,19.1816,19.0838,19.037,18.9861,18.9033,18.8733,18.9785,19.0612,19.0612,19.144,19.0838,18.9785,18.9409,18.8958,18.8357,18.8206,18.8657,18.9485,19.0236,19.1423,19.3169,19.2868,19.2567,19.2417,19.2267,19.1214,18.9033,18.9184,18.8958,18.8357,18.8206,18.8206,18.8206,18.8206,18.8206,18.8206,18.8206,18.8206,18.8206,18.8206,18.8206,18.8206,18.8281,18.8582,18.8965,18.9243,18.9546,18.9752,18.9904,18.9904,18.9904,18.9904,18.9904,18.9904,18.9904,18.9904,18.9904,18.9904,18.9904,18.9904,18.9904,18.998,18.998,19.0663,19.1499,19.2638,19.4004,19.5143,19.6206,19.7118,19.8105,19.8256,19.856,19.9395,19.9547,19.9927,20.0003,20.0003,20.0003,20.0003,20.0003,20.0003,20.0003,20.0003,20.0003,20.0003,20.0003,20.0003,20.0003,20.0003,20.0003,20.0003,20.0003,20.0003,20.0003,18.9033,19.0387,19.1966,19.362,19.5199,19.6929,19.7756,19.8057,19.8057,19.8057,19.8057,19.8057,19.6402,19.4522,19.5016,19.5468,19.4748,19.3485,19.356,19.4222,19.2884,19.1982,19.1364,19.1064,19.0462,19.0086,19.174,19.2943,19.2868,19.3244,19.2643,19.1305,19.0704,19.0086,18.9033,18.8357,18.8883,19.0236,19.1064,19.2643,19.4372,19.4522,19.362,19.1816,19.1515,19.0462,18.8582,18.8206,18.8206,18.8206,18.8206,18.8206,18.8206,18.8206,18.8206,18.8206,18.8206,18.8206,18.8206,18.8206,18.8206,18.8281,18.8357,18.8733,18.9141,18.9401,18.96,18.9828,18.9904,18.9904,18.9904,18.9904,18.9904,18.9904,18.9904,18.9904,18.9904,18.9904,18.9904,18.9904,18.998,19.0056,19.0512,19.1043,19.2486,19.4156,19.484,19.5447,19.7193,19.8712,19.9395,19.9699,20.0003,20.0003,20.0003,20.0003,20.0003,20.0003,20.0003,20.0003,20.0003,20.0003,20.0003,20.0003,20.0003,20.0003,20.0003,20.0003,20.0003,20.0003,20.0003,20.0003,20.0003,20.0003,20.0003,18.8281,18.8733,19.0312,19.1966,19.3545,19.5274,19.6778,19.7981,19.8057,19.8057,19.8057,19.8057,19.6929,19.55,19.5543,19.5618,19.5124,19.4011,19.3711,19.4146,19.2733,19.2433,19.2733,19.2868,19.2718,19.2583,19.4297,19.4372,19.3996,19.4222,19.4297,19.2733,19.1531,19.0913,19.0086,18.9109,18.9409,19.1139,19.2267,19.3846,19.535,19.6252,19.5049,19.2643,19.1064,18.9033,18.8432,18.8206,18.8206,18.8206,18.8206,18.8206,18.8206,18.8206,18.8206,18.8206,18.8206,18.8206,18.8206,18.8206,18.8206,18.8507,18.8564,18.8864,18.9297,18.9524,18.9676,18.9828,18.9904,18.9904,18.9904,18.9904,18.9904,18.9904,18.9904,18.9904,18.9904,18.9904,18.9904,18.9904,18.9904,19.0284,19.0891,19.1802,19.3777,19.5371,19.5295,19.5903,19.8332,19.9927,19.9851,20.0003,20.0003,20.0003,20.0003,20.0003,20.0003,20.0003,20.0003,20.0003,20.0003,20.0003,20.0003,20.0003,20.0003,20.0003,20.0003,20.0003,20.0003,20.0003,20.0003,20.0003,20.0003,20.0003,20.0003,18.8958,18.8357,19.0011,19.159,19.3153,19.4882,19.6477,19.7831,19.8057,19.8057,19.8057,19.8057,19.7154,19.565,19.6462,19.6312,19.565,19.55,19.565,19.535,19.4974,19.4387,19.4688,19.5199,19.5726,19.5801,19.6553,19.6477,19.6101,19.6402,19.5951,19.4387,19.3711,19.2793,19.1799,19.1272,19.1573,19.3019,19.4071,19.5199,19.6252,19.6101,19.4522,19.3846,19.1364,18.8958,18.8281,18.8206,18.8206,18.8206,18.8206,18.8206,18.8206,18.8206,18.8206,18.8206,18.8206,18.8206,18.8206,18.8206,18.8281,18.8507,18.8759,18.9119,18.9373,18.9676,18.9752,18.9828,18.9904,18.9904,18.9904,18.9904,18.9904,18.9904,18.9904,18.9904,18.9904,18.9904,18.9904,18.9904,18.9904,19.0436,19.1499,19.2714,19.4308,19.4916,19.4916,19.7193,19.9547,19.9851,19.9851,20.0003,20.0003,20.0003,20.0003,20.0003,20.0003,20.0003,20.0003,20.0003,20.0003,20.0003,20.0003,20.0003,20.0003,20.0003,20.0003,20.0003,20.0003,20.0003,20.0003,20.0003,20.0003,20.0003,20.0003,18.9334,18.8281,18.9635,19.1122,19.2626,19.398,19.5575,19.7455,19.753,19.7681,19.7981,19.8057,19.7305,19.6252,19.7305,19.738,19.6477,19.6778,19.753,19.7515,19.7515,19.6778,19.6703,19.7229,19.7906,19.7831,19.7981,19.7981,19.7981,19.7681,19.738,19.6041,19.544,19.4898,19.3529,19.3077,19.3829,19.5199,19.55,19.6101,19.6553,19.5124,19.4146,19.3771,19.1816,18.9785,18.8507,18.8206,18.8206,18.8206,18.8206,18.8206,18.8206,18.8206,18.8206,18.8206,18.8206,18.8206,18.8206,18.8281,18.8357,18.8676,18.9069,18.9297,18.96,18.9828,18.9904,18.9904,18.9904,18.9904,18.9904,18.9904,18.9904,18.9904,18.9904,18.9904,18.9904,18.9904,18.9904,18.9904,18.9904,19.0056,19.0587,19.2865,19.3852,19.4308,19.5979,19.8408,19.9168,19.9547,19.9775,20.0003,20.0003,20.0003,20.0003,20.0003,20.0003,20.0003,20.0003,20.0003,20.0003,20.0003,20.0003,20.0003,20.0003,20.0003,20.0003,20.0003,20.0003,20.0003,20.0003,20.0003,20.0003,20.0003,20.0003,18.8357,18.8131,18.8357,18.9409,19.0821,19.1214,19.3169,19.544,19.574,19.6553,19.7605,19.7981,19.7605,19.7831,19.7756,19.7981,19.7681,19.6778,19.6252,19.6252,19.6327,19.6778,19.7455,19.7906,19.8057,19.8057,19.8057,19.8057,19.8057,19.8057,19.7906,19.738,19.6191,19.55,19.5183,19.3996,19.4071,19.5274,19.5575,19.574,19.544,19.4898,19.347,19.2041,19.0688,18.9635,18.8582,18.8206,18.8206,18.8206,18.8206,18.8206,18.8206,18.8206,18.8206,18.8206,18.8206,18.8206,18.8206,18.8357,18.8657,18.8991,18.9318,18.9599,18.9752,18.9828,18.9904,18.9904,18.9904,18.9904,18.9904,18.9904,18.9904,18.9904,18.9904,18.9904,18.9904,18.9904,18.9904,18.9904,18.9904,19.0663,19.165,19.2714,19.3701,19.4384,19.6662,19.8408,19.9016,19.9471,19.9851,20.0003,20.0003,20.0003,20.0003,20.0003,20.0003,20.0003,20.0003,20.0003,20.0003,20.0003,20.0003,20.0003,20.0003,20.0003,20.0003,20.0003,20.0003,20.0003,20.0003,20.0003,20.0003,20.0003,20.0003,18.6101,18.5274,18.6327,18.7662,18.9241,19.0236,19.1966,19.3771,19.4087,19.4538,19.5214,19.6101,19.6553,19.6703,19.7605,19.8057,19.7981,19.7305,19.7004,19.7004,19.6778,19.7154,19.7756,19.8057,19.8057,19.8057,19.8057,19.8057,19.8057,19.8057,19.8057,19.7906,19.738,19.7004,19.6703,19.6177,19.5951,19.55,19.55,19.4989,19.4071,19.3244,19.1891,19.1047,18.9635,18.9033,18.8357,18.8206,18.8206,18.8206,18.8206,18.8206,18.8206,18.8206,18.8206,18.8206,18.8206,18.8206,18.8206,18.8432,18.8762,18.9069,18.9362,18.96,18.9828,18.9904,18.9904,18.9904,18.9904,18.9904,18.9904,18.9904,18.9904,18.9904,18.9904,19.036,19.1271,19.0512,18.998,18.9904,18.9904,19.0284,19.0815,19.2789,19.3928,19.484,19.6738,19.8105,19.8636,19.9547,20.0003,20.0003,20.0003,19.9775,19.9699,19.9775,19.9775,19.9927,20.0003,20.0003,20.0003,20.0003,19.9927,19.9851,19.9927,20.0003,20.0003,20.0003,19.9699,19.9395,20.0003,20.0003,20.0003,20.0003,20.0003,18.4221,18.3319,18.4447,18.5706,18.691,18.8113,18.9542,19.0971,19.1005,19.1155,19.1907,19.3094,19.3395,19.3695,19.4823,19.5801,19.5801,19.5876,19.6327,19.7079,19.6327,19.565,19.6177,19.6929,19.7605,19.8057,19.8057,19.8057,19.8057,19.8057,19.8057,19.8057,19.7455,19.7305,19.7305,19.6703,19.6101,19.5049,19.4823,19.4071,19.2492,19.1347,19.052,19.0069,18.8808,18.8281,18.8206,18.8206,18.8206,18.8206,18.8206,18.8206,18.8206,18.8206,18.8206,18.8206,18.8206,18.8206,18.8206,18.8507,18.8814,18.9079,18.9448,18.9676,18.9904,18.9904,18.9904,18.9904,18.9904,18.9904,18.9904,18.9904,18.9904,18.9904,18.9904,19.036,19.1119,19.0663,18.9904,18.9904,18.9904,18.9904,19.0587,19.2182,19.3625,19.3549,19.5523,19.8029,19.7193,19.7573,19.7877,19.8484,19.894,19.9016,19.9244,19.932,19.9471,19.9547,19.9547,19.9395,19.932,19.894,19.8788,19.8864,19.8105,19.7801,19.8332,19.894,19.8636,19.7953,19.8484,19.894,19.9168,19.9623,19.9623,18.3168,18.3093,18.3168,18.3394,18.3544,18.3845,18.4973,18.6101,18.6269,18.7096,18.8281,18.8883,18.8883,18.8733,18.9592,19.0554,19.0988,19.1515,19.2868,19.3453,19.144,19.0236,19.1831,19.4087,19.5951,19.738,19.7681,19.7906,19.8057,19.7906,19.8057,19.7681,19.6402,19.5665,19.544,19.4162,19.356,19.3319,19.3303,19.2551,19.1047,19.0821,19.0219,18.8808,18.8507,18.8357,18.8432,18.8432,18.8357,18.8206,18.8206,18.8206,18.8206,18.8206,18.8206,18.8206,18.8206,18.8206,18.8281,18.8657,18.9116,18.9185,18.9524,18.9904,18.9904,18.9904,18.9904,18.9904,18.9904,18.9904,18.9904,18.9904,18.9904,18.9904,19.036,19.036,19.0208,19.0284,19.036,19.0208,18.9904,18.9904,19.0056,19.1575,19.241,19.2714,19.408,19.5447,19.5371,19.5523,19.5371,19.5675,19.6206,19.6662,19.7573,19.7725,19.8105,19.8181,19.8181,19.8029,19.7801,19.6814,19.6206,19.6054,19.5675,19.5523,19.5675,19.613,19.6282,19.651,19.6966,19.7421,19.7953,19.856,19.8788,18.0086,18.0161,18.1213,18.1665,18.172,18.2773,18.345,18.3996,18.4014,18.439,18.5123,18.6082,18.6609,18.6778,18.7697,18.8524,18.9033,18.9109,18.9241,18.8847,18.7116,18.7511,18.9166,19.0462,19.2207,19.4431,19.4898,19.5951,19.7906,19.7079,19.6477,19.6252,19.4823,19.3996,19.3921,19.326,19.2433,19.1816,19.2476,19.225,19.1197,19.1648,19.1874,19.1197,19.0236,18.9785,18.9785,18.971,18.9259,18.8357,18.8206,18.8206,18.8206,18.8206,18.8206,18.8206,18.8206,18.8206,18.8206,18.8733,18.9066,18.9185,18.9611,18.9904,18.9904,18.9904,18.9904,18.9904,18.9828,18.9904,18.9904,18.9904,18.9904,18.9904,19.1499,19.2486,19.1878,19.241,19.2562,19.1575,19.1347,19.0967,19.0587,19.1271,19.1954,19.1423,19.3169,19.4764,19.3852,19.4232,19.4764,19.5067,19.4612,19.484,19.5675,19.6282,19.6738,19.6738,19.6586,19.613,19.6206,19.5143,19.4232,19.4156,19.4156,19.408,19.4156,19.4308,19.4308,19.5067,19.5599,19.5827,19.6054,19.689,19.7573,17.8281,17.8431,17.9484,18.0236,18.0892,18.187,18.2698,18.3074,18.3093,18.3168,18.3375,18.4332,18.4578,18.4522,18.5274,18.58,18.5875,18.6327,18.5706,18.4352,18.4182,18.4709,18.5687,18.6402,18.7998,19.0445,19.1214,19.3019,19.5049,19.4598,19.4372,19.4372,19.3094,19.2342,19.2267,19.174,19.1064,19.0161,19.0971,19.1347,19.0913,19.1723,19.2551,19.2852,19.2041,19.1681,19.2192,19.1723,19.0896,18.9785,18.9184,18.8657,18.8281,18.8206,18.8206,18.8206,18.8206,18.8206,18.8206,18.8715,18.8916,18.8549,18.8852,18.8993,18.8461,18.8309,18.8537,18.9069,18.9145,18.9524,18.9752,18.9904,18.9373,18.8537,19.0891,19.1726,19.0891,19.2562,19.3397,19.2638,19.1954,19.1195,19.0512,19.0663,19.1043,19.0436,19.1726,19.2865,19.203,19.2486,19.3321,19.3397,19.3473,19.3169,19.4232,19.4991,19.5067,19.4916,19.4232,19.3473,19.408,19.3928,19.3169,19.2865,19.2941,19.2941,19.3017,19.3017,19.2714,19.3017,19.408,19.4384,19.4308,19.484,19.5675,17.8281,17.8281,17.8281,17.9258,18.0516,18.0892,18.172,18.2773,18.3074,18.3149,18.3093,18.3224,18.2773,18.1439,18.187,18.1213,18.174,18.2868,18.2642,18.1364,18.1193,18.1269,18.1344,18.2586,18.4164,18.5951,18.7454,18.9125,19.102,19.0929,19.1648,19.2476,19.1498,19.0896,19.0896,18.9861,18.8733,18.8883,18.9334,18.971,19.0554,19.138,19.2267,19.3169,19.326,19.3861,19.5124,19.3829,19.2852,19.2476,19.1214,18.9861,18.8432,18.8206,18.8206,18.8206,18.8206,18.8206,18.8206,18.8657,18.8162,18.7337,18.7258,18.7019,18.5956,18.5576,18.6108,18.7322,18.7626,18.8082,18.9221,18.9448,18.8385,18.6032,18.7322,18.8537,18.8765,19.0663,19.2486,19.2486,19.1423,19.0132,18.998,19.0208,19.0208,18.998,19.0284,19.0436,19.0436,19.0587,19.0208,19.0284,19.0815,19.1499,19.2638,19.3701,19.3473,19.3245,19.2638,19.3017,19.4308,19.3928,19.3321,19.2941,19.3093,19.3017,19.3169,19.3093,19.2562,19.2562,19.2562,19.3321,19.3852,19.4536,19.484,17.8281,17.8281,17.8281,17.8582,17.9183,18.0311,18.1063,18.1589,18.2642,18.3168,18.3093,18.3168,18.2868,18.2416,18.2397,18.187,18.0913,18.1289,18.1233,18.08,18.0762,18.0216,17.9334,17.9634,18.0762,18.2416,18.3976,18.6233,18.8524,18.7906,18.879,19.1179,18.9749,18.9994,19.1874,19.1723,19.1498,19.1665,19.2567,19.3319,19.3996,19.5049,19.5951,19.6402,19.6477,19.6252,19.5575,19.4974,19.3829,19.174,19.0988,18.9936,18.8357,18.8206,18.8206,18.8206,18.8131,18.8206,18.8131,18.7755,18.7182,18.6656,18.6183,18.5728,18.5196,18.5044,18.5272,18.5652,18.588,18.5956,18.6487,18.6639,18.6183,18.5576,18.6563,18.793,18.9145,19.1119,19.2789,19.3397,19.241,19.1119,19.0208,18.998,18.9904,18.9904,18.9904,18.9904,18.9904,18.9904,18.9904,18.9904,18.9904,19.0284,19.0967,19.2941,19.3549,19.3928,19.3625,19.5219,19.6206,19.484,19.4004,19.3701,19.3473,19.3397,19.3397,19.3397,19.3549,19.3701,19.3199,19.2697,19.3549,19.4384,19.4232,17.8281,17.8281,17.8281,17.8582,17.9258,18.0311,18.1138,18.1684,18.2736,18.3112,18.3168,18.3112,18.2811,18.2266,18.2322,18.1665,18.0837,18.1364,18.1308,18.0725,18.0762,17.986,17.8356,17.8281,17.8882,17.986,18.0892,18.2792,18.5123,18.4447,18.5556,18.8169,18.7737,18.8941,19.1648,19.225,19.2492,19.3094,19.4071,19.4974,19.55,19.6628,19.7154,19.7154,19.6628,19.5726,19.4688,19.4598,19.3771,19.1606,19.0988,19.0161,18.9184,18.8507,18.8206,18.8131,18.7605,18.7304,18.7304,18.6344,18.5468,18.4997,18.4409,18.3905,18.3374,18.3298,18.3754,18.4665,18.4665,18.3754,18.3526,18.383,18.4133,18.4437,18.6183,18.793,18.9221,19.1119,19.2562,19.2941,19.2865,19.1726,19.0436,18.9904,18.9904,18.9904,18.9904,18.9904,18.9904,18.9904,18.9904,18.9904,18.9904,18.9904,18.9904,19.203,19.3245,19.3625,19.4004,19.4612,19.4384,19.2714,19.2714,19.2258,19.2106,19.203,19.1802,19.1856,19.1899,19.2168,19.2231,19.2051,19.3147,19.2334,19.2486,17.8055,17.798,17.8055,17.8657,18.0366,18.0366,18.1289,18.2077,18.2679,18.2811,18.2642,18.2736,18.1909,18.0236,18.0161,18.0386,18.0687,18.1665,18.1514,18.0386,18.0461,17.971,17.8206,17.8281,17.8356,17.8807,17.8827,17.9504,18.1063,18.0837,18.2322,18.5461,18.5725,18.7396,19.0403,19.1005,19.1606,19.2943,19.3335,19.4011,19.5289,19.5364,19.5139,19.4838,19.3695,19.2868,19.2943,19.2959,19.2959,19.2884,19.1456,19.0612,19.037,18.9033,18.8131,18.783,18.6419,18.5592,18.5517,18.4462,18.321,18.2007,18.1779,18.1476,18.0261,18.0109,18.14,18.4437,18.2994,18.1779,18.0944,18.1628,18.2083,18.2539,18.5044,18.6335,18.7019,18.9069,19.0815,19.0284,19.0891,19.1119,19.0056,18.9904,18.9904,18.9904,18.9904,18.9904,18.9904,18.9904,18.9904,18.9904,18.9904,18.9828,18.9828,19.0891,19.0815,19.1271,19.2182,19.1119,19.036,19.0132,19.0436,19.0663,19.1499,19.1545,19.0627,19.0533,19.1093,19.1382,19.1761,19.161,19.2712,19.0927,19.1244,17.4693,17.4693,17.4747,17.4972,17.5499,17.6605,17.7379,17.7869,17.9053,17.9634,17.9559,17.9559,17.8131,17.5649,17.5424,17.61,17.7078,17.7529,17.7508,17.7357,17.8431,17.8055,17.6647,17.7604,17.8882,17.971,17.8807,17.9108,18.0461,17.9634,18.0592,18.358,18.5029,18.7304,19.0478,19.1907,19.2583,19.3094,19.4297,19.5049,19.5124,19.326,19.1456,19.0328,18.971,19.0126,19.1254,19.1364,19.1305,19.1289,19.0913,19.0161,18.8958,18.8432,18.7605,18.6344,18.4991,18.3713,18.2567,18.1446,18.0112,17.859,17.7527,17.7299,17.7983,17.8135,17.9198,18.102,17.9881,18.0033,18.102,18.0033,17.9501,18.0413,17.897,17.9501,18.1931,18.2691,18.4513,18.6183,18.8082,18.9069,18.9752,18.9752,18.9676,18.9676,18.9752,18.9904,18.9904,18.9904,18.9904,18.9904,18.9904,18.9448,18.8613,18.9752,19.1575,19.1954,19.2258,19.2638,19.3549,19.3473,19.3397,19.0739,19.2865,19.3243,19.1953,19.27,19.3659,19.3583,19.3659,19.3583,19.2672,19.3355,19.3431,17.4747,17.5348,17.4597,17.3995,17.3672,17.5026,17.5348,17.4843,17.58,17.6251,17.61,17.4747,17.3168,17.1438,17.2115,17.2867,17.3769,17.4499,17.4725,17.4875,17.5778,17.58,17.4918,17.582,17.6777,17.7604,17.7379,17.7679,17.8507,17.8431,17.9559,18.2096,18.3751,18.6251,18.9501,19.1305,19.2433,19.3019,19.3996,19.4206,19.3378,19.0988,18.9485,18.9109,18.8489,18.8696,18.9449,18.8281,18.7622,18.753,18.6327,18.5424,18.5123,18.5123,18.4973,18.4615,18.4014,18.2787,18.0668,17.8646,17.7148,17.6312,17.5401,17.5325,17.6312,17.6464,17.7148,17.859,17.8742,17.9198,18.102,18.0337,17.9957,18.064,17.9957,17.9957,18.1855,18.2159,18.2691,18.4665,18.5956,18.6943,18.7702,18.793,18.793,18.793,18.8613,18.8841,18.8993,18.9524,18.96,18.9145,18.8917,18.8537,18.8006,18.9373,19.0056,19.0436,19.0815,19.0891,19.0512,19.0891,19.0967,19.0587,19.077,19.1244,19.2065,19.2217,19.29,19.2596,19.2824,19.29,19.29,19.29,19.29,17.5778,17.6981,17.5348,17.4274,17.2995,17.4274,17.4123,17.2942,17.292,17.292,17.2642,16.9709,16.8506,16.8581,17.001,17.0634,17.0837,17.2243,17.2844,17.2844,17.3122,17.3243,17.349,17.349,17.3415,17.3941,17.4972,17.5574,17.5745,17.6948,17.8582,18.0291,18.2171,18.4672,18.7547,18.9501,19.108,19.2567,19.2267,19.1423,18.9994,18.8395,18.8169,18.9674,18.8094,18.7267,18.6834,18.4315,18.2679,18.2453,18.0236,17.9258,18.0441,18.0762,18.1233,18.2228,18.2642,18.1847,17.9239,17.616,17.4414,17.449,17.4338,17.4414,17.4718,17.4566,17.5173,17.6692,17.8287,17.8894,17.9577,18.0337,18.0716,18.0868,18.1855,18.3981,18.3374,18.4285,18.4437,18.4589,18.4589,18.4969,18.5348,18.5424,18.5272,18.5576,18.6639,18.7322,18.7398,18.8234,18.8537,18.7398,18.7322,18.7246,18.6943,18.7171,18.755,18.7398,18.6259,18.6032,18.6183,18.5956,18.5195,18.7003,18.6792,18.7588,18.7815,18.8271,18.9485,18.9864,18.994,18.9864,18.994,19.0244,18.994,17.0235,17.0559,17.016,16.9784,16.9483,16.9859,16.9784,16.9483,16.9483,16.9483,16.9408,16.8731,16.8356,16.8356,16.8731,16.8957,16.8957,16.9258,16.9483,16.9559,17.0814,17.2168,17.3296,17.3393,17.4048,17.5003,17.4326,17.3845,17.4016,17.4262,17.5294,17.7153,18.1043,18.3469,18.4332,18.7246,18.8883,18.9033,18.6627,18.518,18.4728,18.3299,18.2642,18.2868,18.1439,18.0481,18.0406,17.9748,17.9372,17.9353,17.9915,17.9743,17.8968,18.0065,17.9785,17.7624,17.7454,17.6914,17.5498,17.3849,17.244,17.1301,17.1225,17.1681,17.2744,17.1908,17.1832,17.3275,17.411,17.487,17.5933,17.5553,17.5249,17.6388,17.5933,17.6312,17.7224,17.8363,17.9653,18.1096,18.2311,18.3526,18.4665,18.5044,18.4893,18.4817,18.5348,18.5652,18.5652,18.588,18.55,18.4513,18.4817,18.512,18.3981,18.4741,18.55,18.5652,18.5196,18.4817,18.4741,18.4893,18.4893,18.4705,18.5122,18.5387,18.5463,18.5842,18.6601,18.7739,18.7967,18.8347,18.9333,18.9561,18.9105,17.1062,17.1536,17.016,16.9935,17.0536,16.8957,16.8356,16.8356,16.8356,16.8356,16.8356,16.8356,16.8356,16.8356,16.8356,16.8356,16.8356,16.8356,16.8356,16.8431,16.9258,17.0212,17.1039,17.1062,17.1942,17.3423,17.2619,17.2694,17.334,17.3415,17.3791,17.4822,17.8034,18.0537,18.2077,18.4615,18.5818,18.58,18.3319,18.2397,18.3053,18.0762,18.001,18.0706,17.9108,17.8281,17.8206,17.6798,17.6046,17.6003,17.5477,17.5026,17.4928,17.5724,17.58,17.4747,17.4875,17.4451,17.3083,17.2625,17.1756,17.0238,17.0086,17.0162,17.0238,17.0769,17.1529,17.2364,17.3199,17.3958,17.4794,17.411,17.3958,17.487,17.411,17.3958,17.487,17.5857,17.6692,17.7603,17.8514,17.9729,18.14,18.1552,18.1779,18.2615,18.2767,18.307,18.383,18.2691,18.1476,18.1552,18.2767,18.3298,18.2842,18.3374,18.383,18.3905,18.3298,18.2767,18.2767,18.2691,18.2691,18.2704,18.3288,18.3642,18.3718,18.4249,18.5084,18.6146,18.6222,18.6449,18.7208,18.7588,18.6981,17.3393,17.4446,17.1664,17.1363,17.2416,16.9559,16.8356,16.8356,16.8356,16.8356,16.8356,16.8356,16.8356,16.8356,16.8356,16.8356,16.8356,16.8356,16.8356,16.8356,16.8356,16.8506,16.8656,16.8431,16.9183,17.0738,17.0663,17.1288,17.2566,17.2867,17.3017,17.3243,17.4875,17.7303,18.0274,18.2228,18.2811,18.2041,18.0762,18.0913,18.2622,17.9785,17.9033,18.0612,17.8937,17.7711,17.7185,17.4274,17.2544,17.2294,16.9761,16.8882,17.0032,17.0461,17.0837,17.1641,17.2092,17.1793,17.0415,17.0666,17.0542,16.9479,16.963,16.8795,16.6821,16.9706,17.1756,17.1832,17.3123,17.4262,17.4262,17.411,17.3958,17.411,17.4414,17.4566,17.449,17.4794,17.5097,17.5173,17.4946,17.5781,17.7148,17.7375,17.7907,17.897,17.9274,17.9729,18.0413,17.897,17.7983,17.9122,18.0565,18.1324,18.0944,18.1552,18.1628,18.1779,18.0792,18.0413,18.0413,18.0413,18.0404,18.0075,18.1213,18.1896,18.1972,18.3186,18.3869,18.4401,18.4476,18.4704,18.5159,18.4552,18.4097,16.9408,16.9559,16.9032,16.8957,16.9183,16.8581,16.8356,16.8356,0.0,0.0,0.0,16.8356,16.8356,16.8356,16.8356,16.8356,16.8356,16.8356,16.8356,16.8356,16.8356,16.9032,17.0362,16.8957,16.9183,17.0738,16.9431,16.8905,16.9258,17.0611,17.1288,17.1589,17.4274,17.668,17.8786,18.1589,18.1138,17.7228,17.6777,17.811,18.0968,17.9258,17.9087,18.0721,17.7787,17.4875,17.2266,17.0311,16.8581,16.7279,16.788,16.788,16.6875,16.8055,16.7176,16.3817,16.3568,16.3679,16.3783,16.3853,16.4543,16.5834,16.7201,16.6138,16.1658,16.5682,16.8416,16.8416,16.9934,17.0921,17.0997,17.0997,17.0921,17.0997,17.206,17.282,17.2971,17.4034,17.4794,17.4946,17.4794,17.5097,17.5325,17.5401,17.5553,17.5781,17.6085,17.6009,17.6085,17.5933,17.5553,17.5933,17.6616,17.654,17.654,17.7527,17.8287,17.859,17.9274,17.9957,17.999,18.0012,17.9923,17.962,17.9999,18.0151,18.0227,18.053,18.1137,18.2503,18.2807,18.3186,18.4173,18.2655,18.0758,16.7077,16.7026,16.7077,16.7077,0.0,16.798,16.7378,16.5874,16.5898,16.5823,16.5874,16.5874,16.6325,16.7077,16.7026,16.7528,16.8356,16.8356,16.8356,16.8356,16.8356,16.8356,16.8356,16.8356,16.8807,16.9483,16.8731,16.8807,16.9559,16.9559,16.9634,16.9581,17.204,17.3747,17.4597,17.6948,17.6572,17.3318,17.407,17.5348,17.6906,17.5348,17.4897,17.5627,17.3318,0.0,0.0,0.0,0.0,0.0,0.0,0.0,0.0,0.0,0.0,16.1313,15.9783,15.9093,15.9304,15.8772,15.9228,16.105,16.1202,15.938,15.5279,15.8772,16.1885,16.3556,16.4467,16.5302,16.6138,16.7049,16.7504,16.758,16.8947,16.9934,17.0162,17.1453,17.2516,17.244,17.2516,17.282,17.3503,17.3655,17.3958,17.4794,17.4946,17.5022,17.4849,17.4236,17.364,17.3731,17.4262,17.4946,17.5022,17.5781,17.6236,17.6236,17.6918,17.7355,17.7432,17.7419,17.7419,17.7343,17.7343,17.7343,17.7419,17.8102,17.8861,17.9696,18.0455,18.0986,17.9772,17.8557,17.7343,16.5047,16.5297,16.5047,16.5047,16.5423,16.61,16.4972,16.2491,16.2516,16.2516,16.2566,16.254,16.3292,16.437,16.447,16.5372,16.6927,16.6927,16.7152,16.7453,16.7679,16.7101,16.5973,16.7528,16.8356,16.8356,16.8356,16.9032,17.0362,16.9333,16.8656,16.8379,17.0311,17.1213,17.0956,0.0,0.0,0.0,17.2115,17.3093,17.3296,17.204,17.1363,17.1288,16.9732,0.0,16.8356,16.8031,16.7855,16.7805,16.7829,0.0,0.0,0.0,0.0,0.0,0.0,0.0,0.0,0.0,0.0,0.0,15.2242,15.0875,14.9357,15.1559,15.4292,15.733,15.8772,15.9911,16.0973,16.2568,16.3708,16.4087,16.5302,16.6289,16.6669,16.7808,16.8795,16.9099,16.9479,17.0086,17.1225,17.1832,17.2516,17.3579,17.3958,17.3958,17.3877,17.2739,17.2011,17.1984,17.2895,17.3883,17.4034,17.4186,17.449,17.4562,17.4627,17.498,17.5155,17.5067,17.4991,17.5067,17.4915,17.5067,17.5067,17.5977,17.704,17.704,17.795,17.8102,17.5522,17.4991,17.4915,16.2415,16.3618,16.219,16.2415,16.3543,16.081,15.9504,15.9128,15.9058,15.9058,15.9107,15.9099,15.9203,15.9408,15.9333,16.036,16.1889,16.1938,16.2641,16.4145,16.5447,16.6048,16.5898,16.7528,16.8356,16.8356,16.8356,16.8506,16.8656,16.9935,16.9784,16.8581,17.1491,17.2318,17.0837,16.9634,16.8882,16.8731,17.0311,17.1942,17.3371,17.3168,17.3017,17.2995,17.1438,16.9859,16.8431,16.6902,16.615,16.61,16.6124,16.5372,16.3844,16.0761,15.6577,0.0,14.7692,0.0,0.0,0.0,0.0,0.0,0.0,0.0,0.0,14.6016,14.7079,14.8977,15.4368,15.725,15.5994,15.7399,15.9,16.0443,16.0822,16.1506,16.2948,16.3328,16.4011,16.553,16.6973,16.7884,16.8264,16.9479,17.039,17.0845,17.0693,17.0456,17.0549,17.0407,17.0205,17.0218,17.0417,17.0956,17.0991,17.1882,17.275,17.2902,17.3757,17.4904,17.4776,17.4763,17.4839,17.4839,17.4687,17.4763,17.4915,17.5067,17.5294,17.5294,17.537,17.537,17.4839,17.4611,17.4915,15.5047,15.6598,15.6776,15.5122,15.234,15.0852,15.0701,15.1529,15.1541,15.2019,15.2894,15.2912,15.3965,15.5723,15.575,15.6652,15.8129,15.908,15.9955,16.0708,16.239,16.3117,16.3216,16.5748,16.6499,16.5673,16.6551,16.6927,16.6875,16.6852,16.6777,16.6927,16.8482,16.7904,16.5447,16.5597,16.6048,16.6927,16.7679,16.8807,17.0461,17.0611,17.0611,17.0536,16.9859,16.9107,16.8356,16.6701,16.5799,16.5799,16.4972,16.2566,15.8205,15.5798,15.1663,0.0,0.0,0.0,0.0,0.0,0.0,0.0,0.0,0.0,0.0,0.0,13.9777,14.0473,14.6615,15.0239,14.9524,15.1688,15.353,15.4368,15.4443,15.5048,15.6798,15.7779,15.8915,16.0671,16.2341,16.4011,16.591,16.6821,16.7884,16.9706,16.757,16.609,16.7035,16.8033,16.851,16.8586,16.9312,16.9931,16.9894,17.0549,17.1045,17.1045,17.1676,17.2143,17.2107,17.2107,17.2107,17.2107,17.2107,17.2107,17.2183,17.2866,17.3549,17.3397,17.279,17.2183,17.2107,17.2107,17.2107,14.8324,14.9753,14.8655,14.6023,14.2414,14.2425,14.3637,14.5402,14.5377,14.5932,14.6759,14.7227,14.8279,15.0009,15.0009,15.1061,15.3016,15.4764,15.5637,15.6239,15.8629,15.9584,15.9333,16.254,16.3441,16.2389,16.3493,16.4295,16.4545,16.3042,16.3092,16.4571,16.3819,16.219,15.9934,16.2239,16.3869,16.4596,16.5799,16.6852,16.7679,16.813,16.8356,16.8356,16.8356,16.813,16.7679,16.6499,16.5447,16.4671,16.2791,15.9032,15.3392,15.0129,0.0,0.0,0.0,0.0,0.0,0.0,0.0,0.0,0.0,12.1483,12.1871,0.0,13.2606,0.0,13.9673,14.3357,14.3813,14.605,0.0,0.0,14.7825,14.8201,14.9959,15.1605,15.3185,15.4894,15.7253,15.9759,16.2338,16.3325,16.4767,16.7118,16.5263,16.4,16.4822,16.6947,16.8465,16.8237,16.8768,16.9299,16.9224,16.9299,16.9527,17.0362,17.0893,17.0893,17.0589,17.0514,17.0362,16.9982,16.9907,16.9907,16.9982,17.0893,17.1652,17.1197,17.021,16.9299,16.9299,16.892,16.8768,14.4971,14.5572,13.67,13.5271,13.8922,13.901,14.0781,14.3788,14.3811,14.3047,14.1844,14.3392,14.2458,13.9825,13.9739,0.0,14.467,14.623,14.7778,14.9497,15.4149,15.5526,15.4349,15.7505,15.8933,15.8831,15.8983,15.9784,16.1238,15.9584,15.9633,16.1186,15.8225,15.6523,15.6553,16.1087,16.2791,16.1363,16.5799,16.7453,16.6075,16.7528,16.8356,16.8356,16.8356,16.7604,16.61,16.5823,16.4395,16.1438,15.8231,15.4999,15.1616,0.0,0.0,0.0,0.0,0.0,0.0,0.0,0.0,0.0,0.0,0.0,0.0,0.0,0.0,0.0,13.5929,0.0,14.0235,14.0625,0.0,0.0,0.0,14.1433,14.3073,14.4733,14.6479,14.8158,0.0,0.0,15.569,15.849,16.053,16.0736,16.4344,16.6478,16.505,16.8616,17.1424,16.9603,16.8465,16.7554,16.7706,16.763,16.8465,17.1121,17.3473,17.3473,17.2259,17.1955,17.15,17.0058,16.9831,16.9755,16.9831,16.9527,16.9603,16.7782,16.7402,16.7402,16.7175,16.6112,16.5581,13.4143,13.0459,12.3616,12.2488,12.5006,12.4105,12.6774,13.1655,13.1645,13.2396,13.3641,13.4327,13.279,12.9746,13.0719,0.0,0.0,0.0,13.9983,14.2651,14.5572,14.876,15.2114,15.4445,15.5949,15.6776,15.5949,15.6325,15.7829,15.5272,15.234,14.9001,0.0,0.0,14.8542,15.247,15.56,15.7979,16.1814,16.4496,16.5849,16.7453,16.8356,16.828,16.7326,16.6499,16.5799,16.2942,15.9859,15.6626,15.3392,14.843,0.0,0.0,0.0,0.0,0.0,0.0,0.0,0.0,0.0,0.0,0.0,11.1298,11.098,0.0,0.0,0.0,12.4545,12.688,13.0598,13.4544,0.0,0.0,0.0,0.0,0.0,0.0,0.0,13.5733,14.2495,14.8562,15.1574,15.1412,15.1326,15.2301,15.5814,15.8471,15.8827,0.0,16.6492,16.6795,16.6264,16.6188,16.7175,16.6492,16.6264,16.763,16.9224,17.0058,16.9451,16.9375,16.9148,16.8313,16.6719,16.5657,16.6643,16.3456,16.0649,16.0041,15.989,16.0193,16.1256,16.0876,16.1167,12.2037,0.0,0.0,0.0,0.0,11.4443,11.7113,12.2373,12.2327,12.3411,12.5221,12.5608,0.0,0.0,0.0,0.0,0.0,0.0,13.2872,13.5242,13.9265,14.3134,14.682,14.8956,15.0581,15.1559,15.0054,15.0084,15.1437,14.6926,14.2533,13.8362,0.0,0.0,0.0,0.0,15.0263,15.3843,15.8505,16.2314,16.5097,16.6777,16.7679,16.7604,16.5973,16.4695,16.3694,15.9358,15.5074,15.0986,14.6324,0.0,0.0,0.0,0.0,0.0,0.0,0.0,0.0,0.0,0.0,0.0,0.0,0.0,0.0,0.0,0.0,0.0,0.0,0.0,12.172,12.6804,12.9991,0.0,0.0,0.0,0.0,0.0,0.0,0.0,0.0,0.0,14.3974,14.3357,14.3813,0.0,0.0,15.4122,15.4881,15.9586,16.3153,16.3456,16.3001,0.0,16.4367,16.3456,16.2925,16.338,16.5202,16.6492,16.6023,16.5126,16.4367,16.3836,16.1787,15.989,15.9131,15.5185,15.2453,15.2681,15.2757,15.3212,15.4274,15.4578,15.5324,0.0,0.0,0.0,0.0,0.0,0.0,0.0,0.0,11.8692,11.7894,0.0,11.8233,0.0,0.0,0.0,0.0,11.9255,12.4059,0.0,0.0,13.6371,13.9407,13.6808,13.9846,14.1499,14.1454,13.989,13.989,14.0928,13.335,0.0,0.0,0.0,0.0,0.0,0.0,14.8609,14.9031,15.6748,16.1788,16.3543,16.5071,16.5898,16.5898,16.437,16.2039,15.8731,15.5374,15.0742,14.4279,13.629,0.0,0.0,0.0,0.0,0.0,0.0,0.0,0.0,0.0,0.0,0.0,0.0,0.0,0.0,0.0,0.0,0.0,0.0,0.0,0.0,11.6863,0.0,0.0,0.0,0.0,0.0,0.0,0.0,0.0,0.0,0.0,13.1291,13.4782,13.9487,14.4409,0.0,0.0,0.0,0.0,16.3608,16.0573,15.8751,15.7765,15.7841,15.7765,15.8296,15.9814,0.0,0.0,16.2685,15.989,15.7234,15.564,15.5185,15.3136,14.6762,14.5244,14.5472,14.6989,14.7,14.7455,14.7596,14.7293,14.7888,0.0,0.0,0.0,0.0,0.0,0.0,0.0,0.0,0.0,10.5781,0.0,10.7759,0.0,0.0,0.0,0.0,0.0,0.0,0.0,0.0,12.2412,12.4921,12.4987,12.94,13.1471,0.0,13.091,12.8088,0.0,0.0,0.0,0.0,0.0,0.0,0.0,0.0,14.1017,14.5422,15.2461,15.7999,16.1686,16.3468,16.4719,16.5748,16.3242,15.9257,15.3768,14.8412,14.2476,0.0,0.0,0.0,0.0,0.0,0.0,0.0,0.0,0.0,0.0,0.0,0.0,0.0,0.0,0.0,0.0,0.0,0.0,0.0,0.0,0.0,0.0,0.0,11.4139,0.0,0.0,0.0,0.0,0.0,0.0,0.0,0.0,0.0,12.3853,12.871,13.4402,13.9401,14.4474,14.9026,15.2757,0.0,0.0,0.0,0.0,0.0,0.0,0.0,15.564,15.5109,15.5033,15.4881,15.4262,15.2365,15.0708,15.0101,0.0,0.0,13.6517,13.5075,13.5227,13.5834,13.425,13.4099,13.8338,13.7504,13.772,0.0,0.0,0.0,0.0,0.0,0.0,0.0,0.0,0.0,9.4603,9.7976,0.0,0.0,0.0,0.0,0.0,0.0,0.0,0.0,0.0,0.0,0.0,11.7299,12.121,0.0,0.0,0.0,0.0,0.0,0.0,0.0,0.0,0.0,0.0,0.0,0.0,13.6507,14.2038,14.9046,15.5111,16.0002,16.1764,16.284,16.3267,16.1287,15.7002,15.0385,0.0,0.0,0.0,0.0,0.0,0.0,0.0,0.0,0.0,0.0,0.0,0.0,0.0,0.0,0.0,0.0,0.0,0.0,0.0,0.0,0.0,0.0,0.0,0.0,0.0,10.7916,0.0,0.0,0.0,0.0,0.0,0.0,0.0,0.0,0.0,0.0,0.0,12.8786,13.4924,13.9162,14.3487,14.8355,15.0025,15.1922,0.0,0.0,0.0,0.0,0.0,0.0,0.0,0.0,0.0,0.0,0.0,0.0,0.0,0.0,13.3178,12.7563,12.65,12.65,12.6576,0.0,0.0,0.0,0.0,0.0,0.0,0.0,0.0,0.0,0.0,0.0,0.0,0.0,0.0,0.0,8.652,0.0,0.0,8.8577,0.0,0.0,0.0,0.0,0.0,0.0,0.0,0.0,0.0,0.0,0.0,0.0,0.0,0.0,0.0,0.0,0.0,0.0,0.0,0.0,0.0,0.0,13.5154,13.8579,14.6713,15.3304,15.8225,15.996,16.006,15.8656,15.828,15.5122,14.858,0.0,0.0,0.0,0.0,0.0,0.0,0.0,0.0,0.0,0.0,0.0,0.0,0.0,0.0,0.0,0.0,0.0,0.0,0.0,0.0,0.0,0.0,0.0,0.0,0.0,0.0,9.8271,10.3507,10.806,0.0,0.0,0.0,0.0,0.0,0.0,0.0,0.0,0.0,13.1043,13.6582,14.0376,14.236,14.5244,14.7217,14.7445,14.6079,14.5472,14.7141,14.7369,14.6155,0.0,0.0,0.0,0.0,0.0,0.0,0.0,0.0,0.0,0.0,0.0,0.0,0.0,0.0,0.0,0.0,0.0,0.0,0.0,0.0,0.0,0.0,0.0,0.0,0.0,0.0,0.0,0.0,0.0,0.0,0.0,0.0,0.0,0.0,0.0,0.0,0.0,0.0,0.0,0.0,0.0,0.0,0.0,0.0,0.0,0.0,0.0,0.0,0.0,0.0,0.0,0.0,0.0,0.0,13.1245,13.6775,14.3887,15.043,15.6523,15.7103,15.7705,15.828,15.3919,14.9482,0.0,0.0,0.0,0.0,0.0,0.0,0.0,0.0,0.0,0.0,0.0,0.0,0.0,0.0,0.0,0.0,0.0,0.0,0.0,0.0,0.0,0.0,0.0,0.0,0.0,0.0,0.0,0.0,10.1997,10.4653,10.6315,0.0,0.0,0.0,0.0,0.0,0.0,0.0,0.0,0.0,0.0,13.5216,14.1526,14.2284,14.2967,14.5244,14.5168,14.4561,14.403,14.4864,14.403,13.9628,0.0,0.0,0.0,0.0,0.0,0.0,0.0,0.0,0.0,0.0,0.0,0.0,0.0,0.0,0.0,0.0,0.0,0.0,0.0,0.0,0.0,0.0,0.0,0.0,0.0,0.0,0.0,0.0,0.0,0.0,0.0,0.0,0.0,0.0,0.0,0.0,0.0,0.0,0.0,0.0,0.0,0.0,0.0,0.0,0.0,0.0,0.0,0.0,0.0,0.0,0.0,0.0,0.0,12.8314,13.4143,14.2006,14.8926,15.4642,15.4999,15.5525,15.655,15.0685,14.5377,0.0,0.0,0.0,0.0,0.0,0.0,0.0,0.0,0.0,0.0,0.0,0.0,0.0,0.0,0.0,0.0,0.0,0.0,0.0,0.0,0.0,0.0,0.0,0.0,0.0,0.0,0.0,0.0,9.8347,10.1155,10.2824,0.0,0.0,0.0,0.0,0.0,0.0,0.0,0.0,0.0,0.0,12.997,13.5698,13.7405,0.0,0.0,14.145,14.0843,14.0615,14.1374,14.0084,13.4534,13.3254,0.0,0.0,0.0,0.0,0.0,0.0,0.0,0.0,0.0,0.0,0.0,0.0,0.0,0.0,0.0,0.0,0.0,0.0,0.0,0.0,0.0,0.0,0.0,0.0,0.0,0.0,0.0,0.0,0.0,0.0,0.0,0.0,0.0,0.0,0.0,0.0,0.0,0.0,0.0,0.0,0.0,0.0,0.0,0.0,0.0,0.0,0.0,0.0,0.0,0.0,0.0,0.0,0.0,13.1361,14.0953,14.8324,15.2958,15.342,15.3447,15.3167,14.8309,14.2596,0.0,0.0,0.0,0.0,0.0,0.0,0.0,0.0,0.0,0.0,0.0,0.0,0.0,0.0,0.0,0.0,0.0,0.0,0.0,0.0,0.0,0.0,0.0,0.0,0.0,0.0,0.0,0.0,0.0,0.0,0.0,0.0,0.0,0.0,0.0,0.0,0.0,0.0,0.0,0.0,0.0,12.4776,12.6569,13.1134,13.4913,0.0,13.552,13.4989,13.6365,13.6745,13.462,12.8084,0.0,0.0,0.0,0.0,0.0,0.0,0.0,0.0,0.0,0.0,0.0,0.0,0.0,0.0,0.0,0.0,0.0,0.0,0.0,0.0,0.0,0.0,0.0,0.0,0.0,0.0,0.0,0.0,0.0,0.0,0.0,0.0,0.0,0.0,0.0,0.0,0.0,0.0,0.0,0.0,0.0,0.0,0.0,0.0,0.0,0.0,0.0,0.0,0.0,0.0,0.0,0.0,0.0,0.0,13.1286,14.0953,14.7196,14.9723,15.2217,15.232,14.9783,14.5121,0.0,0.0,0.0,0.0,0.0,0.0,0.0,0.0,0.0,0.0,0.0,0.0,0.0,0.0,0.0,0.0,0.0,0.0,0.0,0.0,0.0,0.0,0.0,0.0,0.0,0.0,0.0,8.188,0.0,0.0,0.0,0.0,0.0,0.0,0.0,0.0,0.0,0.0,0.0,0.0,0.0,0.0,12.0474,12.4852,12.7465,12.9589,0.0,0.0,13.0195,12.8387,13.0143,12.946,0.0,0.0,0.0,0.0,0.0,0.0,0.0,0.0,0.0,0.0,0.0,0.0,0.0,0.0,0.0,0.0,0.0,0.0,0.0,0.0,0.0,0.0,0.0,0.0,0.0,0.0,0.0,0.0,0.0,0.0,0.0,0.0,0.0,0.0,0.0,0.0,0.0,0.0,0.0,0.0,0.0,0.0,0.0,0.0,0.0,0.0,0.0,0.0,0.0,0.0,0.0,0.0,0.0,0.0,12.3389,12.918,13.8847,14.5359,14.84,14.9737,14.9887,14.873,14.2715,13.6637,0.0,0.0,0.0,0.0,0.0,0.0,0.0,0.0,0.0,0.0,0.0,0.0,0.0,0.0,0.0,0.0,0.0,0.0,0.0,0.0,0.0,0.0,0.0,0.0,0.0,0.0,0.0,0.0,0.0,0.0,0.0,0.0,0.0,0.0,0.0,0.0,0.0,0.0,0.0,0.0,0.0,0.0,11.9546,12.1573,0.0,0.0,0.0,12.5718,12.3991,0.0,0.0,0.0,0.0,0.0,0.0,0.0,0.0,0.0,0.0,0.0,0.0,0.0,0.0,0.0,0.0,0.0,0.0,0.0,0.0,0.0,0.0,0.0,0.0,0.0,0.0,0.0,0.0,0.0,0.0,0.0,0.0,0.0,0.0,0.0,0.0,0.0,0.0,0.0,0.0,0.0,0.0,0.0,0.0,0.0,0.0,0.0,0.0,0.0,0.0,0.0,0.0,0.0,0.0,0.0,0.0,0.0,12.6473,13.6105,14.3253,14.7452,14.7076,14.7076,14.7948,14.077,13.4261,0.0,0.0,0.0,0.0,0.0,0.0,0.0,0.0,0.0,0.0,0.0,0.0,0.0,0.0,0.0,0.0,0.0,0.0,0.0,0.0,0.0,0.0,0.0,0.0,0.0,0.0,0.0,0.0,0.0,0.0,0.0,0.0,0.0,0.0,0.0,0.0,0.0,0.0,0.0,0.0,0.0,10.9529,11.3017,11.5162,11.6856,0.0,0.0,12.0797,12.0682,11.9015,0.0,0.0,0.0,0.0,0.0,0.0,0.0,0.0,0.0,0.0,0.0,0.0,0.0,0.0,0.0,0.0,0.0,0.0,0.0,0.0,0.0,0.0,0.0,0.0,0.0,0.0,0.0,0.0,0.0,0.0,0.0,0.0,0.0,0.0,0.0,0.0,0.0,0.0,0.0,0.0,0.0,0.0,0.0,0.0,0.0,0.0,0.0,0.0,0.0,0.0,0.0,0.0,0.0,0.0,0.0,0.0,12.6549,13.6185,14.179,14.3152,14.6354,14.6475,14.3253,13.9024,13.3238,0.0,0.0,0.0,0.0,0.0,0.0,0.0,0.0,0.0,0.0,0.0,0.0,0.0,0.0,0.0,0.0,0.0,0.0,0.0,0.0,0.0,0.0,0.0,0.0,0.0,0.0,0.0,0.0,0.0,0.0,0.0,0.0,0.0,0.0,0.0,0.0,0.0,0.0,0.0,0.0,0.0,10.524,11.1133,11.2231,0.0,0.0,0.0,0.0,11.2239,10.9382,0.0,0.0,0.0,0.0,0.0,0.0,0.0,0.0,0.0,0.0,0.0,0.0,0.0,0.0,0.0,0.0,0.0,0.0,0.0,0.0,0.0,0.0,0.0,0.0,0.0,0.0,0.0,0.0,0.0,0.0,0.0,0.0,0.0,0.0,0.0,0.0,0.0,0.0,0.0,0.0,0.0,0.0,0.0,0.0,0.0,0.0,0.0,0.0,0.0,0.0,0.0,0.0,0.0,0.0,0.0,0.0,12.5233,13.3341,13.8815,14.1393,14.3197,14.303,14.0619,13.683,13.1316,0.0,0.0,0.0,0.0,0.0,0.0,0.0,0.0,0.0,0.0,0.0,0.0,0.0,0.0,0.0,0.0,0.0,0.0,0.0,0.0,0.0,0.0,0.0,0.0,0.0,0.0,0.0,0.0,0.0,0.0,0.0,0.0,0.0,0.0,0.0,0.0,0.0,0.0,0.0,0.0,9.94,10.079,10.574,0.0,0.0,0.0,0.0,0.0,0.0,10.4489,10.2023,0.0,0.0,0.0,0.0,0.0,0.0,0.0,0.0,0.0,0.0,0.0,0.0,0.0,0.0,0.0,0.0,0.0,0.0,0.0,0.0,0.0,0.0,0.0,0.0,0.0,0.0,0.0,0.0,0.0,0.0,0.0,0.0,0.0,0.0,0.0,0.0,0.0,0.0,0.0,0.0,0.0,0.0,0.0,0.0,0.0,0.0,0.0,0.0,0.0,0.0,0.0,0.0,0.0,0.0,0.0,12.3052,12.9623,13.5414,14.0309,14.004,13.9522,13.9,13.4814,12.9083,12.187,0.0,0.0,0.0,0.0,0.0,0.0,0.0,0.0,0.0,0.0,0.0,0.0,0.0,0.0,0.0,0.0,0.0,0.0,0.0,0.0,0.0,0.0,0.0,0.0,0.0,0.0,0.0,0.0,0.0,0.0,0.0,0.0,0.0,0.0,0.0,0.0,0.0,0.0,0.0,9.5974,9.6697,0.0,0.0,0.0,0.0,0.0,0.0,0.0,0.0,9.8152,0.0,0.0,0.0,0.0,0.0,0.0,0.0,0.0,0.0,0.0,0.0,0.0,0.0,0.0,0.0,0.0,0.0,0.0,0.0,0.0,0.0,0.0,0.0,0.0,0.0,0.0,0.0,0.0,0.0,0.0,0.0,0.0,0.0,0.0,0.0,0.0,0.0,0.0,0.0,0.0,0.0,0.0,0.0,0.0,0.0,0.0,0.0,0.0,0.0,0.0,0.0,0.0,0.0,0.0,0.0,0.0,12.6662,13.2529,13.7827,14.0142,14.0192,13.7776,13.4165,12.7792,11.8529,0.0,0.0,0.0,0.0,0.0,0.0,0.0,0.0,0.0,0.0,0.0,0.0,0.0,0.0,0.0,0.0,0.0,0.0,0.0,0.0,0.0,0.0,0.0,0.0,0.0,0.0,0.0,0.0,0.0,0.0,0.0,0.0,0.0,0.0,0.0,0.0,0.0,0.0,8.7307,9.0296,0.0,0.0,0.0,0.0,0.0,0.0,0.0,0.0,9.5695,0.0,0.0,0.0,0.0,0.0,0.0,0.0,0.0,0.0,0.0,0.0,0.0,0.0,0.0,0.0,0.0,0.0,0.0,0.0,0.0,0.0,0.0,0.0,0.0,0.0,0.0,0.0,0.0,0.0,0.0,0.0,0.0,0.0,0.0,0.0,0.0,0.0,0.0,0.0,0.0,0.0,0.0,0.0,0.0,0.0,0.0,0.0,0.0,0.0,0.0,0.0,0.0,0.0,0.0,0.0,0.0,0.0,0.0,13.0356,13.5606,13.7217,13.7367,13.5841,13.0146,12.3616,0.0,0.0,0.0,0.0,0.0,0.0,0.0,0.0,0.0,0.0,0.0,0.0,0.0,0.0,0.0,0.0,0.0,0.0,0.0,0.0,0.0,0.0,0.0,0.0,0.0,0.0,0.0,0.0,0.0,0.0,0.0,0.0,0.0,0.0,0.0,0.0,0.0,0.0,0.0,0.0,0.0,0.0,0.0,0.0,0.0,0.0,0.0,0.0,0.0,0.0,0.0,0.0,0.0,0.0,0.0,0.0,0.0,0.0,0.0,0.0,0.0,0.0,0.0,0.0,0.0,0.0,0.0,0.0,0.0,0.0,0.0,0.0,0.0,0.0,0.0,0.0,0.0,0.0,0.0,0.0,0.0,0.0,0.0,0.0,0.0,0.0,0.0,0.0,0.0,0.0,0.0,0.0,0.0,0.0,0.0,0.0,0.0,0.0,0.0,0.0,0.0,0.0,0.0,0.0,0.0,0.0,0.0,0.0,12.796,13.3715,13.4474,13.4778,13.4702,12.5742,11.8756,0.0,0.0,0.0,0.0,0.0,0.0,0.0,0.0,0.0,0.0,0.0,0.0,0.0,0.0,0.0,0.0,0.0,0.0,0.0,0.0,0.0,0.0,0.0,0.0,0.0,0.0,0.0,0.0,0.0,0.0,0.0,0.0,0.0,0.0,0.0,0.0,0.0,0.0,0.0,0.0,0.0,0.0,0.0,0.0,0.0,0.0,0.0,0.0,8.9923,0.0,0.0,0.0,0.0,0.0,0.0,0.0,0.0,0.0,0.0,0.0,0.0,0.0,0.0,0.0,0.0,0.0,0.0,0.0,0.0,0.0,0.0,0.0,0.0,0.0,0.0,0.0,0.0,0.0,0.0,0.0,0.0,0.0,0.0,0.0,0.0,0.0,0.0,0.0,0.0,0.0,0.0,0.0,0.0,0.0,0.0,0.0,0.0,0.0,0.0,0.0,0.0,0.0,0.0,0.0,0.0,0.0,0.0,0.0,12.4603,13.25,13.4171,13.4854,13.455,12.2477,11.4201,0.0,0.0,0.0,0.0,0.0,0.0,0.0,0.0,0.0,0.0,0.0,0.0,0.0,0.0,0.0,0.0,0.0,0.0,0.0,0.0,0.0,0.0,0.0,0.0,0.0,0.0,0.0,0.0,0.0,0.0,0.0,0.0,0.0,0.0,0.0,0.0,0.0,0.0,0.0,0.0,0.0,0.0,0.0,0.0,0.0,0.0,0.0,0.0,0.0,0.0,0.0,0.0,0.0,0.0,0.0,0.0,0.0,0.0,0.0,0.0,0.0,0.0,0.0,0.0,0.0,0.0,0.0,0.0,0.0,0.0,0.0,0.0,0.0,0.0,0.0,0.0,0.0,0.0,0.0,0.0,0.0,0.0,0.0,0.0,0.0,0.0,0.0,0.0,0.0,0.0,0.0,0.0,0.0,0.0,0.0,0.0,0.0,0.0,0.0,0.0,0.0,0.0,0.0,0.0,0.0,0.0,0.0,0.0,11.9592,12.5135,12.7792,12.7716,12.4831,11.6554,11.1011,0.0,0.0,0.0,0.0,0.0,0.0,0.0,0.0,0.0,0.0,0.0,0.0,0.0,0.0,0.0,0.0,0.0,0.0,0.0,0.0,0.0,0.0,0.0,0.0,0.0,0.0,0.0,0.0,0.0,0.0,0.0,0.0,0.0,0.0,0.0,0.0,0.0,0.0,0.0,0.0,0.0,0.0,0.0,0.0,0.0,0.0,0.0,0.0,0.0,0.0,0.0,0.0,0.0,0.0,0.0,0.0,0.0,0.0,0.0,0.0,0.0,0.0,0.0,0.0,0.0,0.0,0.0,0.0,0.0,0.0,0.0,0.0,0.0,0.0,0.0,0.0,0.0,0.0,0.0,0.0,0.0,0.0,0.0,0.0,0.0,0.0,0.0,0.0,0.0,0.0,0.0,0.0,0.0,0.0,0.0,0.0,0.0,0.0,0.0,0.0,0.0,0.0,0.0,0.0,0.0,0.0,0.0,0.0,0.0,11.8529,11.982,11.8605,11.4884,11.086,10.7671,0.0,0.0,0.0,0.0,0.0,0.0,0.0,0.0,0.0,0.0,0.0,0.0,0.0,0.0,0.0,0.0,0.0,0.0,0.0,0.0,0.0,0.0,0.0,0.0,0.0,0.0,0.0,0.0,0.0,0.0,0.0,0.0,0.0,0.0,0.0,0.0,0.0,0.0,0.0,0.0,0.0,0.0,0.0,0.0,0.0,0.0,0.0,0.0,0.0,0.0,0.0,0.0,0.0,0.0,0.0,0.0,0.0,0.0,0.0,0.0,0.0,0.0,0.0,0.0,0.0,0.0,0.0,0.0,0.0,0.0,0.0,0.0,0.0,0.0,0.0,0.0,0.0,0.0,0.0,0.0,0.0,0.0,0.0,0.0,0.0,0.0,0.0,0.0,0.0,0.0,0.0,0.0,0.0,0.0,0.0,0.0,0.0,0.0,0.0,0.0,0.0,0.0,0.0,0.0,0.0,0.0,0.0,0.0,0.0,11.5264,11.086,10.843,10.805,10.6228,10.3722,0.0,0.0,0.0,0.0,0.0,0.0,0.0,0.0,0.0,0.0,0.0,0.0,0.0,0.0,0.0,0.0,0.0,0.0,0.0,0.0,0.0,0.0,0.0,0.0,0.0,0.0,0.0,0.0,0.0,0.0,0.0,0.0,0.0,0.0,0.0,0.0,0.0,0.0,0.0,0.0,0.0,0.0,0.0,0.0,0.0,0.0,0.0,0.0,0.0,0.0,0.0,0.0,0.0,0.0,0.0,0.0,0.0,0.0,0.0,0.0,0.0,0.0,0.0,0.0,0.0,0.0,0.0,0.0,0.0,0.0,0.0,0.0,0.0,0.0,0.0,0.0,0.0,0.0,0.0,0.0,0.0,0.0,0.0,0.0,0.0,0.0,0.0,0.0,0.0,0.0,0.0,0.0,0.0,0.0,0.0,0.0,0.0,0.0,0.0,0.0,0.0,0.0,0.0,0.0,0.0,0.0,0.0,0.0,0.0,10.4102,10.4254,10.3798,10.2735,10.2128,10.0685,9.8407,0.0,0.0,0.0,0.0,0.0,0.0,0.0,0.0,0.0,0.0,0.0,0.0,0.0,0.0,0.0,0.0,0.0,0.0,0.0,0.0,0.0,0.0,0.0,0.0,0.0,0.0,0.0,0.0,0.0,0.0,0.0,0.0,0.0,0.0,0.0,0.0,0.0,0.0,0.0,0.0,0.0,0.0,0.0,0.0,0.0,0.0,0.0,0.0,0.0,0.0,0.0,0.0,0.0,0.0,0.0,0.0,0.0,0.0,0.0,0.0,0.0,0.0,0.0,0.0,0.0,0.0,0.0,0.0,0.0,0.0,0.0,0.0,0.0,0.0,0.0,0.0,0.0,0.0,0.0,0.0,0.0,0.0,0.0,0.0,0.0,0.0,0.0,0.0,0.0,0.0,0.0,0.0,0.0,0.0,0.0,0.0,0.0,0.0,0.0,0.0,0.0,0.0,0.0,0.0,0.0,0.0,0.0,0.0,9.6812,9.947,10.0381,9.9242,9.9166,9.8179,0.0,0.0,0.0,0.0,0.0,0.0,0.0,0.0,0.0,0.0,0.0,0.0,0.0,0.0,0.0,0.0,0.0,0.0,0.0,0.0,0.0,0.0,0.0,0.0,0.0,0.0,0.0,0.0,0.0,0.0,0.0,0.0,0.0,0.0,0.0,0.0,0.0,0.0,0.0,0.0,0.0,0.0,0.0,0.0,0.0,0.0,0.0,0.0,0.0,0.0,0.0,0.0,0.0,0.0,0.0,0.0,0.0,0.0,0.0,0.0,0.0,0.0,0.0,0.0,0.0,0.0,0.0,0.0,0.0,0.0,0.0,0.0,0.0,0.0,0.0,0.0,0.0,0.0,0.0,0.0,0.0,0.0,0.0,0.0,0.0,0.0,0.0,0.0,0.0,0.0,0.0,0.0,0.0,0.0,0.0,0.0,0.0,0.0,0.0,0.0,0.0,0.0,0.0,0.0,0.0,0.0,0.0,0.0,8.6865,9.4686,9.6736,9.7648,9.7572,9.7496,9.5977,0.0,0.0,0.0,0.0,0.0,0.0,0.0,0.0,0.0,0.0,0.0,0.0,0.0,0.0,0.0,0.0,0.0,0.0,0.0,0.0,0.0,0.0,0.0,0.0,0.0,0.0,0.0,0.0,0.0,0.0,0.0,0.0,0.0,0.0,0.0,0.0,0.0,0.0,0.0,0.0,0.0,0.0,0.0,0.0,0.0,0.0,0.0,0.0,0.0,0.0,0.0,0.0,0.0,0.0,0.0,0.0,0.0,0.0,0.0,0.0,0.0,0.0,0.0,0.0,0.0,0.0,0.0,0.0,0.0,0.0,0.0,0.0,0.0,0.0,0.0,0.0,0.0,0.0,0.0,0.0,0.0,0.0,0.0,0.0,0.0,0.0,0.0,0.0,0.0,0.0,0.0,0.0,0.0,0.0,0.0,0.0,0.0,0.0,0.0,0.0,0.0,0.0,0.0,0.0,0.0,0.0,0.0,0.0,0.0,9.1421,0.0,9.5825,0.0,9.4762,9.256,0.0,0.0,0.0,0.0,0.0,0.0,0.0,0.0,0.0,0.0,0.0,0.0,0.0,0.0,0.0,0.0,0.0,0.0,0.0,0.0,0.0,0.0,0.0,0.0,0.0,0.0,0.0,0.0,0.0,0.0,0.0,0.0,0.0,0.0,0.0,0.0,0.0,0.0,0.0,0.0,0.0,0.0,0.0,0.0,0.0,0.0,0.0,0.0,0.0,0.0,0.0,0.0,0.0,0.0,0.0,0.0,0.0,0.0,0.0,0.0,0.0,0.0,0.0,0.0,0.0,0.0,0.0,0.0,0.0,0.0,0.0,0.0,0.0,0.0,0.0,0.0,0.0,0.0,0.0,0.0,0.0,0.0,0.0,0.0,0.0,0.0,0.0,0.0,0.0,0.0,0.0,0.0,0.0,0.0,0.0,0.0,0.0,0.0,0.0,0.0,0.0,0.0,0.0,0.0,0.0,0.0,0.0,0.0,0.0,8.7169,9.0586,9.2636,9.3168,9.1573,8.9675,0.0,0.0,0.0,0.0,0.0,0.0,0.0,0.0,0.0,0.0,0.0,0.0,0.0,0.0,0.0,0.0,0.0,0.0,0.0,0.0,0.0,0.0,0.0,0.0,0.0,0.0,0.0,0.0,0.0,0.0,0.0,0.0,0.0,0.0,0.0,0.0,0.0,0.0,0.0,0.0,0.0,0.0,0.0,0.0,0.0,0.0,0.0,0.0,0.0,0.0,0.0,0.0,0.0,0.0,0.0,0.0,0.0,0.0,0.0,0.0,0.0,0.0,0.0,0.0,0.0,0.0,0.0,0.0,0.0,0.0,0.0,0.0,0.0,0.0,0.0,0.0,0.0,0.0,0.0,0.0,0.0,0.0,0.0,0.0,0.0,0.0,0.0,0.0,0.0,0.0,0.0,0.0,0.0,0.0,0.0,0.0,0.0,0.0,0.0,0.0,0.0,0.0,0.0,0.0,0.0,0.0,0.0,0.0,0.0,0.0,8.5499,8.8004,8.9675,8.8156,8.7169,0.0,0.0,0.0,0.0,0.0,0.0,0.0,0.0,0.0,0.0,0.0,0.0,0.0,0.0,0.0,0.0,0.0,0.0,0.0,0.0,0.0,0.0,0.0,0.0,0.0,0.0,0.0,0.0,0.0,0.0,0.0,0.0,0.0,0.0,0.0,0.0,0.0,0.0,0.0,0.0,0.0,0.0,0.0,0.0,0.0,0.0,0.0,0.0,0.0,0.0,0.0,0.0,0.0,0.0,0.0,0.0,0.0,0.0,0.0,0.0,0.0,0.0,0.0,0.0,0.0,0.0,0.0,0.0,0.0,0.0,0.0,0.0,0.0,0.0,0.0,0.0,0.0,0.0,0.0,0.0,0.0,0.0,0.0,0.0,0.0,0.0,0.0,0.0,0.0,0.0,0.0,0.0,0.0,0.0,0.0,0.0,0.0,0.0,0.0,0.0,0.0,0.0,0.0,0.0,0.0,0.0,0.0,0.0,0.0,0.0,8.1626,0.0,8.6106,8.4739,8.2689,8.0411,0.0,0.0,0.0,0.0,0.0,0.0,0.0,0.0,0.0,0.0,0.0,0.0,0.0,0.0,0.0,0.0,0.0,0.0,0.0,0.0,0.0,0.0,0.0,0.0,0.0,0.0,0.0,0.0,0.0,0.0,0.0,0.0,0.0,0.0,0.0,0.0,0.0,0.0,0.0,0.0,0.0,0.0,0.0,0.0,0.0,0.0,0.0,0.0,0.0,0.0,0.0,0.0,0.0,0.0,0.0,0.0,0.0,0.0,0.0,0.0,0.0,0.0,0.0,0.0,0.0,0.0,0.0,0.0,0.0,0.0,0.0,0.0,0.0,0.0,0.0,0.0,0.0,0.0,0.0,0.0,0.0,0.0,0.0,0.0,0.0,0.0,0.0,0.0,0.0,0.0,0.0,0.0,0.0,0.0,0.0,0.0,0.0,0.0,0.0,0.0,0.0,0.0,0.0,0.0,0.0,0.0,0.0,0.0,0.0,0.0,0.0,8.193,8.2234,8.1246,0.0,0.0,0.0,0.0,0.0,0.0,0.0,0.0,0.0,0.0,0.0,0.0,0.0,0.0,0.0,0.0,0.0,0.0,0.0,0.0,0.0,0.0,0.0,0.0,0.0,0.0,0.0,0.0,0.0,0.0,0.0,0.0,0.0,0.0,0.0,0.0,0.0,0.0,0.0,0.0,0.0,0.0,0.0,0.0,0.0,0.0,0.0,0.0,0.0,0.0,0.0,0.0,0.0,0.0,0.0,0.0,0.0,0.0,0.0,0.0,0.0,0.0,0.0,0.0,0.0,0.0,0.0,0.0,0.0,0.0,0.0,0.0,0.0,0.0,0.0,0.0,0.0,0.0,0.0,0.0,0.0,0.0,0.0,0.0,0.0,0.0,0.0,0.0,0.0,0.0,0.0,0.0,0.0,0.0,0.0,0.0,0.0,0.0,0.0,0.0,0.0,0.0,0.0,0.0,0.0,0.0,0.0,0.0,0.0,0.0,0.0,7.9196,7.7905,8.0715,0.0,7.9576,0.0,0.0,0.0,0.0,0.0,0.0,0.0,0.0,0.0,0.0,0.0,0.0,0.0,0.0,0.0,0.0,0.0,0.0,0.0,0.0,0.0,0.0,0.0,0.0,0.0,0.0,0.0,0.0,0.0,0.0,0.0,0.0,0.0,0.0,0.0,0.0,0.0,0.0,0.0,0.0,0.0,0.0,0.0,0.0,0.0,0.0,0.0,0.0,0.0,0.0,0.0,0.0,0.0,0.0,0.0,0.0,0.0,0.0,0.0,0.0,0.0,0.0,0.0,0.0,0.0,0.0,0.0,0.0,0.0,0.0,0.0,0.0,0.0,0.0,0.0,0.0,0.0,0.0,0.0,0.0,0.0,0.0,0.0,0.0,0.0,0.0,0.0,0.0,0.0,0.0,0.0,0.0,0.0,0.0,0.0,0.0,0.0,0.0,0.0,0.0,0.0,0.0,0.0,0.0,0.0,0.0,0.0,0.0,0.0,0.0,0.0,0.0,8.0183,7.9196,7.6235,0.0,0.0,0.0,0.0,0.0,0.0,0.0,0.0,0.0,0.0,0.0,0.0,0.0,0.0,0.0,0.0,0.0,0.0,0.0,0.0,0.0,0.0,0.0,0.0,0.0,0.0,0.0,0.0,0.0,0.0,0.0,0.0,0.0,0.0,0.0,0.0,0.0,0.0,0.0,0.0,0.0,0.0,0.0,0.0,0.0,0.0,0.0,0.0,0.0,0.0,0.0,0.0,0.0,0.0,0.0,0.0,0.0,0.0,0.0,0.0,0.0,0.0,0.0,0.0,0.0,0.0,0.0,0.0,0.0,0.0,0.0,0.0,0.0,0.0,0.0,0.0,0.0,0.0,0.0,0.0,0.0,0.0,0.0,0.0,0.0,0.0,0.0,0.0,0.0,0.0,0.0,0.0,0.0,0.0,0.0,0.0,0.0,0.0,0.0,0.0,0.0,0.0,0.0,0.0,0.0,0.0,0.0,0.0,0.0,0.0,7.8057,7.6691,7.8133,7.7374,7.4033,0.0,0.0,0.0,0.0,0.0,0.0,0.0,0.0,0.0,0.0,0.0,0.0,0.0,0.0,0.0,0.0,0.0,0.0,0.0,0.0,0.0,0.0,0.0,0.0,0.0,0.0,0.0,0.0,0.0,0.0,0.0,0.0,0.0,0.0,0.0,0.0,0.0,0.0,0.0,0.0,0.0,0.0,0.0,0.0,0.0,0.0,0.0,0.0,0.0,0.0,0.0,0.0,0.0,0.0,0.0,0.0,0.0,0.0,0.0,0.0,0.0,0.0,0.0,0.0,0.0,0.0,0.0,0.0,0.0,0.0,0.0,0.0,0.0,0.0,0.0,0.0,0.0,0.0,0.0,0.0,0.0,0.0,0.0,0.0,0.0,0.0,0.0,0.0,0.0,0.0,0.0,0.0,0.0,0.0,0.0,0.0,0.0,0.0,0.0,0.0,0.0,0.0,0.0,0.0,0.0,0.0,0.0,0.0,0.0,0.0,0.0,0.0,0.0,0.0,7.2666,0.0,0.0,0.0,0.0,0.0,0.0,0.0,0.0,0.0,0.0,0.0,0.0,0.0,0.0,0.0,0.0,0.0,0.0,0.0,0.0,0.0,0.0,0.0,0.0,0.0,0.0,0.0,0.0,0.0,0.0,0.0,0.0,0.0,0.0,0.0,0.0,0.0,0.0,0.0,0.0,0.0,0.0,0.0,0.0,0.0,0.0,0.0,0.0,0.0,0.0,0.0,0.0,0.0,0.0,0.0,0.0,0.0,0.0,0.0,0.0,0.0,0.0,0.0,0.0,0.0,0.0,0.0,0.0,0.0,0.0,0.0,0.0,0.0,0.0,0.0,0.0,0.0,0.0,0.0,0.0,0.0,0.0,0.0,0.0,0.0,0.0,0.0,0.0,0.0,0.0,0.0,0.0,0.0,0.0,0.0,0.0,0.0,0.0,0.0,0.0,0.0,0.0,0.0,0.0,0.0,0.0,0.0,0.0,0.0,0.0,0.0,0.0,0.0,0.0,0.0,0.0,0.0,0.0,0.0,0.0,0.0,0.0,0.0,0.0,0.0,0.0,0.0,0.0,0.0,0.0,0.0,0.0,0.0,0.0,0.0,0.0,0.0,0.0,0.0,0.0,0.0,0.0,0.0,0.0,0.0,0.0,0.0,0.0,0.0,0.0,0.0,0.0,0.0,0.0,0.0,0.0,0.0,0.0,0.0,0.0,0.0,0.0,0.0,0.0,0.0,0.0,0.0,0.0,0.0,0.0,0.0,0.0,0.0,0.0,0.0,0.0,0.0,0.0,0.0,0.0,0.0,0.0,0.0,0.0,0.0,0.0,0.0,0.0,0.0,0.0,0.0,0.0,0.0,0.0,0.0,0.0,0.0,0.0,0.0,0.0,0.0,0.0,0.0,0.0,0.0,0.0,0.0,0.0,0.0,0.0,0.0,0.0,0.0,0.0,0.0,0.0,0.0,0.0,0.0,0.0,0.0,0.0,0.0,0.0,0.0,0.0,0.0,0.0,0.0,0.0,0.0,0.0,0.0,0.0,0.0,0.0,0.0,0.0,0.0,0.0,0.0,0.0,0.0,0.0,0.0,0.0,0.0,0.0,0.0,0.0,0.0,0.0,0.0,0.0,0.0,0.0,0.0,0.0,0.0,0.0,0.0,0.0,0.0,0.0,0.0,0.0,0.0,0.0,0.0,0.0,0.0,0.0,0.0,0.0,0.0,0.0,0.0,0.0,0.0,0.0,0.0,0.0,0.0,0.0,0.0,0.0,0.0,0.0,0.0,0.0,0.0,0.0,0.0,0.0,0.0,0.0,0.0,0.0,0.0,0.0,0.0,0.0,0.0,0.0,0.0,0.0,0.0,0.0,0.0,0.0,0.0,0.0,0.0,0.0,0.0,0.0,0.0,0.0,0.0,0.0,0.0,0.0,0.0,0.0,0.0,0.0,0.0,0.0,0.0,0.0,0.0,0.0,0.0,0.0,0.0,0.0,0.0,0.0,0.0,0.0,0.0,0.0,0.0,0.0,0.0,0.0,0.0,0.0,0.0,0.0,0.0,0.0,0.0,0.0,0.0,0.0,0.0,0.0,0.0,0.0,0.0,0.0,0.0,0.0,0.0,0.0,0.0,0.0,0.0,0.0,0.0,0.0,0.0,0.0,0.0,0.0,0.0,0.0,0.0,0.0,0.0,0.0,0.0,0.0,0.0,0.0,0.0,0.0,0.0,0.0,0.0,0.0,0.0,0.0,0.0,0.0,0.0,0.0,0.0,0.0,0.0,0.0,0.0,0.0,0.0,0.0,0.0,0.0,0.0,0.0,0.0,0.0,0.0,0.0,0.0,0.0,0.0,0.0,0.0,0.0,0.0,0.0,0.0,0.0,0.0,0.0,0.0,0.0,0.0,0.0,0.0,0.0,0.0,0.0,0.0,0.0,0.0,0.0,0.0,0.0,0.0,0.0,0.0,0.0,0.0,0.0,0.0,0.0,0.0,0.0,0.0,0.0,0.0,0.0,0.0,0.0,0.0,0.0,0.0,0.0,0.0,0.0,0.0,0.0,0.0,0.0,0.0,0.0,0.0,0.0,0.0,0.0,0.0,0.0,0.0,0.0,0.0,0.0,0.0,0.0,0.0,0.0,0.0,0.0,0.0,0.0,0.0,0.0,0.0,0.0,0.0,0.0,0.0,0.0,0.0,0.0,0.0,0.0,0.0,0.0,0.0,0.0,0.0,0.0,0.0,0.0,0.0,0.0,0.0,0.0,0.0,0.0,0.0,0.0,0.0,0.0,0.0,0.0,0.0,0.0,0.0,0.0,0.0,0.0,0.0,0.0,0.0,0.0,0.0,0.0,0.0,0.0,0.0,0.0,0.0,0.0,0.0,0.0,0.0,0.0,0.0,0.0,0.0,0.0,0.0,0.0,0.0,0.0,0.0,0.0,0.0,0.0,0.0,0.0,0.0,0.0,0.0,0.0,0.0,0.0,0.0,0.0,0.0,0.0,0.0,0.0,0.0,0.0,0.0,0.0,0.0,0.0,0.0,0.0,0.0,0.0,0.0,0.0,0.0,0.0,0.0,0.0,0.0,0.0,0.0,0.0,0.0,0.0,0.0,0.0,0.0,0.0,0.0,0.0,0.0,0.0,0.0,0.0,0.0,0.0,0.0,0.0,0.0,0.0,0.0,0.0,0.0,0.0,0.0,0.0,0.0,0.0,0.0,0.0,0.0,0.0,0.0,0.0,0.0,0.0,0.0,0.0,0.0,0.0,0.0,0.0,0.0,0.0,0.0,0.0,0.0,0.0,0.0,0.0,0.0,0.0,0.0,0.0,0.0,0.0,0.0,0.0,0.0,0.0,0.0,0.0,0.0,0.0,0.0,0.0,0.0,0.0,0.0,0.0,0.0,0.0,0.0,0.0,0.0,0.0,0.0,0.0,0.0,0.0,0.0,0.0,0.0,0.0,0.0,0.0,0.0,0.0,0.0,0.0,0.0,0.0,0.0,0.0,0.0,0.0,0.0,0.0,0.0,0.0,0.0,0.0,0.0,0.0,0.0,0.0,0.0,0.0,0.0,0.0,0.0,0.0,0.0,0.0,0.0,0.0,0.0,0.0,0.0,0.0,0.0,0.0,0.0,0.0,0.0,0.0,0.0,0.0,0.0,0.0,0.0,0.0,0.0,0.0,0.0,0.0,0.0,0.0,0.0,0.0,0.0,0.0,0.0,0.0,0.0,0.0,0.0,0.0,0.0,0.0,0.0,0.0,0.0,0.0,0.0,0.0,0.0,0.0,0.0,0.0,0.0,0.0,0.0,0.0,0.0,0.0,0.0,0.0,0.0,0.0,0.0,0.0,0.0,0.0,0.0,0.0,0.0,0.0,0.0,0.0,0.0,0.0,0.0,0.0,0.0,0.0,0.0,0.0,0.0,0.0,0.0,0.0,0.0,0.0,0.0,0.0,0.0,0.0,0.0,0.0,0.0,0.0,0.0,0.0,0.0,0.0,0.0,0.0,0.0,0.0,0.0,0.0,0.0,0.0,0.0,0.0,0.0,0.0,0.0,0.0,0.0,0.0,0.0,0.0,0.0,0.0,0.0,0.0,0.0,0.0,0.0,0.0,0.0,0.0,0.0,0.0,0.0,0.0,0.0,0.0,0.0,0.0,0.0,0.0,0.0,0.0,0.0,0.0,0.0,0.0,0.0,0.0,0.0,0.0,0.0,0.0,0.0,0.0,0.0,0.0,0.0,0.0,0.0,0.0,0.0,0.0,0.0,0.0,0.0,0.0,0.0,0.0,0.0,0.0,0.0,0.0,0.0,0.0,0.0,0.0,0.0,0.0,0.0,0.0,0.0,0.0,0.0,0.0,0.0,0.0,0.0,0.0,0.0,0.0,0.0,0.0,0.0,0.0,0.0,0.0,0.0,0.0,0.0,0.0,0.0,0.0,0.0,0.0,0.0,0.0,0.0,0.0,0.0,0.0,0.0,0.0,0.0,0.0,0.0,0.0,0.0,0.0,0.0,0.0,0.0,0.0,0.0,0.0,0.0,0.0,0.0,0.0,0.0,0.0,0.0,0.0,0.0,0.0,0.0,0.0,0.0,0.0,0.0,0.0,0.0,0.0,0.0,0.0,0.0,0.0,0.0,0.0,0.0,0.0,0.0,0.0,0.0,0.0,0.0,0.0,0.0,0.0,0.0,0.0,0.0,0.0,0.0,0.0,0.0,0.0,0.0,0.0,0.0,0.0,0.0,0.0,0.0,0.0,0.0,0.0,0.0,0.0,0.0,0.0,0.0,0.0,0.0,0.0,0.0,0.0,0.0,0.0,0.0,0.0,0.0,0.0,0.0,0.0,0.0,0.0,0.0,0.0,0.0,0.0]}],[{"header":{"parameterUnit":"kt","parameterCategory":2,"dx":1,"dy":1,"la1":29.587661999999998,"la2":31.0,"lo1":-88.76705300000003,"lo2":-86.6583820000003,"nx":115,"ny":88,"refTime":"2022-10-14T12:00:00:Z","depth":0,"parameterNumber":2,"parameterNumberName":"V-component_of_WINDS"},"data":[2.7835,2.7835,2.7835,2.7835,2.7835,2.7835,2.7835,2.7835,2.7835,2.7835,2.7835,2.7835,2.7835,2.7835,2.7835,2.7835,2.7835,2.7835,2.7835,2.7835,2.7793,2.7772,2.7645,2.7338,2.7148,2.6895,2.6673,2.662,2.6482,2.6451,2.6451,2.6451,2.6451,2.6451,2.6482,2.6525,2.6599,2.6535,2.6567,2.6599,2.6461,2.6451,2.6451,2.6451,2.6451,2.6451,2.6461,2.6482,2.6651,2.6926,2.7307,2.7613,2.7782,2.7835,2.7835,2.7835,2.7835,2.7835,2.7835,2.7835,2.7571,2.7212,2.7085,2.6926,2.6651,2.6472,2.1069,1.9423,0.0,0.0,0.0,0.0,0.0,0.0,0.0,0.0,0.0,0.0,0.0,0.0,0.0,0.0,0.0,0.0,0.0,0.0,0.0,0.0,0.0,0.0,0.0,0.0,0.0,0.0,0.0,0.0,0.0,0.0,0.0,0.0,0.0,0.0,0.0,0.0,0.0,0.0,0.0,0.0,0.0,0.0,0.0,0.0,0.0,0.0,0.0,2.7835,2.7835,2.7835,2.7835,2.7835,2.7835,2.7835,2.7835,2.7835,2.7835,2.7835,2.7835,2.7835,2.7835,2.7835,2.7835,2.7835,2.7835,2.7835,2.7835,2.7824,2.7719,2.7539,2.7296,2.7064,2.6831,2.662,2.6504,2.6451,2.6451,2.6451,2.6451,2.6451,2.6451,2.6451,2.6493,2.6514,2.6482,2.6525,2.6504,2.6461,2.6451,2.6451,2.6451,2.6451,2.6451,2.6514,2.663,2.6863,2.7148,2.7455,2.7698,2.7814,2.7835,2.7835,2.7835,2.7835,2.7835,2.7835,2.7824,2.7539,2.7275,2.718,2.6947,2.6588,2.2723,1.5682,0.0,0.0,0.0,0.0,0.0,0.0,0.0,0.0,0.0,0.0,0.0,0.0,0.0,0.0,0.0,0.0,0.0,0.0,0.0,0.0,0.0,0.0,0.0,0.0,0.0,0.0,0.0,0.0,0.0,0.0,0.0,0.0,0.0,0.0,0.0,0.0,0.0,0.0,0.0,0.0,0.0,0.0,0.0,0.0,0.0,0.0,0.0,0.0,2.7835,2.7835,2.7835,2.7835,2.7835,2.7835,2.7835,2.7835,2.7835,2.7835,2.7835,2.7835,2.7835,2.7835,2.7835,2.7835,2.7835,2.7835,2.7824,2.7772,2.7708,2.802,2.737,2.7127,2.6916,2.6778,2.6567,2.6451,2.6451,2.6451,2.6451,2.6451,2.6451,2.6451,2.6461,2.6577,2.6609,2.6461,2.6599,2.6567,2.6451,2.6451,2.6451,2.6451,2.6451,2.6451,2.6525,2.6673,2.6895,2.7169,2.7465,2.7666,2.7814,2.7824,2.7824,2.7824,2.7824,2.7835,2.7835,2.7782,2.7613,2.7307,2.7127,2.6916,2.6567,2.567,1.8194,0.0,0.0,0.0,0.0,0.0,0.0,0.0,0.0,0.0,0.0,0.0,0.0,0.0,0.0,0.0,0.0,0.0,0.0,0.0,0.0,0.0,0.0,0.0,0.0,0.0,0.0,0.0,0.0,0.0,0.0,0.0,0.0,0.0,0.0,0.0,0.0,0.0,0.0,0.0,0.0,0.0,0.0,0.0,0.0,0.0,0.0,0.0,0.0,2.7835,2.7835,2.7835,2.7835,2.7835,2.7835,2.7835,2.7835,2.7835,2.7835,2.7835,2.7835,2.7835,2.7835,2.7835,2.7835,2.7835,2.7835,2.7803,2.7687,2.802,2.7881,2.7233,2.6958,2.6373,2.6258,2.6567,2.6451,2.6451,2.6451,2.6451,2.6451,2.6451,2.6451,2.6461,2.6556,2.6588,2.6461,2.6556,2.6546,2.6461,2.6451,2.6451,2.6451,2.6451,2.6451,2.6546,2.6704,2.6958,2.7148,2.7402,2.7634,2.7814,2.7772,2.7761,2.775,2.7729,2.7719,2.7729,2.775,2.7571,2.7307,2.7074,2.6821,2.6651,2.6599,0.0,0.0,0.0,0.0,0.0,0.0,0.0,0.0,0.0,0.0,0.0,0.0,0.0,0.0,0.0,0.0,0.0,0.0,0.0,0.0,0.0,0.0,0.0,0.0,0.0,0.0,0.0,0.0,0.0,0.0,0.0,0.0,0.0,0.0,0.0,0.0,0.0,0.0,0.0,0.0,0.0,0.0,0.0,0.0,0.0,0.0,0.0,0.0,0.0,2.7835,2.7835,2.7835,2.7835,2.7835,2.7835,2.7835,2.7835,2.7835,2.7835,2.7835,2.7835,2.7835,2.7835,2.7835,2.7835,2.7835,2.7824,2.7761,2.7934,2.7881,2.7254,2.7011,2.6383,2.6662,2.6535,2.6451,2.6451,2.6451,2.6451,2.6451,2.6451,2.6451,2.6451,2.6451,2.6514,2.6514,2.6451,2.6493,2.6514,2.6461,2.6451,2.6451,2.6451,2.6451,2.6472,2.6567,2.6799,2.7116,2.7275,2.7486,2.7761,2.7761,2.7677,2.756,2.7518,2.7507,2.7529,2.7592,2.7698,2.7497,2.7296,2.7116,2.6863,2.6651,2.6546,1.6957,0.0,0.0,0.0,0.0,0.0,0.0,0.0,0.0,0.0,0.0,0.0,0.0,0.0,0.0,0.0,0.0,0.0,0.0,0.0,0.0,0.0,0.0,0.0,0.0,0.0,0.0,0.0,0.0,0.0,0.0,0.0,0.0,0.0,0.0,0.0,0.0,0.0,0.0,0.0,0.0,0.0,0.0,0.0,0.0,0.0,0.0,0.0,0.0,2.7835,2.7835,2.7835,2.7835,2.7835,2.7835,2.7835,2.7835,2.7835,2.7835,2.7835,2.7835,2.7835,2.7835,2.7835,2.7835,2.7835,2.7824,2.7698,2.7476,2.7328,2.6643,2.6415,2.6662,2.6546,2.6493,2.6451,2.6451,2.6451,2.6451,2.6451,2.6451,2.6451,2.6451,2.6451,2.6451,2.6451,2.6451,2.6451,2.6451,2.6451,2.6451,2.6451,2.6451,2.6451,2.6546,2.6683,2.6937,2.719,2.7391,2.7624,2.7824,2.7793,2.7613,2.7465,2.7275,2.7275,2.7317,2.7433,2.7571,2.7423,2.7233,2.7116,2.6863,2.6662,2.5269,1.4876,0.0,0.0,0.0,0.0,0.0,0.0,0.0,0.0,0.0,0.0,0.0,0.0,0.0,0.0,0.0,0.0,0.0,0.0,0.0,0.0,0.0,0.0,0.0,0.0,0.0,0.0,0.0,0.0,0.0,0.0,0.0,0.0,0.0,0.0,0.0,0.0,0.0,0.0,0.0,0.0,0.0,0.0,0.0,0.0,0.0,0.0,0.0,0.0,2.7835,2.7835,2.7835,2.7835,2.7835,2.7835,2.7835,2.7835,2.7835,2.7835,2.7835,2.7835,2.7835,2.7835,2.7835,2.7835,2.7835,2.7803,2.7645,2.7433,2.6789,2.6529,2.631,2.6546,2.6482,2.6451,2.6451,2.6451,2.6451,2.6451,2.6451,2.6451,2.6451,2.6451,2.6451,2.6451,2.6451,2.6451,2.6451,2.6451,2.6451,2.6451,2.6451,2.6493,2.6514,2.6641,2.6831,2.7074,2.7286,2.7476,2.7698,2.7761,2.7761,2.7581,2.7317,2.7095,2.6633,2.6675,2.7264,2.7412,2.7773,2.7106,2.7021,2.6789,2.662,2.4425,1.7789,0.0,0.0,0.0,0.0,0.0,0.0,0.0,0.0,0.0,0.0,0.0,0.0,0.0,0.0,0.0,0.0,0.0,0.0,0.0,0.0,0.0,0.0,0.0,0.0,0.0,0.0,0.0,0.0,0.0,0.0,0.0,0.0,0.0,0.0,0.0,0.0,0.0,0.0,0.0,0.0,0.0,0.0,0.0,0.0,0.0,0.0,0.0,0.0,2.7835,2.7835,2.7835,2.7835,2.7835,2.7835,2.7835,2.7835,2.7835,2.7835,2.7835,2.7835,2.7835,2.7835,2.7835,2.7835,2.7835,2.7814,2.7977,2.7688,2.6685,2.6404,2.6599,2.6461,2.6451,2.6451,2.6451,2.6451,2.6451,2.6451,2.6451,2.6451,2.6451,2.6451,2.6451,2.6451,2.6451,2.6451,2.6451,2.6451,2.6451,2.6451,2.6472,2.6556,2.6641,2.6757,2.6947,2.719,2.7402,2.755,2.7698,2.7655,2.7581,2.7497,2.719,2.6529,2.6404,2.6415,2.6947,2.7264,2.7591,2.6873,2.6831,2.6683,2.6556,2.5691,1.6538,0.0,0.0,0.0,0.0,0.0,0.0,0.0,0.0,0.0,0.0,0.0,0.0,0.0,0.0,0.0,0.0,0.0,0.0,0.0,0.0,0.0,0.0,0.0,0.0,0.0,0.0,0.0,0.0,0.0,0.0,0.0,0.0,0.0,0.0,0.0,0.0,0.0,0.0,0.0,0.0,0.0,0.0,0.0,0.0,0.0,0.0,0.0,0.0,2.7835,2.7835,2.7835,2.7835,2.7835,2.7835,2.7835,2.7835,2.7835,2.7835,2.7835,2.7835,2.7835,2.7835,2.7835,2.7835,2.7824,2.7698,2.7816,2.7591,2.699,2.6736,2.6546,2.6451,2.6451,2.6451,2.6451,2.6451,2.6451,2.6451,2.6451,2.6451,2.6451,2.6451,2.6451,2.6451,2.6451,2.6451,2.6451,2.6451,2.6451,2.6461,2.6514,2.6651,2.6768,2.6873,2.7064,2.7264,2.7486,2.755,2.7645,2.7719,2.7507,2.7328,2.6664,2.6425,2.6279,2.6662,2.6747,2.7441,2.7323,2.6641,2.6747,2.6673,2.6525,2.6535,1.6126,0.0,0.0,0.0,0.0,0.0,0.0,0.0,0.0,0.0,0.0,0.0,0.0,0.0,0.0,0.0,0.0,0.0,0.0,0.0,0.0,0.0,0.0,0.0,0.0,0.0,0.0,0.0,0.0,0.0,0.0,0.0,0.0,0.0,0.0,0.0,0.0,0.0,0.0,0.0,0.0,0.0,0.0,0.0,0.0,0.0,0.0,0.0,0.0,2.7761,2.7835,2.7835,2.7835,2.7835,2.7835,2.7835,2.7835,2.7835,2.7835,2.7835,2.7835,2.7835,2.7835,2.7835,2.7782,2.7708,2.7507,2.7275,2.7462,2.6884,2.6662,2.6514,2.6451,2.6451,2.6451,2.6451,2.6451,2.6451,2.6451,2.6451,2.6451,2.6451,2.6451,2.6451,2.6451,2.6451,2.6451,2.6451,2.6451,2.6451,2.6461,2.6556,2.6363,2.6873,2.699,2.7116,2.7338,2.7465,2.7507,2.7444,2.7913,2.7773,2.7138,2.6905,2.6683,2.6577,2.6525,2.662,2.6673,2.6599,2.6556,2.6577,2.6588,2.6504,2.6535,1.6545,0.0,0.0,0.0,0.0,0.0,0.0,0.0,0.0,0.0,0.0,0.0,0.0,0.0,0.0,0.0,0.0,0.0,0.0,0.0,0.0,0.0,0.0,0.0,0.0,0.0,0.0,0.0,0.0,0.0,0.0,0.0,0.0,0.0,0.0,0.0,0.0,0.0,0.0,0.0,0.0,0.0,0.0,0.0,0.0,0.0,0.0,0.0,0.0,2.7634,2.7824,2.7835,2.7835,2.7835,2.7835,2.7835,2.7835,2.7835,2.7835,2.7835,2.7835,2.7835,2.7803,2.7772,2.7655,2.7507,2.7412,2.7222,2.6895,2.6342,2.6641,2.6514,2.6451,2.6451,2.6451,2.6451,2.6451,2.6451,2.6451,2.6451,2.6451,2.6451,2.6451,2.6451,2.6451,2.6451,2.6451,2.6451,2.6451,2.6461,2.6493,2.663,2.6852,2.7032,2.7106,2.719,2.7359,2.7433,2.7402,2.7307,2.7677,2.7591,2.6968,2.6736,2.6525,2.6461,2.6451,2.6461,2.6461,2.6472,2.6472,2.6472,2.6504,2.6514,2.4033,1.7383,0.0,0.0,0.0,0.0,0.0,0.0,0.0,0.0,0.0,0.0,0.0,0.0,0.0,0.0,0.0,0.0,0.0,0.0,0.0,0.0,0.0,0.0,0.0,0.0,0.0,0.0,0.0,0.0,0.0,0.0,0.0,0.0,0.0,0.0,0.0,0.0,0.0,0.0,0.0,0.0,0.0,0.0,0.0,0.0,0.0,0.0,0.0,0.0,2.7624,2.7824,2.7835,2.7835,2.7835,2.7835,2.7835,2.7835,2.7835,2.7835,2.7835,2.7824,2.775,2.7624,2.7592,2.7465,2.7254,2.7095,2.6508,2.6363,2.6641,2.6514,2.6472,2.6451,2.6451,2.6451,2.6451,2.6451,2.6451,2.6451,2.6451,2.6451,2.6451,2.6451,2.6451,2.6451,2.6451,2.6451,2.6451,2.6451,2.6482,2.6599,2.6789,2.7021,2.7222,2.7264,2.7222,2.7286,2.7359,2.7254,2.7159,2.7548,2.7053,2.6916,2.6694,2.6535,2.6451,2.6451,2.6451,2.6451,2.6451,2.6451,2.6451,2.6461,2.4817,2.027,1.4062,0.0,0.0,0.0,0.0,0.0,0.0,0.0,0.0,0.0,0.0,0.0,0.0,0.0,0.0,0.0,0.0,0.0,0.0,0.0,0.0,0.0,0.0,0.0,0.0,0.0,0.0,0.0,0.0,0.0,0.0,0.0,0.0,0.0,0.0,0.0,0.0,0.0,0.0,0.0,0.0,0.0,0.0,0.0,0.0,0.0,0.0,0.0,0.0,2.7486,2.7708,2.7803,2.7835,2.7835,2.7835,2.7835,2.7835,2.7835,2.7835,2.7835,2.7824,2.7708,2.7539,2.7465,2.7317,2.7011,2.6425,2.6331,2.663,2.6535,2.6461,2.6451,2.6451,2.6451,2.6451,2.6451,2.6451,2.6451,2.6451,2.6451,2.6451,2.6451,2.6451,2.6451,2.6451,2.6451,2.6451,2.6451,2.6514,2.6567,2.6747,2.6947,2.7212,2.7827,2.7677,2.7169,2.7201,2.7127,2.7021,2.7323,2.7333,2.6926,2.6747,2.6588,2.6472,2.6451,2.6451,2.6451,2.6451,2.6451,2.6451,2.6451,2.6472,2.6113,1.8614,0.9506,0.0,0.0,0.0,0.0,0.0,0.0,0.0,0.0,0.0,0.0,0.0,0.0,0.0,0.0,0.0,0.0,0.0,0.0,0.0,0.0,0.0,0.0,0.0,0.0,0.0,0.0,0.0,0.0,0.0,0.0,0.0,0.0,0.0,0.0,0.0,0.0,0.0,0.0,0.0,0.0,0.0,0.0,0.0,0.0,0.0,0.0,0.0,0.0,2.7264,2.7913,2.7708,2.7814,2.7835,2.7835,2.7835,2.7835,2.7835,2.7835,2.7835,2.7824,2.7687,2.7486,2.737,2.718,2.6778,2.6768,2.6641,2.6514,2.6451,2.6451,2.6451,2.6451,2.6451,2.6451,2.6451,2.6451,2.6451,2.6451,2.6451,2.6451,2.6451,2.6451,2.6451,2.6451,2.6451,2.6451,2.6451,2.6546,2.6704,2.6863,2.7032,2.773,2.7709,2.7569,2.7095,2.699,2.6477,2.6842,2.7087,2.7044,2.6778,2.662,2.6514,2.6451,2.6451,2.6451,2.6451,2.6451,2.6451,2.6451,2.6451,2.6482,2.5721,1.8209,0.9097,0.0,0.0,0.0,0.0,0.0,0.0,0.0,0.0,0.0,0.0,0.0,0.0,0.0,0.0,0.0,0.0,0.0,0.0,0.0,0.0,0.0,0.0,0.0,0.0,0.0,0.0,0.0,0.0,0.0,0.0,0.0,0.0,0.0,0.0,0.0,0.0,0.0,0.0,0.0,0.0,0.0,0.0,0.0,0.0,0.0,0.0,0.0,0.0,2.7591,2.7677,2.7476,2.7677,2.7835,2.7835,2.7835,2.7835,2.7835,2.7835,2.7835,2.7824,2.7603,2.7296,2.6768,2.6571,2.6567,2.6525,2.6482,2.6472,2.6451,2.6451,2.6451,2.6451,2.6451,2.6451,2.6451,2.6451,2.6451,2.6451,2.6451,2.6451,2.6451,2.6451,2.6451,2.6451,2.6451,2.6451,2.6451,2.6577,2.6799,2.6958,2.7537,2.7709,2.7859,2.7423,2.7,2.6498,2.6477,2.6789,2.6567,2.6958,2.6694,2.6567,2.6461,2.6451,2.6451,2.6451,2.6451,2.6451,2.6451,2.6451,2.6451,2.6482,2.4464,1.1579,0.0,0.0,0.0,0.0,0.0,0.0,0.0,0.0,0.0,0.0,0.0,0.0,0.0,0.0,0.0,0.0,0.0,0.0,0.0,0.0,0.0,0.0,0.0,0.0,0.0,0.0,0.0,0.0,0.0,0.0,0.0,0.0,0.0,0.0,0.0,0.0,0.0,0.0,0.0,0.0,0.0,0.0,0.0,0.0,0.0,0.0,0.0,0.0,0.0,2.7042,2.7569,2.7381,2.7613,2.7824,2.7835,2.7835,2.7835,2.7835,2.7835,2.7835,2.7835,2.7634,2.7307,2.6623,2.6415,2.663,2.6504,2.6493,2.6588,2.6504,2.6451,2.6451,2.6451,2.6451,2.6451,2.6451,2.6451,2.6451,2.6451,2.6451,2.6451,2.6451,2.6451,2.6451,2.6451,2.6451,2.6451,2.6472,2.662,2.6916,2.7148,2.772,2.7741,2.7433,2.7233,2.6905,2.6435,2.6747,2.6662,2.6546,2.6514,2.6567,2.6535,2.6451,2.6451,2.6451,2.6451,2.6451,2.6451,2.6451,2.6451,2.6451,2.6472,2.2769,0.0,0.0,0.0,0.0,0.0,0.0,0.0,0.0,0.0,0.0,0.0,0.0,0.0,0.0,0.0,0.0,0.0,0.0,0.0,0.0,0.0,0.0,0.0,0.0,0.0,0.0,0.0,0.0,0.0,0.0,0.0,0.0,0.0,0.0,0.0,0.0,0.0,0.0,0.0,0.0,0.0,0.0,0.0,0.0,0.0,0.0,0.0,0.0,0.0,0.0,2.6884,2.6675,2.7338,2.7581,2.7772,2.7824,2.7835,2.7835,2.7835,2.7835,2.7835,2.7824,2.7708,2.7412,2.6623,2.6852,2.6736,2.662,2.7054,2.7183,2.6577,2.6461,2.6493,2.6472,2.6451,2.6451,2.6451,2.6451,2.6461,2.6493,2.6493,2.6451,2.6451,2.6451,2.6451,2.6451,2.6451,2.6451,2.6482,2.6683,2.7021,2.7275,2.7806,2.7773,2.7264,2.7032,2.6757,2.6662,2.6546,2.6493,2.6451,2.6451,2.6451,2.6451,2.6451,2.6451,2.6451,2.6451,2.6451,2.6451,2.6451,2.6451,2.6451,2.6461,2.2759,0.0,0.0,0.0,0.0,0.0,0.0,0.0,0.0,0.0,0.0,0.0,0.0,0.0,0.0,0.0,0.0,0.0,0.0,0.0,0.0,0.0,0.0,0.0,0.0,0.0,0.0,0.0,0.0,0.0,0.0,0.0,0.0,0.0,0.0,0.0,0.0,0.0,0.0,0.0,0.0,0.0,0.0,0.0,0.0,0.0,0.0,0.0,0.0,0.0,0.0,2.6651,2.6884,2.7106,2.7338,2.756,2.775,2.7835,2.7835,2.7835,2.7835,2.7835,2.7824,2.7708,2.7455,2.719,2.6968,2.6789,2.7205,2.728,2.7366,2.6694,2.6567,2.662,2.6567,2.6451,2.6461,2.6472,2.6451,2.6525,2.6651,2.6599,2.6525,2.6461,2.6451,2.6451,2.6451,2.6451,2.6504,2.6609,2.6321,2.6895,2.7505,2.7634,2.718,2.6727,2.6508,2.6609,2.6599,2.6588,2.6493,2.6451,2.6451,2.6451,2.6451,2.6451,2.6451,2.6451,2.6451,2.6451,2.6451,2.6451,2.6451,2.6451,2.6493,2.319,1.5719,0.0,0.0,0.0,0.0,0.0,0.0,0.0,0.0,0.0,0.0,0.0,0.0,0.0,0.0,0.0,0.0,0.0,0.0,0.0,0.0,0.0,0.0,0.0,0.0,0.0,0.0,0.0,0.0,0.0,0.0,0.0,0.0,0.0,0.0,0.0,0.0,0.0,0.0,0.0,0.0,0.0,0.0,0.0,0.0,0.0,0.0,0.0,0.0,0.0,2.6588,2.6821,2.7042,2.7264,2.7497,2.7729,2.7835,2.7835,2.7835,2.7835,2.7835,2.7824,2.7655,2.7381,2.6841,2.682,2.7116,2.7462,2.7527,2.719,2.6958,2.6821,2.6331,2.6683,2.6567,2.6525,2.6673,2.6789,2.6789,2.6905,2.6821,2.6673,2.662,2.6556,2.6472,2.6451,2.6514,2.663,2.6736,2.6477,2.7148,2.7106,2.7064,2.7042,2.7021,2.6873,2.6567,2.6588,2.6556,2.6472,2.6451,2.6451,2.6451,2.6451,2.6451,2.6451,2.6451,2.6451,2.6451,2.6451,2.6451,2.6451,2.6461,2.6504,2.3621,1.4894,0.455,0.0,0.0,0.0,0.0,0.0,0.0,0.0,0.0,0.0,0.0,0.0,0.0,0.0,0.0,0.0,0.0,0.0,0.0,0.0,0.0,0.0,0.0,0.0,0.0,0.0,0.0,0.0,0.0,0.0,0.0,0.0,0.0,0.0,0.0,0.0,0.0,0.0,0.0,0.0,0.0,0.0,0.0,0.0,0.0,0.0,0.0,0.0,0.0,2.6567,2.6757,2.6979,2.7212,2.7433,2.7677,2.7793,2.7835,2.7835,2.7835,2.7835,2.7835,2.7603,2.7338,2.6541,2.6602,2.737,2.7623,2.7634,2.7296,2.7537,2.7409,2.6895,2.6852,2.6768,2.6715,2.6947,2.7116,2.7106,2.7159,2.7074,2.7312,2.7226,2.6715,2.6567,2.6472,2.6546,2.6736,2.6852,2.7074,2.7317,2.7338,2.7212,2.6958,2.6916,2.6768,2.6504,2.6451,2.6451,2.6451,2.6451,2.6451,2.6451,2.6451,2.6451,2.6451,2.6451,2.6451,2.6451,2.6451,2.6451,2.6461,2.6472,2.6525,1.8629,0.8683,0.0,0.0,0.0,0.0,0.0,0.0,0.0,0.0,0.0,0.0,0.0,0.0,0.0,0.0,0.0,0.0,0.0,0.0,0.0,0.0,0.0,0.0,0.0,0.0,0.0,0.0,0.0,0.0,0.0,0.0,0.0,0.0,0.0,0.0,0.0,0.0,0.0,0.0,0.0,0.0,0.0,0.0,0.0,0.0,0.0,0.0,0.0,0.0,0.0,2.6461,2.6525,2.6747,2.6979,2.7201,2.7444,2.7655,2.7824,2.7835,2.7835,2.7835,2.7835,2.7677,2.7476,2.6612,2.6622,2.7423,2.7698,2.7655,2.7286,2.7516,2.7473,2.7516,2.7106,2.7085,2.7494,2.7307,2.7317,2.7264,2.7296,2.7307,2.7516,2.7344,2.6831,2.6715,2.6577,2.662,2.6863,2.7021,2.7243,2.7455,2.7581,2.7412,2.7074,2.6852,2.6567,2.6482,2.6451,2.6451,2.6451,2.6451,2.6451,2.6451,2.6451,2.6451,2.6451,2.6451,2.6451,2.6451,2.6451,2.6451,2.6493,2.6082,1.985,0.0,0.0,0.0,0.0,0.0,0.0,0.0,0.0,0.0,0.0,0.0,0.0,0.0,0.0,0.0,0.0,0.0,0.0,0.0,0.0,0.0,0.0,0.0,0.0,0.0,0.0,0.0,0.0,0.0,0.0,0.0,0.0,0.0,0.0,0.0,0.0,0.0,0.0,0.0,0.0,0.0,0.0,0.0,0.0,0.0,0.0,0.0,0.0,0.0,0.0,0.0,2.6556,2.6472,2.6704,2.6926,2.6716,2.6956,2.7613,2.7803,2.7835,2.7835,2.7835,2.7835,2.7708,2.7497,2.7174,2.7153,2.7497,2.7476,2.7497,2.7455,2.7402,2.7752,2.7795,2.7433,2.7507,2.7518,2.7624,2.7613,2.756,2.7603,2.7539,2.7752,2.7655,2.7095,2.6529,2.6456,2.6498,2.7127,2.7275,2.7433,2.7581,2.756,2.7338,2.7243,2.6895,2.6556,2.6461,2.6451,2.6451,2.6451,2.6451,2.6451,2.6451,2.6451,2.6451,2.6451,2.6451,2.6451,2.6451,2.6451,2.6461,2.6493,2.1506,1.2395,0.0,0.0,0.0,0.0,0.0,0.0,0.0,0.0,0.0,0.0,0.0,0.0,0.0,0.0,0.0,0.0,0.0,0.0,0.0,0.0,0.0,0.0,0.0,0.0,0.0,0.0,0.0,0.0,0.0,0.0,0.0,0.0,0.0,0.0,0.0,0.0,0.0,0.0,0.0,0.0,0.0,0.0,0.0,0.0,0.0,0.0,0.0,0.0,0.0,0.0,0.0,2.6609,2.6461,2.6651,2.6435,2.6643,2.6831,2.7486,2.775,2.7761,2.7782,2.7824,2.7835,2.7729,2.7581,2.7729,2.774,2.7613,2.7655,2.7761,2.732,2.732,2.7655,2.7645,2.7719,2.7814,2.7803,2.7824,2.7824,2.7824,2.7782,2.774,2.7988,2.7902,2.7391,2.6768,2.6706,2.681,2.7433,2.7476,2.756,2.7624,2.7423,2.7286,2.7233,2.6958,2.6673,2.6493,2.6451,2.6451,2.6451,2.6451,2.6451,2.6451,2.6451,2.6451,2.6451,2.6451,2.6451,2.6451,2.6461,2.6472,2.5259,1.6957,0.0,0.0,0.0,0.0,0.0,0.0,0.0,0.0,0.0,0.0,0.0,0.0,0.0,0.0,0.0,0.0,0.0,0.0,0.0,0.0,0.0,0.0,0.0,0.0,0.0,0.0,0.0,0.0,0.0,0.0,0.0,0.0,0.0,0.0,0.0,0.0,0.0,0.0,0.0,0.0,0.0,0.0,0.0,0.0,0.0,0.0,0.0,0.0,0.0,0.0,0.0,0.0,2.6472,2.644,2.6472,2.662,2.6394,2.6873,2.7148,2.7902,2.7945,2.7624,2.7772,2.7824,2.7772,2.7803,2.7793,2.7824,2.7782,2.7655,2.7581,2.7581,2.7592,2.7655,2.775,2.7814,2.7835,2.7835,2.7835,2.7835,2.7835,2.7835,2.7814,2.774,2.8009,2.7476,2.6997,2.7264,2.7275,2.7444,2.7486,2.7945,2.7902,2.7391,2.719,2.699,2.6799,2.6651,2.6504,2.6451,2.6451,2.6451,2.6451,2.6451,2.6451,2.6451,2.6451,2.6451,2.6451,2.6451,2.6451,2.6472,2.6514,2.2787,1.0336,0.0827,0.0,0.0,0.0,0.0,0.0,0.0,0.0,0.0,0.0,0.0,0.0,0.0,0.0,0.0,0.0,0.0,0.0,0.0,0.0,0.0,0.0,0.0,0.0,0.0,0.0,0.0,0.0,0.0,0.0,0.0,0.0,0.0,0.0,0.0,0.0,0.0,0.0,0.0,0.0,0.0,0.0,0.0,0.0,0.0,0.0,0.0,0.0,0.0,0.0,0.0,0.0,2.6155,2.6039,2.6186,2.5957,2.6175,2.6736,2.6979,2.7233,2.7709,2.7773,2.787,2.756,2.7624,2.7645,2.7772,2.7835,2.7824,2.7729,2.7687,2.7687,2.7655,2.7708,2.7793,2.7835,2.7835,2.7835,2.7835,2.7835,2.7835,2.7835,2.7835,2.7814,2.774,2.7687,2.7645,2.7571,2.7539,2.7476,2.7476,2.7838,2.7275,2.7159,2.6968,2.6425,2.6651,2.6567,2.6472,2.6451,2.6451,2.6451,2.6451,2.6451,2.6451,2.6451,2.6451,2.6451,2.6451,2.6451,2.6451,2.6482,2.4014,1.7789,0.7854,0.0,0.0,0.0,0.0,0.0,0.0,0.0,0.0,0.0,0.0,0.0,0.0,0.0,0.0,0.0,0.0,0.0,0.0,0.0,0.0,0.0,0.0,0.0,0.0,0.0,0.0,0.0,0.0,0.0,0.0,0.0,0.0,0.0,0.0,0.0,0.0,0.0,0.0,0.0,0.0,0.0,0.0,0.0,0.0,0.0,0.0,0.0,0.0,0.0,0.0,0.0,0.0,2.5891,2.5764,2.5922,2.5686,2.5853,2.6019,2.6217,2.6415,2.7269,2.729,2.7398,2.7138,2.718,2.7222,2.7381,2.7518,2.7518,2.7529,2.7592,2.7698,2.7592,2.7497,2.7571,2.7677,2.7772,2.7835,2.7835,2.7835,2.7835,2.7835,2.7835,2.7835,2.775,2.7729,2.7729,2.7645,2.756,2.7412,2.7381,2.7275,2.7053,2.6467,2.6352,2.629,2.6535,2.6461,2.6451,2.6451,2.6451,2.6451,2.6451,2.6451,2.6451,2.6451,2.6451,2.6451,2.6451,2.6451,2.6451,2.6493,2.2348,1.4051,0.5374,0.0,0.0,0.0,0.0,0.0,0.0,0.0,0.0,0.0,0.0,0.0,0.0,0.0,0.0,0.0,0.0,0.0,0.0,0.0,0.0,0.0,0.0,0.0,0.0,0.0,0.0,0.0,0.0,0.0,0.0,0.0,0.0,0.0,0.0,0.0,0.0,0.0,0.0,0.0,0.0,0.0,0.0,0.0,0.0,0.0,0.0,0.0,0.0,0.0,0.0,0.0,0.0,2.5743,2.5732,2.5743,2.5774,2.5795,2.5838,2.5996,2.6155,2.6593,2.6711,2.6461,2.6546,2.6546,2.6525,2.749,2.7205,2.6842,2.6916,2.7106,2.6758,2.6905,2.6736,2.7387,2.7709,2.7539,2.774,2.7782,2.7814,2.7835,2.7814,2.7835,2.7782,2.7603,2.7934,2.7902,2.772,2.7634,2.7169,2.6737,2.6633,2.6425,2.6394,2.631,2.6535,2.6493,2.6472,2.6482,2.6482,2.6472,2.6451,2.6451,2.6451,2.6451,2.6451,2.6451,2.6451,2.6451,2.6451,2.6461,2.6514,2.2383,1.3644,0.0,0.0,0.0,0.0,0.0,0.0,0.0,0.0,0.0,0.0,0.0,0.0,0.0,0.0,0.0,0.0,0.0,0.0,0.0,0.0,0.0,0.0,0.0,0.0,0.0,0.0,0.0,0.0,0.0,0.0,0.0,0.0,0.0,0.0,0.0,0.0,0.0,0.0,0.0,0.0,0.0,0.0,0.0,0.0,0.0,0.0,0.0,0.0,0.0,0.0,0.0,0.0,0.0,2.5309,2.532,2.5468,2.5531,2.5135,2.5281,2.5374,2.5859,2.6271,2.6325,2.6017,2.5738,2.5811,2.625,2.6797,2.6915,2.6567,2.6577,2.6175,2.5701,2.5465,2.5936,2.6165,2.6768,2.7441,2.6893,2.7391,2.7539,2.7814,2.7698,2.7613,2.7581,2.7381,2.7264,2.7254,2.7591,2.7473,2.6958,2.6623,2.6591,2.6446,2.6508,2.6539,2.6446,2.6736,2.6673,2.6673,2.6662,2.6599,2.6472,2.6451,2.6451,2.6451,2.6451,2.6451,2.6451,2.6451,2.6451,2.6451,2.6525,2.2796,1.3644,0.4965,0.0,0.0,0.0,0.0,0.0,0.0,0.0,0.0,0.0,0.0,0.0,0.0,0.0,0.0,0.0,0.0,0.0,0.0,0.0,0.0,0.0,0.0,0.0,0.0,0.0,0.0,0.0,0.0,0.0,0.0,0.0,0.0,0.0,0.0,0.0,0.0,0.0,0.0,0.0,0.0,0.0,0.0,0.0,0.0,0.0,0.0,0.0,0.0,0.0,0.0,0.0,0.0,2.5056,2.5077,2.5225,2.5331,2.502,2.5156,2.527,2.5322,2.5732,2.5743,2.5364,2.5087,2.553,2.5933,2.6039,2.6113,2.6123,2.6186,2.5686,2.5499,2.5066,2.5138,2.5271,2.6197,2.684,2.6342,2.6873,2.7127,2.7412,2.7349,2.7317,2.7317,2.7138,2.7032,2.7021,2.6947,2.6852,2.6725,2.6415,2.6467,2.6831,2.6519,2.6633,2.6675,2.699,2.7366,2.7011,2.6519,2.6404,2.6673,2.6588,2.6514,2.6461,2.6451,2.6451,2.6451,2.6451,2.6451,2.6451,2.6102,2.2778,1.4012,0.4945,0.0,0.0,0.0,0.0,0.0,0.0,0.0,0.0,0.0,0.0,0.0,0.0,0.0,0.0,0.0,0.0,0.0,0.0,0.0,0.0,0.0,0.0,0.0,0.0,0.0,0.0,0.0,0.0,0.0,0.0,0.0,0.0,0.0,0.0,0.0,0.0,0.0,0.0,0.0,0.0,0.0,0.0,0.0,0.0,0.0,0.0,0.0,0.0,0.0,0.0,0.0,0.0,2.5056,2.5056,2.5056,2.5193,2.4968,2.502,2.5135,2.5281,2.5322,2.5333,2.5732,2.5343,2.5281,2.55,2.5156,2.5468,2.5542,2.57,2.5669,2.5489,2.5062,2.5072,2.5083,2.6067,2.6292,2.6134,2.6345,2.7001,2.7697,2.7258,2.6508,2.6623,2.6487,2.6404,2.6404,2.6683,2.6525,2.6546,2.6609,2.6662,2.7205,2.7323,2.7021,2.7148,2.7591,2.7677,2.7423,2.681,2.6675,2.6623,2.6873,2.6683,2.6482,2.6451,2.6451,2.6451,2.6451,2.6451,2.6451,2.6514,2.2687,1.3922,0.4904,0.0,0.0,0.0,0.0,0.0,0.0,0.0,0.0,0.0,0.0,0.0,0.0,0.0,0.0,0.0,0.0,0.0,0.0,0.0,0.0,0.0,0.0,0.0,0.0,0.0,0.0,0.0,0.0,0.0,0.0,0.0,0.0,0.0,0.0,0.0,0.0,0.0,0.0,0.0,0.0,0.0,0.0,0.0,0.0,0.0,0.0,0.0,0.0,0.0,0.0,0.0,0.0,2.5056,2.5056,2.5056,2.5098,2.5183,2.5341,2.5447,2.5521,2.5669,2.5743,2.5732,2.5743,2.57,2.5637,2.5229,2.5156,2.5426,2.5478,2.5874,2.6215,2.5404,2.4927,2.5204,2.5246,2.5404,2.5637,2.5447,2.5759,2.6915,2.6408,2.6113,2.6018,2.5824,2.6279,2.6539,2.6519,2.6487,2.6937,2.7064,2.7169,2.7264,2.7412,2.7539,2.7603,2.7613,2.7581,2.7486,2.7402,2.681,2.6947,2.6842,2.6694,2.6472,2.6451,2.6451,2.6451,2.644,2.6451,2.644,2.6387,2.2569,1.3871,0.0,0.0,0.0,0.0,0.0,0.0,0.0,0.0,0.0,0.0,0.0,0.0,0.0,0.0,0.0,0.0,0.0,0.0,0.0,0.0,0.0,0.0,0.0,0.0,0.0,0.0,0.0,0.0,0.0,0.0,0.0,0.0,0.0,0.0,0.0,0.0,0.0,0.0,0.0,0.0,0.0,0.0,0.0,0.0,0.0,0.0,0.0,0.0,-0.4216,-0.2523,0.0,0.0,0.0,2.5056,2.5056,2.5056,2.5098,2.5193,2.5341,2.5457,2.5938,2.6089,2.6142,2.5743,2.6142,2.6099,2.5616,2.5218,2.5531,2.5415,2.5489,2.5885,2.6204,2.5404,2.5278,2.5066,2.5056,2.514,2.5278,2.502,2.569,2.6017,2.5922,2.5665,2.5609,2.5967,2.6134,2.6508,2.6591,2.7053,2.7138,2.7275,2.7402,2.7476,2.7634,2.7708,2.7708,2.7634,2.7507,2.7795,2.7349,2.7233,2.7355,2.6842,2.6725,2.6588,2.6493,2.6451,2.644,2.6366,2.6324,2.6324,2.6604,2.1541,1.01,0.3219,0.0,0.0,0.0,0.0,0.0,0.0,0.0,0.0,0.0,0.0,0.0,0.0,0.0,0.0,0.0,0.0,0.0,0.0,0.0,0.0,0.0,0.0,0.0,0.0,0.0,0.0,0.0,0.0,0.0,0.0,0.0,0.0,0.0,0.0,0.0,0.0,0.0,0.0,0.0,0.0,0.0,0.0,0.0,0.0,-0.293,-0.4606,-0.5871,-0.6293,-0.461,-0.295,0.0,0.0,2.5024,2.5013,2.5024,2.5109,2.4948,2.4948,2.5478,2.64,2.6487,2.6099,2.5669,2.6089,2.597,2.5331,2.532,2.5352,2.5394,2.5531,2.551,2.5352,2.5362,2.5257,2.5045,2.5056,2.5066,2.513,2.553,2.5627,2.5447,2.5415,2.5218,2.524,2.6102,2.6754,2.7183,2.7269,2.7355,2.7116,2.7602,2.7698,2.7881,2.7891,2.7859,2.7816,2.7222,2.7106,2.7116,2.7548,2.7548,2.7537,2.7333,2.6789,2.6331,2.6567,2.644,2.6398,2.6614,2.6496,2.6486,2.4694,1.7641,0.0,0.0,0.0,0.0,0.0,0.0,0.0,0.0,0.0,0.0,0.0,0.0,0.0,0.0,0.0,0.0,0.0,0.0,0.0,0.0,0.0,0.0,0.0,0.0,0.0,0.0,0.0,0.0,0.0,0.0,0.0,0.0,0.0,0.0,0.0,0.0,0.0,0.0,0.0,0.0,0.0,0.0,0.0,0.0,-0.3343,-0.3743,-0.4573,-0.6256,-0.6683,-0.6696,-0.6691,-0.5467,-0.6667,-0.6261,2.494,2.494,2.4559,2.4591,2.4665,2.4427,2.4929,2.579,2.5563,2.5246,2.5235,2.5235,2.5035,2.4686,2.4654,2.4749,2.4887,2.495,2.4552,2.4531,2.5077,2.5024,2.5219,2.4961,2.514,2.5257,2.513,2.5172,2.5362,2.5246,2.4979,2.4984,2.5593,2.6324,2.7194,2.7398,2.7494,2.7138,2.7307,2.7412,2.7423,2.7591,2.7333,2.7172,2.6662,2.5875,2.6029,2.6895,2.7312,2.6884,2.6831,2.6725,2.6556,2.6482,2.6366,2.6604,2.641,2.6228,2.5658,1.428,0.511,0.0,0.0,0.0,0.0,0.0,0.0,0.0,0.0,0.0,0.0,0.0,0.0,0.0,0.0,0.0,0.0,0.0,0.0,0.0,0.0,0.0,0.0,0.0,0.0,0.0,0.0,0.0,0.0,0.0,0.0,0.0,0.0,0.0,0.0,0.0,0.0,0.0,0.0,0.0,0.0,0.0,0.0,0.0,0.0,-0.5482,-0.5446,-0.5888,-0.6763,-0.676,-0.6763,-0.676,-0.6728,-0.6752,-0.6755,2.4559,2.4644,2.4538,2.4453,2.4022,2.4209,2.4644,2.4962,2.4707,2.477,2.4749,2.4559,2.4337,2.4094,2.4189,2.4295,2.4422,2.4136,2.4167,2.4188,2.4313,2.4707,2.4972,2.5101,2.4844,2.4961,2.4929,2.4971,2.5087,2.5077,2.5235,2.5187,2.5416,2.6176,2.7054,2.7312,2.7473,2.7127,2.7264,2.6862,2.6747,2.6842,2.663,2.6577,2.6071,2.568,2.5783,2.6461,2.6786,2.6356,2.6186,2.606,2.6017,2.6017,2.5996,2.6357,2.6271,2.2848,1.5409,0.5848,0.0,0.0,0.0,0.0,0.0,0.0,0.0,0.0,0.0,0.0,0.0,0.0,0.0,0.0,0.0,0.0,0.0,0.0,0.0,0.0,0.0,0.0,0.0,0.0,0.0,0.0,0.0,0.0,0.0,0.0,0.0,0.0,0.0,0.0,0.0,0.0,0.0,0.0,0.0,0.0,0.0,0.0,0.0,0.0,-0.4163,-0.6261,-0.6707,-0.6712,-0.6736,-0.6726,-0.6734,-0.6736,-0.6736,-0.6736,-0.6736,2.4313,2.4479,2.4644,2.4105,2.3928,2.4105,2.4084,2.4305,2.3918,2.3918,2.4263,2.3851,2.3682,2.3693,2.3893,2.4361,2.401,2.3824,2.3907,2.3907,2.3561,2.4348,2.4769,2.4769,2.4758,2.4833,2.4591,2.4675,2.509,2.5262,2.5098,2.4937,2.5197,2.5954,2.6775,2.7054,2.728,2.7064,2.7021,2.6477,2.6279,2.5639,2.5609,2.5814,2.5598,2.5486,2.5842,2.6314,2.6487,2.6454,2.5331,2.5193,2.4958,2.5404,2.5874,2.6422,2.5669,1.8311,0.352,0.0384,0.0,0.0,0.0,0.0,0.0,0.0,0.0,0.0,0.0,0.0,0.0,0.0,0.0,0.0,0.0,0.0,0.0,0.0,0.0,0.0,0.0,0.0,0.0,0.0,0.0,0.0,0.0,0.0,0.0,0.0,0.0,0.0,0.0,0.0,0.0,0.0,0.0,0.0,0.0,0.0,0.0,0.0,-0.0808,-0.2448,-0.5299,-0.6551,-0.6559,-0.6575,-0.6617,-0.663,-0.6633,-0.663,-0.6633,-0.6643,-0.6633,2.3925,2.435,2.3914,2.3862,2.3819,2.3872,2.3862,2.3819,2.3819,2.3819,2.3809,2.3714,2.3661,2.3661,2.3714,2.3745,2.3745,2.3788,2.3819,2.383,2.3626,2.3814,2.397,2.4369,2.4074,2.3817,2.3725,2.4432,2.4844,2.5267,2.5026,2.4897,2.5041,2.5785,2.6727,2.6732,2.6546,2.6567,2.6229,2.5613,2.5551,2.5353,2.5669,2.57,2.55,2.5767,2.5756,2.6062,2.6008,2.5606,2.4885,2.4462,2.3959,2.4906,2.5267,2.5359,2.494,2.0157,0.9966,0.3414,0.0,0.0,0.0,0.0,0.0,0.0,0.0,0.0,0.0,0.0,0.0,0.0,0.0,0.0,0.0,0.0,0.0,0.0,0.0,0.0,0.0,0.0,0.0,0.0,0.0,0.0,0.0,0.0,0.0,0.0,0.0,0.0,0.0,0.0,0.0,0.0,0.0,0.0,0.0,0.0,0.0,0.0,0.0,-0.3627,-0.5252,-0.6474,-0.6477,-0.649,-0.6516,-0.6556,-0.6564,-0.6577,-0.6612,-0.662,-0.6604,2.4041,2.449,2.3914,2.3883,2.3967,2.3745,2.3661,2.3661,2.3661,2.3661,2.3661,2.3661,2.3661,2.3661,2.3661,2.3661,2.3661,2.3661,2.3661,2.3671,2.3788,2.3543,2.3658,2.4041,2.3782,2.3602,2.3876,2.3886,2.4747,2.4758,2.4811,2.457,2.4625,2.5373,2.64,2.6357,2.6529,2.6113,2.5764,2.5229,2.4912,2.5404,2.5299,2.5799,2.5172,2.5056,2.5045,2.5241,2.5133,2.4344,2.4271,2.4209,2.3807,2.4696,2.4707,2.4559,2.4188,2.2193,1.7429,0.6405,0.0,0.0,0.0,0.0,0.0,0.0,0.0,0.0,0.0,0.0,0.0,0.0,0.0,0.0,0.0,0.0,0.0,0.0,0.0,0.0,0.0,0.0,0.0,0.0,0.0,0.0,0.0,0.0,0.0,0.0,0.0,0.0,0.0,0.0,0.0,0.0,0.0,0.0,0.0,0.0,0.0,0.0,0.0,-0.4784,-0.56,-0.6413,-0.6416,-0.6434,-0.6463,-0.65,-0.6503,-0.6511,-0.6537,-0.6551,-0.653,2.4369,2.4517,2.4126,2.4084,2.4231,2.383,2.3661,2.3661,2.3661,2.3661,2.3661,2.3661,2.3661,2.3661,2.3661,2.3661,2.3661,2.3661,2.3661,2.3661,2.3661,2.3682,2.3703,2.3671,2.3777,2.3616,2.3606,2.4073,2.4253,2.4295,2.4316,2.4348,2.4188,2.4918,2.6138,2.6422,2.6099,2.5584,2.5404,2.5426,2.526,2.5267,2.5161,2.5383,2.475,2.4185,2.4114,2.4105,2.3866,2.3448,2.3481,2.3735,2.4275,2.3957,2.401,2.3741,2.3803,2.2617,2.017,0.7825,0.0,0.0,0.0,0.0,0.0,0.0,0.0,0.0,0.0,0.0,0.0,0.0,0.0,0.0,0.0,0.0,0.0,0.0,0.0,0.0,0.0,0.0,0.0,0.0,0.0,0.0,0.0,0.0,0.0,0.0,0.0,0.0,0.0,0.0,0.0,0.0,0.0,0.0,0.0,0.0,0.0,0.0,-0.5512,-0.6288,-0.6328,-0.6352,-0.6355,-0.6397,-0.6421,-0.6439,-0.6442,-0.645,-0.6466,-0.6445,-0.6429,2.3809,2.383,2.3756,2.3745,2.3777,2.3693,2.3661,2.3661,0.0,0.0,0.0,2.3661,2.3661,2.3661,2.3661,2.3661,2.3661,2.3661,2.3661,2.3661,2.3661,2.3756,2.3564,2.3745,2.3777,2.3616,2.4189,2.4114,2.3788,2.3978,2.4073,2.4115,2.4105,2.4438,2.4729,2.5521,2.5457,2.4908,2.4844,2.4636,2.5031,2.5193,2.4771,2.4595,2.4196,2.4188,2.421,2.3936,2.3693,2.3137,2.3221,2.3221,2.3824,2.3619,2.3867,2.3752,2.3352,1.7565,0.5004,0.143,0.0,0.0,0.0,0.0,0.0,0.0,0.0,0.0,0.0,0.0,0.0,0.0,0.0,0.0,0.0,0.0,0.0,0.0,0.0,0.0,0.0,0.0,0.0,0.0,0.0,0.0,0.0,0.0,0.0,0.0,0.0,0.0,0.0,0.0,0.0,0.0,0.0,0.0,0.0,0.0,-0.3927,-0.5893,-0.6283,-0.6272,-0.6286,-0.6291,-0.6294,-0.6304,-0.6325,-0.6373,-0.6384,-0.6397,-0.6431,-0.6378,-0.6312,2.3481,2.3846,2.3481,2.3481,0.0,2.3608,2.3523,2.3312,2.3685,2.3674,2.3312,2.3312,2.3376,2.3481,2.3846,2.3545,2.3661,2.3661,2.3661,2.3661,2.3661,2.3661,2.3661,2.3661,2.3724,2.3819,2.3714,2.3724,2.383,2.383,2.384,2.4211,2.4179,2.4032,2.4538,2.5262,2.5209,2.4358,2.4464,2.4644,2.4469,2.4644,2.458,2.4292,2.4358,0.0,0.0,0.0,0.0,0.0,0.0,0.0,0.0,0.0,0.0,2.303,1.8912,1.1823,0.0,0.0,0.0,0.0,0.0,0.0,0.0,0.0,0.0,0.0,0.0,0.0,0.0,0.0,0.0,0.0,0.0,0.0,0.0,0.0,0.0,0.0,0.0,0.0,0.0,0.0,0.0,0.0,0.0,0.0,-0.267,-0.3041,-0.2273,0.0,0.0,0.0,0.0,0.0,0.0,0.0,-0.0772,-0.2709,-0.5809,-0.6196,-0.6196,-0.6193,-0.6193,-0.6193,-0.6196,-0.6219,-0.6246,-0.6275,-0.6302,-0.632,-0.6278,-0.6235,-0.6193,2.3196,2.3599,2.3196,2.3196,2.3249,2.3344,2.3185,2.2837,2.3202,2.3202,2.2847,2.2482,2.2586,2.3101,2.3481,2.361,2.346,2.346,2.3492,2.3534,2.3566,2.3856,2.3695,2.3545,2.3661,2.3661,2.3661,2.3756,2.3564,2.3798,2.3703,2.4039,2.3936,2.4062,2.4787,0.0,0.0,0.0,2.4189,2.4327,2.397,2.4179,2.4084,2.4073,2.4232,0.0,2.3661,2.3241,2.2844,2.321,2.3587,0.0,0.0,0.0,0.0,0.0,0.0,0.0,0.0,0.0,0.0,0.0,0.0,0.0,0.0,0.0,0.0,0.0,0.0,-0.0349,-0.0702,-0.0355,0.0,0.0,0.0,0.0,0.0,0.0,0.0,0.0,0.0,0.0,0.0,0.0,0.0,0.0,0.0,0.0,-0.5312,-0.5278,-0.4129,0.0,0.0,0.0,-0.0,0.0,0.0,-0.1143,-0.2286,-0.3818,-0.5734,-0.6113,-0.6111,-0.6113,-0.6108,-0.6113,-0.6113,-0.6145,-0.6182,-0.6182,-0.6214,-0.6219,-0.6129,-0.6111,-0.6108,2.2826,2.2995,2.2794,2.2826,2.2985,2.2243,2.1708,2.1656,2.2708,2.2708,2.2361,2.1299,2.1667,2.2403,2.3457,2.3251,2.2752,2.2399,2.2858,2.3069,2.362,2.3706,2.3685,2.3545,2.3661,2.3661,2.3661,2.3682,2.3703,2.3883,2.3862,2.3693,2.372,2.3834,2.401,2.384,2.3735,2.3714,2.3936,2.3782,2.398,2.4337,2.4316,2.3928,2.4094,2.3872,2.3671,2.3085,2.2981,2.3344,2.3717,2.361,2.3027,2.2594,2.2354,0.0,2.01,0.0,0.0,0.0,0.0,0.0,0.0,0.0,0.0,0.0,0.0,0.0,0.0,-0.1029,-0.3744,-0.1374,0.0,0.0,0.0,0.0,0.0,0.0,0.0,0.0,0.0,0.0,0.0,0.0,0.0,0.0,0.0,-0.1859,-0.4838,-0.4462,-0.3342,-0.26,-0.409,-0.373,-0.1492,-0.3,-0.4901,-0.4905,-0.4171,-0.3816,-0.5722,-0.6103,-0.6106,-0.6106,-0.61,-0.6103,-0.6108,-0.6113,-0.6121,-0.6121,-0.6124,-0.6124,-0.6106,-0.6098,-0.6108,2.179,2.166,2.2033,2.1801,2.141,2.053,2.051,2.0622,2.1635,2.2042,2.1828,2.115,2.1296,2.1885,2.2236,2.2365,2.2224,2.2003,2.1769,2.1871,2.2461,2.3288,2.3665,2.3663,2.3771,2.3652,2.3407,2.346,2.3824,2.3449,2.3439,2.346,2.3304,2.3597,2.362,2.3642,2.3706,2.346,2.3566,2.3724,2.3957,2.3978,2.3978,2.3967,2.3872,2.3767,2.3661,2.3428,2.3302,2.3302,2.3185,2.2847,2.2234,2.1896,2.1315,0.0,0.0,0.0,0.0,0.0,0.0,0.0,0.0,0.0,0.0,0.0,-0.183,-0.0,-0.1599,-0.295,-0.4242,-0.2648,-0.1005,-0.0,-0.0674,-0.1015,-0.0,-0.1377,-0.1734,0.0,0.0,0.0,0.0,0.0,0.0,0.0,-0.1828,-0.3987,-0.5468,-0.5134,-0.4413,-0.4415,-0.5543,-0.5192,-0.3707,-0.4838,-0.5973,-0.5973,-0.5245,-0.4884,-0.601,-0.601,-0.601,-0.601,-0.601,-0.601,-0.6013,-0.6037,-0.606,-0.6055,-0.6034,-0.6013,-0.601,-0.601,-0.601,2.0516,2.0713,2.0892,2.0522,2.0015,1.9383,1.891,1.9465,2.0755,2.1159,2.1279,2.0691,2.0839,2.1082,2.1082,2.123,2.1505,2.1062,2.0836,2.0916,2.1941,2.2783,2.3457,2.3567,2.3698,2.3545,2.3341,2.309,2.3491,2.3277,2.2921,2.2763,2.2659,2.2794,2.3546,2.3524,2.3395,2.3132,2.3302,2.3449,2.3566,2.3629,2.3661,2.3661,2.3661,2.3629,2.3566,2.3771,2.362,2.3143,2.2879,2.235,2.1558,2.0765,0.0,0.0,0.0,0.0,0.0,0.0,0.0,0.0,0.0,-0.1325,-0.4256,0.0,-0.3472,0.0,-0.3353,-0.4693,-0.4708,-0.3506,0.0,0.0,-0.1935,-0.2263,-0.1309,-0.2977,-0.3677,-0.1352,-0.0343,-0.0349,-0.1063,-0.1069,-0.1078,-0.1458,-0.3606,-0.5369,-0.5756,-0.583,-0.5883,-0.5875,-0.5894,-0.5912,-0.5909,-0.5912,-0.592,-0.5949,-0.5968,-0.5968,-0.5957,-0.5954,-0.5949,-0.5936,-0.5933,-0.5933,-0.5936,-0.5968,-0.5994,-0.5978,-0.5944,-0.5912,-0.5912,-0.5899,-0.5894,2.0374,2.0459,1.9212,1.9011,1.9215,1.7993,1.791,1.893,1.9892,2.0422,2.0251,2.0152,1.9704,1.934,1.995,0.0,2.0332,1.9576,1.9455,2.0346,2.2694,2.3244,2.238,2.2837,2.3044,2.3737,2.2697,2.2456,2.3019,2.2783,2.2435,2.2295,2.1533,2.165,2.3048,2.2998,2.2879,2.2678,2.3302,2.3534,2.2971,2.3545,2.3661,2.3661,2.3661,2.3555,2.3344,2.3674,2.347,2.2689,2.259,2.2129,2.1646,0.0,0.0,0.0,0.0,0.0,0.0,0.0,0.0,0.0,0.0,0.0,0.0,0.0,0.0,0.0,-0.4153,0.0,-0.4897,-0.4604,0.0,0.0,0.0,-0.2777,-0.4059,-0.4422,-0.4475,-0.4203,0.0,0.0,-0.3737,-0.415,-0.4554,-0.5262,-0.3945,-0.3633,-0.5764,-0.5888,-0.5986,-0.5923,-0.5883,-0.5851,-0.5856,-0.5854,-0.5883,-0.5976,-0.6058,-0.6058,-0.6015,-0.6005,-0.5989,-0.5939,-0.5931,-0.5928,-0.5931,-0.592,-0.5923,-0.5859,-0.5846,-0.5846,-0.5838,-0.5801,-0.5782,1.8853,1.8335,1.7373,1.7215,1.7847,1.7166,1.7817,1.9089,1.9675,1.9787,1.9675,1.9177,1.8662,1.7946,1.8662,0.0,0.0,0.0,1.874,1.9414,2.0459,2.1238,2.1378,2.1706,2.1917,2.2033,2.1917,2.197,2.2181,2.1822,2.141,2.0609,0.0,0.0,2.22,2.2107,2.2214,2.2203,2.2741,2.2752,2.294,2.3534,2.3661,2.365,2.3889,2.3771,2.3302,2.29,2.2467,2.2012,2.1558,2.086,0.0,0.0,0.0,0.0,0.0,0.0,0.0,0.0,0.0,0.0,0.0,-0.1943,-0.2664,0.0,0.0,0.0,-0.3805,-0.4431,-0.4561,-0.4698,0.0,0.0,0.0,0.0,0.0,0.0,0.0,-0.2962,-0.2798,-0.3242,-0.43,-0.4626,-0.4954,-0.5318,-0.4761,-0.4842,-0.5546,0.0,-0.5814,-0.5825,-0.5806,-0.5803,-0.5838,-0.5814,-0.5806,-0.5854,-0.5909,-0.5939,-0.5917,-0.5915,-0.5907,-0.5878,-0.5822,-0.5785,-0.5819,-0.5708,-0.561,-0.5589,-0.5583,-0.5594,-0.5631,-0.5618,-0.598,1.7151,0.0,0.0,0.0,0.0,1.6084,1.672,1.8016,1.8828,1.9271,1.8994,1.7933,0.0,0.0,0.0,0.0,0.0,0.0,1.7493,1.8105,1.8953,1.9798,2.0308,2.0934,2.0828,2.0963,2.0755,2.1093,2.1283,2.0649,1.9715,1.883,0.0,0.0,0.0,0.0,2.1452,2.1621,2.2276,2.2451,2.2836,2.3439,2.3566,2.3555,2.3695,2.3513,2.3006,2.2751,2.2139,2.122,2.0565,0.0,0.0,0.0,0.0,0.0,0.0,0.0,0.0,0.0,0.0,0.0,0.0,0.0,0.0,0.0,0.0,0.0,0.0,0.0,-0.4251,-0.4428,-0.4539,0.0,0.0,0.0,0.0,0.0,0.0,0.0,0.0,0.0,-0.4399,-0.4693,-0.4708,0.0,0.0,-0.5382,-0.5409,-0.5573,-0.5697,-0.5708,-0.5692,0.0,-0.574,-0.5708,-0.5689,-0.5705,-0.5769,-0.5814,-0.616,-0.5766,-0.574,-0.5721,-0.565,-0.5583,-0.5557,-0.5419,-0.5324,-0.5332,-0.5334,-0.535,-0.5387,-0.5398,-0.5763,0.0,0.0,0.0,0.0,0.0,0.0,0.0,0.0,1.7474,1.8673,0.0,1.5828,0.0,0.0,0.0,0.0,1.676,1.5782,0.0,0.0,1.8256,1.9592,1.9532,2.0277,2.0516,2.0825,1.9972,1.9972,2.0748,1.9038,0.0,0.0,0.0,0.0,0.0,0.0,2.1216,2.0945,2.1681,2.2378,2.2985,2.3567,2.3685,2.3685,2.3101,2.2773,2.2308,2.2182,2.1857,2.092,1.8851,0.0,0.0,0.0,0.0,0.0,0.0,0.0,0.0,0.0,0.0,0.0,0.0,0.0,0.0,0.0,0.0,0.0,0.0,0.0,0.0,-0.4081,0.0,0.0,0.0,0.0,0.0,0.0,0.0,0.0,0.0,0.0,-0.4298,-0.4412,-0.4566,-0.5043,0.0,0.0,0.0,0.0,-0.5713,-0.5607,-0.5544,-0.5509,-0.5512,-0.5509,-0.5528,-0.5581,0.0,0.0,-0.6036,-0.5583,-0.5491,-0.5435,-0.5419,-0.5348,-0.5125,-0.5072,-0.508,-0.5133,-0.4812,-0.4827,-0.5154,-0.5144,-0.5487,0.0,0.0,0.0,0.0,0.0,0.0,0.0,0.0,0.0,1.6518,0.0,1.3948,0.0,0.0,0.0,0.0,0.0,0.0,0.0,0.0,1.7749,1.8948,1.9517,1.8762,1.877,0.0,1.8398,1.8287,0.0,0.0,0.0,0.0,0.0,0.0,0.0,0.0,2.0132,2.0438,2.1088,2.1503,2.2004,2.2974,2.3883,2.3663,2.2942,2.2382,2.1611,2.1519,2.0658,0.0,0.0,0.0,0.0,0.0,0.0,0.0,0.0,0.0,0.0,0.0,0.0,0.0,0.0,0.0,0.0,0.0,0.0,0.0,0.0,0.0,0.0,0.0,-0.3737,0.0,0.0,0.0,0.0,0.0,0.0,0.0,0.0,0.0,-0.4055,-0.4214,-0.44,-0.4868,-0.5361,-0.553,-0.5334,0.0,0.0,0.0,0.0,0.0,0.0,0.0,-0.5435,-0.5417,-0.5414,-0.5409,-0.5724,-0.5654,-0.5263,-0.5242,0.0,0.0,-0.4767,-0.4717,-0.4722,-0.4743,-0.4395,-0.439,-0.4831,-0.4802,-0.511,0.0,0.0,0.0,0.0,0.0,0.0,0.0,0.0,0.0,1.4772,1.377,0.0,0.0,0.0,0.0,0.0,0.0,0.0,0.0,0.0,0.0,0.0,1.8054,1.7575,0.0,0.0,0.0,0.0,0.0,0.0,0.0,0.0,0.0,0.0,0.0,0.0,1.9489,1.9962,2.0284,2.0765,2.142,2.3094,2.3611,2.3309,2.2667,2.2065,2.1135,0.0,0.0,0.0,0.0,0.0,0.0,0.0,0.0,0.0,0.0,0.0,0.0,0.0,0.0,0.0,0.0,0.0,0.0,0.0,0.0,0.0,0.0,0.0,0.0,0.0,-0.3533,0.0,0.0,0.0,0.0,0.0,0.0,0.0,0.0,0.0,0.0,0.0,-0.4216,-0.4712,-0.5164,-0.5324,-0.5181,-0.5239,-0.5305,0.0,0.0,0.0,0.0,0.0,0.0,0.0,0.0,0.0,0.0,0.0,0.0,0.0,0.0,-0.4651,-0.4455,-0.4417,-0.4417,-0.442,0.0,0.0,0.0,0.0,0.0,0.0,0.0,0.0,0.0,0.0,0.0,0.0,0.0,0.0,0.0,1.2352,0.0,0.0,1.2449,0.0,0.0,0.0,0.0,0.0,0.0,0.0,0.0,0.0,0.0,0.0,0.0,0.0,0.0,0.0,0.0,0.0,0.0,0.0,0.0,0.0,0.0,1.9295,1.9476,1.9967,2.0523,2.1533,2.2837,2.3208,2.2298,2.2245,2.1801,2.0882,0.0,0.0,0.0,0.0,0.0,0.0,0.0,0.0,0.0,0.0,0.0,0.0,0.0,0.0,0.0,0.0,0.0,0.0,0.0,0.0,0.0,0.0,0.0,0.0,0.0,0.0,-0.3432,-0.3615,-0.3774,0.0,0.0,0.0,0.0,0.0,0.0,0.0,0.0,0.0,-0.4862,-0.5068,-0.5209,-0.4971,-0.5072,-0.5141,-0.5149,-0.5101,-0.508,-0.5138,-0.5146,-0.5104,0.0,0.0,0.0,0.0,0.0,0.0,0.0,0.0,0.0,0.0,0.0,0.0,0.0,0.0,0.0,0.0,0.0,0.0,0.0,0.0,0.0,0.0,0.0,0.0,0.0,0.0,0.0,0.0,0.0,0.0,0.0,0.0,0.0,0.0,0.0,0.0,0.0,0.0,0.0,0.0,0.0,0.0,0.0,0.0,0.0,0.0,0.0,0.0,0.0,0.0,0.0,0.0,0.0,0.0,1.8737,1.9222,1.9902,2.0807,2.165,2.2429,2.2515,2.2245,2.1632,2.1008,0.0,0.0,0.0,0.0,0.0,0.0,0.0,0.0,0.0,0.0,0.0,0.0,0.0,0.0,0.0,0.0,0.0,0.0,0.0,0.0,0.0,0.0,0.0,0.0,0.0,0.0,0.0,0.0,-0.3339,-0.3426,-0.3713,0.0,0.0,0.0,0.0,0.0,0.0,0.0,0.0,0.0,0.0,-0.5017,-0.4942,-0.4969,-0.4993,-0.5072,-0.5069,-0.5048,-0.503,-0.5059,-0.503,-0.4876,0.0,0.0,0.0,0.0,0.0,0.0,0.0,0.0,0.0,0.0,0.0,0.0,0.0,0.0,0.0,0.0,0.0,0.0,0.0,0.0,0.0,0.0,0.0,0.0,0.0,0.0,0.0,0.0,0.0,0.0,0.0,0.0,0.0,0.0,0.0,0.0,0.0,0.0,0.0,0.0,0.0,0.0,0.0,0.0,0.0,0.0,0.0,0.0,0.0,0.0,0.0,0.0,0.0,1.8319,1.8853,1.9642,2.0599,2.139,2.2129,2.2204,2.2002,2.1177,2.0755,0.0,0.0,0.0,0.0,0.0,0.0,0.0,0.0,0.0,0.0,0.0,0.0,0.0,0.0,0.0,0.0,0.0,0.0,0.0,0.0,0.0,0.0,0.0,0.0,0.0,0.0,0.0,0.0,-0.3434,-0.3532,-0.3591,0.0,0.0,0.0,0.0,0.0,0.0,0.0,0.0,0.0,0.0,-0.5107,-0.6221,-0.5399,0.0,0.0,-0.494,-0.4918,-0.491,-0.4937,-0.4892,-0.4992,-0.4653,0.0,0.0,0.0,0.0,0.0,0.0,0.0,0.0,0.0,0.0,0.0,0.0,0.0,0.0,0.0,0.0,0.0,0.0,0.0,0.0,0.0,0.0,0.0,0.0,0.0,0.0,0.0,0.0,0.0,0.0,0.0,0.0,0.0,0.0,0.0,0.0,0.0,0.0,0.0,0.0,0.0,0.0,0.0,0.0,0.0,0.0,0.0,0.0,0.0,0.0,0.0,0.0,0.0,1.8462,1.9496,2.0516,2.0817,2.1903,2.2249,2.1526,2.1173,2.0358,0.0,0.0,0.0,0.0,0.0,0.0,0.0,0.0,0.0,0.0,0.0,0.0,0.0,0.0,0.0,0.0,0.0,0.0,0.0,0.0,0.0,0.0,0.0,0.0,0.0,0.0,0.0,0.0,0.0,0.0,0.0,0.0,0.0,0.0,0.0,0.0,0.0,0.0,0.0,0.0,0.0,-0.5721,-0.7741,-0.6299,-0.5006,0.0,-0.5029,-0.5009,-0.4762,-0.4775,-0.4701,-0.4753,0.0,0.0,0.0,0.0,0.0,0.0,0.0,0.0,0.0,0.0,0.0,0.0,0.0,0.0,0.0,0.0,0.0,0.0,0.0,0.0,0.0,0.0,0.0,0.0,0.0,0.0,0.0,0.0,0.0,0.0,0.0,0.0,0.0,0.0,0.0,0.0,0.0,0.0,0.0,0.0,0.0,0.0,0.0,0.0,0.0,0.0,0.0,0.0,0.0,0.0,0.0,0.0,0.0,0.0,1.8451,1.9496,2.036,2.0376,2.1732,2.2085,2.1051,2.0395,0.0,0.0,0.0,0.0,0.0,0.0,0.0,0.0,0.0,0.0,0.0,0.0,0.0,0.0,0.0,0.0,0.0,0.0,0.0,0.0,0.0,0.0,0.0,0.0,0.0,0.0,0.0,-0.2859,0.0,0.0,0.0,0.0,0.0,0.0,0.0,0.0,0.0,0.0,0.0,0.0,0.0,0.0,-0.8953,-0.5724,-0.668,-0.6791,0.0,0.0,-0.6823,-0.4764,-0.4545,-0.4521,0.0,0.0,0.0,0.0,0.0,0.0,0.0,0.0,0.0,0.0,0.0,0.0,0.0,0.0,0.0,0.0,0.0,0.0,0.0,0.0,0.0,0.0,0.0,0.0,0.0,0.0,0.0,0.0,0.0,0.0,0.0,0.0,0.0,0.0,0.0,0.0,0.0,0.0,0.0,0.0,0.0,0.0,0.0,0.0,0.0,0.0,0.0,0.0,0.0,0.0,0.0,0.0,0.0,0.0,1.7891,1.8155,1.9205,1.9783,2.0526,2.1377,2.1399,2.0903,2.0057,1.6777,0.0,0.0,0.0,0.0,0.0,0.0,0.0,0.0,0.0,0.0,0.0,0.0,0.0,0.0,0.0,0.0,0.0,0.0,0.0,0.0,0.0,0.0,0.0,0.0,0.0,0.0,0.0,0.0,0.0,0.0,0.0,0.0,0.0,0.0,0.0,0.0,0.0,0.0,0.0,0.0,0.0,0.0,-0.9146,-0.8501,0.0,0.0,0.0,-0.7965,-0.6227,0.0,0.0,0.0,0.0,0.0,0.0,0.0,0.0,0.0,0.0,0.0,0.0,0.0,0.0,0.0,0.0,0.0,0.0,0.0,0.0,0.0,0.0,0.0,0.0,0.0,0.0,0.0,0.0,0.0,0.0,0.0,0.0,0.0,0.0,0.0,0.0,0.0,0.0,0.0,0.0,0.0,0.0,0.0,0.0,0.0,0.0,0.0,0.0,0.0,0.0,0.0,0.0,0.0,0.0,0.0,0.0,0.0,1.7775,1.8523,1.9496,2.0723,2.067,2.067,2.0464,1.9158,1.2632,0.0,0.0,0.0,0.0,0.0,0.0,0.0,0.0,0.0,0.0,0.0,0.0,0.0,0.0,0.0,0.0,0.0,0.0,0.0,0.0,0.0,0.0,0.0,0.0,0.0,0.0,0.0,0.0,0.0,0.0,0.0,0.0,0.0,0.0,0.0,0.0,0.0,0.0,0.0,0.0,0.0,-0.7659,-1.4127,-1.1342,-0.9453,0.0,0.0,-0.8712,-0.8174,-0.8061,0.0,0.0,0.0,0.0,0.0,0.0,0.0,0.0,0.0,0.0,0.0,0.0,0.0,0.0,0.0,0.0,0.0,0.0,0.0,0.0,0.0,0.0,0.0,0.0,0.0,0.0,0.0,0.0,0.0,0.0,0.0,0.0,0.0,0.0,0.0,0.0,0.0,0.0,0.0,0.0,0.0,0.0,0.0,0.0,0.0,0.0,0.0,0.0,0.0,0.0,0.0,0.0,0.0,0.0,0.0,0.0,1.7785,1.7929,1.8982,2.0756,2.0894,2.0586,1.9496,1.4612,0.8149,0.0,0.0,0.0,0.0,0.0,0.0,0.0,0.0,0.0,0.0,0.0,0.0,0.0,0.0,0.0,0.0,0.0,0.0,0.0,0.0,0.0,0.0,0.0,0.0,0.0,0.0,0.0,0.0,0.0,0.0,0.0,0.0,0.0,0.0,0.0,0.0,0.0,0.0,0.0,0.0,0.0,-1.0597,-1.1926,-1.3035,0.0,0.0,0.0,0.0,-0.8095,-0.8609,0.0,0.0,0.0,0.0,0.0,0.0,0.0,0.0,0.0,0.0,0.0,0.0,0.0,0.0,0.0,0.0,0.0,0.0,0.0,0.0,0.0,0.0,0.0,0.0,0.0,0.0,0.0,0.0,0.0,0.0,0.0,0.0,0.0,0.0,0.0,0.0,0.0,0.0,0.0,0.0,0.0,0.0,0.0,0.0,0.0,0.0,0.0,0.0,0.0,0.0,0.0,0.0,0.0,0.0,0.0,0.0,1.7322,1.4898,1.5816,2.0186,1.4104,1.3457,1.9137,1.0168,0.3439,0.0,0.0,0.0,0.0,0.0,0.0,0.0,0.0,0.0,0.0,0.0,0.0,0.0,0.0,0.0,0.0,0.0,0.0,0.0,0.0,0.0,0.0,0.0,0.0,0.0,0.0,0.0,0.0,0.0,0.0,0.0,0.0,0.0,0.0,0.0,0.0,0.0,0.0,0.0,0.0,-1.2866,-1.2152,-1.4156,0.0,0.0,0.0,0.0,0.0,0.0,-1.1213,-1.2075,0.0,0.0,0.0,0.0,0.0,0.0,0.0,0.0,0.0,0.0,0.0,0.0,0.0,0.0,0.0,0.0,0.0,0.0,0.0,0.0,0.0,0.0,0.0,0.0,0.0,0.0,0.0,0.0,0.0,0.0,0.0,0.0,0.0,0.0,0.0,0.0,0.0,0.0,0.0,0.0,0.0,0.0,0.0,0.0,0.0,0.0,0.0,0.0,0.0,0.0,0.0,0.0,0.0,0.0,0.0,1.702,1.2481,1.3337,1.9719,0.8872,0.7312,1.553,0.5591,0.0,0.0,0.0,0.0,0.0,0.0,0.0,0.0,0.0,0.0,0.0,0.0,0.0,0.0,0.0,0.0,0.0,0.0,0.0,0.0,0.0,0.0,0.0,0.0,0.0,0.0,0.0,0.0,0.0,0.0,0.0,0.0,0.0,0.0,0.0,0.0,0.0,0.0,0.0,0.0,0.0,-1.4343,-1.359,0.0,0.0,0.0,0.0,0.0,0.0,0.0,0.0,-1.4669,0.0,0.0,0.0,0.0,0.0,0.0,0.0,0.0,0.0,0.0,0.0,0.0,0.0,0.0,0.0,0.0,0.0,0.0,0.0,0.0,0.0,0.0,0.0,0.0,0.0,0.0,0.0,0.0,0.0,0.0,0.0,0.0,0.0,0.0,0.0,0.0,0.0,0.0,0.0,0.0,0.0,0.0,0.0,0.0,0.0,0.0,0.0,0.0,0.0,0.0,0.0,0.0,0.0,0.0,0.0,0.0,1.6957,1.8331,1.937,1.7518,1.1957,0.3307,0.1171,0.0,0.0,0.0,0.0,0.0,0.0,0.0,0.0,0.0,0.0,0.0,0.0,0.0,0.0,0.0,0.0,0.0,0.0,0.0,0.0,0.0,0.0,0.0,0.0,0.0,0.0,0.0,0.0,0.0,0.0,0.0,0.0,0.0,0.0,0.0,0.0,0.0,0.0,0.0,0.0,-1.5591,-1.6125,0.0,0.0,0.0,0.0,0.0,0.0,0.0,0.0,-1.5157,0.0,0.0,0.0,0.0,0.0,0.0,0.0,0.0,0.0,0.0,0.0,0.0,0.0,0.0,0.0,0.0,0.0,0.0,0.0,0.0,0.0,0.0,0.0,0.0,0.0,0.0,0.0,0.0,0.0,0.0,0.0,0.0,0.0,0.0,0.0,0.0,0.0,0.0,0.0,0.0,0.0,0.0,0.0,0.0,0.0,0.0,0.0,0.0,0.0,0.0,0.0,0.0,0.0,0.0,0.0,0.0,0.0,0.0,1.1978,0.9185,0.8994,0.6298,0.0,0.0,0.0,0.0,0.0,0.0,0.0,0.0,0.0,0.0,0.0,0.0,0.0,0.0,0.0,0.0,0.0,0.0,0.0,0.0,0.0,0.0,0.0,0.0,0.0,0.0,0.0,0.0,0.0,0.0,0.0,0.0,0.0,0.0,0.0,0.0,0.0,0.0,0.0,0.0,0.0,0.0,0.0,0.0,0.0,0.0,0.0,0.0,0.0,0.0,0.0,0.0,0.0,0.0,0.0,0.0,0.0,0.0,0.0,0.0,0.0,0.0,0.0,0.0,0.0,0.0,0.0,0.0,0.0,0.0,0.0,0.0,0.0,0.0,0.0,0.0,0.0,0.0,0.0,0.0,0.0,0.0,0.0,0.0,0.0,0.0,0.0,0.0,0.0,0.0,0.0,0.0,0.0,0.0,0.0,0.0,0.0,0.0,0.0,0.0,0.0,0.0,0.0,0.0,0.0,0.0,0.0,0.0,0.0,0.0,0.0,0.391,0.0,0.0,0.0,0.0,0.0,0.0,0.0,0.0,0.0,0.0,0.0,0.0,0.0,0.0,0.0,0.0,0.0,0.0,0.0,0.0,0.0,0.0,0.0,0.0,0.0,0.0,0.0,0.0,0.0,0.0,0.0,0.0,0.0,0.0,0.0,0.0,0.0,0.0,0.0,0.0,0.0,0.0,0.0,0.0,0.0,0.0,0.0,0.0,0.0,0.0,0.0,0.0,0.0,0.0,-1.6058,0.0,0.0,0.0,0.0,0.0,0.0,0.0,0.0,0.0,0.0,0.0,0.0,0.0,0.0,0.0,0.0,0.0,0.0,0.0,0.0,0.0,0.0,0.0,0.0,0.0,0.0,0.0,0.0,0.0,0.0,0.0,0.0,0.0,0.0,0.0,0.0,0.0,0.0,0.0,0.0,0.0,0.0,0.0,0.0,0.0,0.0,0.0,0.0,0.0,0.0,0.0,0.0,0.0,0.0,0.0,0.0,0.0,0.0,0.0,0.0,0.0,0.0,0.0,0.0,0.0,0.0,0.0,0.0,0.0,0.0,0.0,0.0,0.0,0.0,0.0,0.0,0.0,0.0,0.0,0.0,0.0,0.0,0.0,0.0,0.0,0.0,0.0,0.0,0.0,0.0,0.0,0.0,0.0,0.0,0.0,0.0,0.0,0.0,0.0,0.0,0.0,0.0,0.0,0.0,0.0,0.0,0.0,0.0,0.0,0.0,0.0,0.0,0.0,0.0,0.0,0.0,0.0,0.0,0.0,0.0,0.0,0.0,0.0,0.0,0.0,0.0,0.0,0.0,0.0,0.0,0.0,0.0,0.0,0.0,0.0,0.0,0.0,0.0,0.0,0.0,0.0,0.0,0.0,0.0,0.0,0.0,0.0,0.0,0.0,0.0,0.0,0.0,0.0,0.0,0.0,0.0,0.0,0.0,0.0,0.0,0.0,0.0,0.0,0.0,0.0,0.0,0.0,0.0,0.0,0.0,0.0,0.0,0.0,0.0,0.0,0.0,0.0,0.0,0.0,0.0,0.0,0.0,0.0,0.0,0.0,0.0,0.0,0.0,0.0,0.0,0.0,0.0,0.0,0.0,0.0,0.0,0.0,0.0,0.0,0.0,0.0,0.0,0.0,0.0,0.0,0.0,0.0,0.0,0.0,0.0,0.0,0.0,0.0,0.0,0.0,0.0,0.0,0.0,0.0,0.0,0.0,0.0,0.0,0.0,0.0,0.0,0.0,0.0,0.0,0.0,0.0,0.0,0.0,0.0,0.0,0.0,0.0,0.0,0.0,0.0,0.0,0.0,0.0,0.0,0.0,0.0,0.0,0.0,0.0,0.0,0.0,0.0,0.0,0.0,0.0,0.0,0.0,0.0,0.0,0.0,0.0,0.0,0.0,0.0,0.0,0.0,0.0,0.0,0.0,0.0,0.0,0.0,0.0,0.0,0.0,0.0,0.0,0.0,0.0,0.0,0.0,0.0,0.0,0.0,0.0,0.0,0.0,0.0,0.0,0.0,0.0,0.0,0.0,0.0,0.0,0.0,0.0,0.0,0.0,0.0,0.0,0.0,0.0,0.0,0.0,0.0,0.0,0.0,0.0,0.0,0.0,0.0,0.0,0.0,0.0,0.0,0.0,0.0,0.0,0.0,0.0,0.0,0.0,0.0,0.0,0.0,0.0,0.0,0.0,0.0,0.0,0.0,0.0,0.0,0.0,0.0,0.0,0.0,0.0,0.0,0.0,0.0,0.0,0.0,0.0,0.0,0.0,0.0,0.0,0.0,0.0,0.0,0.0,0.0,0.0,0.0,0.0,0.0,0.0,0.0,0.0,0.0,0.0,0.0,0.0,0.0,0.0,0.0,0.0,0.0,0.0,0.0,0.0,0.0,0.0,0.0,0.0,0.0,0.0,0.0,0.0,0.0,0.0,0.0,0.0,0.0,0.0,0.0,0.0,0.0,0.0,0.0,0.0,0.0,0.0,0.0,0.0,0.0,0.0,0.0,0.0,0.0,0.0,0.0,0.0,0.0,0.0,0.0,0.0,0.0,0.0,0.0,0.0,0.0,0.0,0.0,0.0,0.0,0.0,0.0,0.0,0.0,0.0,0.0,0.0,0.0,0.0,0.0,0.0,0.0,0.0,0.0,0.0,0.0,0.0,0.0,0.0,0.0,0.0,0.0,0.0,0.0,0.0,0.0,0.0,0.0,0.0,0.0,0.0,0.0,0.0,0.0,0.0,0.0,0.0,0.0,0.0,0.0,0.0,0.0,0.0,0.0,0.0,0.0,0.0,0.0,0.0,0.0,0.0,0.0,0.0,0.0,0.0,0.0,0.0,0.0,0.0,0.0,0.0,0.0,0.0,0.0,0.0,0.0,0.0,0.0,0.0,0.0,0.0,0.0,0.0,0.0,0.0,0.0,0.0,0.0,0.0,0.0,0.0,0.0,0.0,0.0,0.0,0.0,0.0,0.0,0.0,0.0,0.0,0.0,0.0,0.0,0.0,0.0,0.0,0.0,0.0,0.0,0.0,0.0,0.0,0.0,0.0,0.0,0.0,0.0,0.0,0.0,0.0,0.0,0.0,0.0,0.0,0.0,0.0,0.0,0.0,0.0,0.0,0.0,0.0,0.0,0.0,0.0,0.0,0.0,0.0,0.0,0.0,0.0,0.0,0.0,0.0,0.0,0.0,0.0,0.0,0.0,0.0,0.0,0.0,0.0,0.0,0.0,0.0,0.0,0.0,0.0,0.0,0.0,0.0,0.0,0.0,0.0,0.0,0.0,0.0,0.0,0.0,0.0,0.0,0.0,0.0,0.0,0.0,0.0,0.0,0.0,0.0,0.0,0.0,0.0,0.0,0.0,0.0,0.0,0.0,0.0,0.0,0.0,0.0,0.0,0.0,0.0,0.0,0.0,0.0,0.0,0.0,0.0,0.0,0.0,0.0,0.0,0.0,0.0,0.0,0.0,0.0,0.0,0.0,0.0,0.0,0.0,0.0,0.0,0.0,0.0,0.0,0.0,0.0,0.0,0.0,0.0,0.0,0.0,0.0,0.0,0.0,0.0,0.0,0.0,0.0,0.0,0.0,0.0,0.0,0.0,0.0,0.0,0.0,0.0,0.0,0.0,0.0,0.0,0.0,0.0,0.0,0.0,0.0,0.0,0.0,0.0,0.0,0.0,0.0,0.0,0.0,0.0,0.0,0.0,0.0,0.0,0.0,0.0,0.0,0.0,0.0,0.0,0.0,0.0,0.0,0.0,0.0,0.0,0.0,0.0,0.0,0.0,0.0,0.0,0.0,0.0,0.0,0.0,0.0,0.0,0.0,0.0,0.0,0.0,0.0,0.0,0.0,0.0,0.0,0.0,0.0,0.0,0.0,0.0,0.0,0.0,0.0,0.0,0.0,0.0,0.0,0.0,0.0,0.0,0.0,0.0,0.0,0.0,0.0,0.0,0.0,0.0,0.0,0.0,0.0,0.0,0.0,0.0,0.0,0.0,0.0,0.0,0.0,0.0,0.0,0.0,0.0,0.0,0.0,0.0,0.0,0.0,0.0,0.0,0.0,0.0,0.0,0.0,0.0,0.0,0.0,0.0,0.0,0.0,0.0,0.0,0.0,0.0,0.0,0.0,0.0,0.0,0.0,0.0,0.0,0.0,0.0,0.0,0.0,0.0,0.0,0.0,0.0,0.0,0.0,0.0,0.0,0.0,0.0,0.0,0.0,0.0,0.0,0.0,0.0,0.0,0.0,0.0,0.0,0.0,0.0,0.0,0.0,0.0,0.0,0.0,0.0,0.0,0.0,0.0,0.0,0.0,0.0,0.0,0.0,0.0,0.0,0.0,0.0,0.0,0.0,0.0,0.0,0.0,0.0,0.0,0.0,0.0,0.0,0.0,0.0,0.0,0.0,0.0,0.0,0.0,0.0,0.0,0.0,0.0,0.0,0.0,0.0,0.0,0.0,0.0,0.0,0.0,0.0,0.0,0.0,0.0,0.0,0.0,0.0,0.0,0.0,0.0,0.0,0.0,0.0,0.0,0.0,0.0,0.0,0.0,0.0,0.0,0.0,0.0,0.0,0.0,0.0,0.0,0.0,0.0,0.0,0.0,0.0,0.0,0.0,0.0,0.0,0.0,0.0,0.0,0.0,0.0,0.0,0.0,0.0,0.0,0.0,0.0,0.0,0.0,0.0,0.0,0.0,0.0,0.0,0.0,0.0,0.0,0.0,0.0,0.0,0.0,0.0,0.0,0.0,0.0,0.0,0.0,0.0,0.0,0.0,0.0,0.0,0.0,0.0,0.0,0.0,0.0,0.0,0.0,0.0,0.0,0.0,0.0,0.0,0.0,0.0,0.0,0.0,0.0,0.0,0.0,0.0,0.0,0.0,0.0,0.0,0.0,0.0,0.0,0.0,0.0,0.0,0.0,0.0,0.0,0.0,0.0,0.0,0.0,0.0,0.0,0.0,0.0,0.0,0.0,0.0,0.0,0.0,0.0,0.0,0.0,0.0,0.0,0.0,0.0,0.0,0.0,0.0,0.0,0.0,0.0,0.0,0.0,0.0,0.0,0.0,0.0,0.0,0.0,0.0,0.0,0.0,0.0,0.0,0.0,0.0,0.0,0.0,0.0,0.0,0.0,0.0,0.0,0.0,0.0,0.0,0.0,0.0,0.0,0.0,0.0,0.0,0.0,0.0,0.0,0.0,0.0,0.0,0.0,0.0,0.0,0.0,0.0,0.0,0.0,0.0,0.0,0.0,0.0,0.0,0.0,0.0,0.0,0.0,0.0,0.0,0.0,0.0,0.0,0.0,0.0,0.0,0.0,0.0,0.0,0.0,0.0,0.0,0.0,0.0,0.0,0.0,0.0,0.0,0.0,0.0,0.0,0.0,0.0,0.0,0.0,0.0,0.0,0.0,0.0,0.0,0.0,0.0,0.0,0.0,0.0,0.0,0.0,0.0,0.0,0.0,0.0,0.0,0.0,0.0,0.0,0.0,0.0,0.0,0.0,0.0,0.0,0.0,0.0,0.0,0.0,0.0,0.0,0.0,0.0,0.0,0.0,0.0,0.0,0.0,0.0,0.0,0.0,0.0,0.0,0.0,0.0,0.0,0.0,0.0,0.0,0.0,0.0,0.0,0.0,0.0,0.0,0.0,0.0,0.0,0.0,0.0,0.0,0.0,0.0,0.0,0.0,0.0,0.0,0.0,0.0,0.0,0.0,0.0,0.0,0.0,0.0,0.0,0.0,0.0,0.0,0.0,0.0,0.0,0.0,0.0,0.0,0.0,0.0,0.0,0.0,0.0,0.0,0.0,0.0,0.0,0.0,0.0,0.0,0.0,0.0,0.0,0.0,0.0,0.0,0.0,0.0,0.0,0.0,0.0,0.0,0.0,0.0,0.0,0.0,0.0,0.0,0.0,0.0,0.0,0.0,0.0,0.0,0.0,0.0,0.0,0.0,0.0,0.0,0.0,0.0,0.0,0.0,0.0,0.0,0.0,0.0,0.0,0.0,0.0,0.0,0.0,0.0,0.0,0.0,0.0,0.0,0.0,0.0,0.0,0.0,0.0,0.0,0.0,0.0,0.0,0.0,0.0,0.0,0.0,0.0,0.0,0.0,0.0,0.0,0.0,0.0,0.0,0.0,0.0,0.0,0.0,0.0,0.0,0.0,0.0,0.0,0.0,0.0,0.0,0.0,0.0,0.0,0.0,0.0,0.0,0.0,0.0,0.0,0.0,0.0,0.0,0.0,0.0,0.0,0.0,0.0,0.0,0.0,0.0,0.0,0.0,0.0,0.0,0.0,0.0,0.0,0.0,0.0,0.0,0.0,0.0,0.0,0.0,0.0,0.0,0.0,0.0,0.0,0.0,0.0,0.0,0.0,0.0,0.0,0.0,0.0,0.0,0.0,0.0,0.0,0.0,0.0,0.0,0.0,0.0,0.0,0.0,0.0,0.0,0.0,0.0,0.0,0.0,0.0,0.0,0.0,0.0,0.0,0.0,0.0,0.0,0.0,0.0,0.0,0.0,0.0,0.0,0.0,0.0,0.0,0.0,0.0,0.0,0.0,0.0,0.0,0.0,0.0,0.0,0.0,0.0,0.0,0.0,0.0,0.0,0.0,0.0,0.0,0.0,0.0,0.0,0.0,0.0,0.0,0.0,0.0,0.0,0.0,0.0,0.0,0.0,0.0,0.0,0.0,0.0,0.0,0.0,0.0,0.0,0.0,0.0,0.0,0.0,0.0,0.0,0.0,0.0,0.0,0.0,0.0,0.0,0.0,0.0,0.0,0.0,0.0,0.0,0.0,0.0,0.0,0.0,0.0,0.0,0.0,0.0,0.0,0.0,0.0,0.0,0.0,0.0,0.0,0.0,0.0,0.0,0.0,0.0,0.0,0.0,0.0,0.0,0.0,0.0,0.0,0.0,0.0,0.0,0.0,0.0,0.0,0.0,0.0,0.0,0.0,0.0,0.0,0.0,0.0,0.0,0.0,0.0,0.0,0.0,0.0,0.0,0.0,0.0,0.0,0.0,0.0,0.0,0.0,0.0,0.0,0.0,0.0,0.0,0.0,0.0,0.0,0.0,0.0,0.0,0.0,0.0,0.0,0.0,0.0,0.0,0.0,0.0,0.0,0.0,0.0,0.0,0.0,0.0,0.0,0.0,0.0,0.0,0.0,0.0,0.0,0.0,0.0,0.0,0.0,0.0,0.0,0.0,0.0,0.0,0.0,0.0,0.0,0.0,0.0,0.0,0.0,0.0,0.0,0.0,0.0,0.0,0.0,0.0,0.0,0.0,0.0,0.0,0.0,0.0,0.0,0.0,0.0,0.0,0.0,0.0,0.0,0.0,0.0,0.0,0.0,0.0,0.0,0.0,0.0,0.0,0.0,0.0,0.0,0.0,0.0,0.0,0.0,0.0,0.0,0.0,0.0,0.0,0.0,0.0,0.0,0.0,0.0,0.0,0.0,0.0,0.0,0.0,0.0,0.0,0.0,0.0,0.0,0.0,0.0,0.0,0.0,0.0,0.0,0.0,0.0,0.0,0.0,0.0,0.0,0.0,0.0,0.0,0.0,0.0,0.0,0.0,0.0,0.0,0.0,0.0,0.0,0.0,0.0,0.0,0.0,0.0,0.0,0.0,0.0,0.0,0.0,0.0,0.0,0.0,0.0,0.0,0.0,0.0,0.0,0.0,0.0,0.0,0.0,0.0,0.0,0.0,0.0,0.0,0.0,0.0,0.0,0.0,0.0,0.0,0.0,0.0,0.0,0.0,0.0,0.0,0.0,0.0,0.0,0.0,0.0,0.0,0.0,0.0,0.0,0.0,0.0,0.0,0.0,0.0,0.0,0.0,0.0,0.0,0.0,0.0,0.0,0.0,0.0,0.0,0.0,0.0,0.0,0.0,0.0,0.0,0.0,0.0,0.0,0.0,0.0,0.0,0.0,0.0,0.0,0.0,0.0,0.0,0.0,0.0,0.0,0.0,0.0,0.0,0.0,0.0,0.0,0.0,0.0,0.0,0.0,0.0,0.0,0.0,0.0,0.0,0.0,0.0,0.0,0.0,0.0,0.0,0.0,0.0,0.0,0.0,0.0,0.0,0.0,0.0,0.0,0.0,0.0,0.0,0.0,0.0,0.0,0.0,0.0,0.0,0.0,0.0,0.0,0.0,0.0,0.0,0.0,0.0,0.0,0.0,0.0,0.0,0.0,0.0,0.0,0.0,0.0,0.0,0.0,0.0,0.0,0.0,0.0,0.0,0.0,0.0,0.0,0.0,0.0,0.0,0.0,0.0,0.0,0.0,0.0,0.0,0.0,0.0,0.0,0.0,0.0,0.0,0.0,0.0,0.0,0.0,0.0,0.0,0.0,0.0,0.0,0.0,0.0,0.0,0.0,0.0,0.0,0.0,0.0,0.0,0.0,0.0,0.0,0.0,0.0,0.0,0.0,0.0,0.0,0.0,0.0,0.0,0.0,0.0,0.0,0.0,0.0,0.0,0.0,0.0,0.0,0.0,0.0,0.0,0.0,0.0,0.0,0.0,0.0,0.0,0.0,0.0,0.0,0.0,0.0,0.0,0.0,0.0,0.0,0.0,0.0,0.0,0.0,0.0,0.0,0.0,0.0,0.0,0.0,0.0,0.0,0.0,0.0,0.0,0.0,0.0,0.0,0.0,0.0,0.0,0.0,0.0,0.0,0.0,0.0,0.0,0.0,0.0,0.0,0.0,0.0,0.0,0.0,0.0,0.0,0.0,0.0,0.0,0.0,0.0,0.0,0.0,0.0,0.0,0.0,0.0,0.0,0.0,0.0,0.0,0.0,0.0,0.0,0.0,0.0,0.0,0.0,0.0,0.0,0.0,0.0,0.0,0.0,0.0,0.0,0.0,0.0,0.0,0.0,0.0,0.0,0.0,0.0,0.0,0.0,0.0,0.0,0.0,0.0,0.0,0.0,0.0,0.0,0.0,0.0,0.0,0.0,0.0,0.0,0.0,0.0,0.0,0.0,0.0,0.0,0.0,0.0,0.0,0.0,0.0,0.0,0.0,0.0,0.0,0.0,0.0,0.0,0.0,0.0,0.0,0.0,0.0,0.0,0.0,0.0,0.0,0.0,0.0,0.0,0.0,0.0,0.0,0.0,0.0,0.0,0.0,0.0,0.0,0.0,0.0,0.0,0.0,0.0,0.0,0.0,0.0,0.0,0.0,0.0,0.0,0.0,0.0,0.0,0.0,0.0,0.0,0.0,0.0,0.0,0.0,0.0,0.0,0.0,0.0,0.0,0.0,0.0,0.0,0.0,0.0,0.0,0.0,0.0,0.0,0.0,0.0,0.0,0.0,0.0,0.0,0.0,0.0,0.0,0.0,0.0,0.0,0.0,0.0,0.0,0.0,0.0,0.0,0.0,0.0,0.0,0.0,0.0,0.0,0.0,0.0,0.0,0.0,0.0,0.0,0.0,0.0,0.0,0.0,0.0,0.0,0.0,0.0,0.0,0.0,0.0,0.0,0.0,0.0,0.0,0.0,0.0,0.0,0.0,0.0,0.0,0.0,0.0,0.0,0.0,0.0,0.0,0.0,0.0,0.0,0.0,0.0,0.0,0.0,0.0,0.0,0.0,0.0,0.0,0.0,0.0,0.0,0.0,0.0,0.0,0.0,0.0,0.0,0.0,0.0,0.0,0.0,0.0,0.0,0.0,0.0,0.0,0.0,0.0,0.0,0.0,0.0,0.0,0.0,0.0,0.0,0.0,0.0,0.0,0.0,0.0,0.0,0.0,0.0,0.0,0.0,0.0,0.0,0.0,0.0,0.0,0.0,0.0,0.0,0.0,0.0,0.0,0.0,0.0,0.0,0.0,0.0,0.0,0.0,0.0,0.0,0.0,0.0,0.0,0.0,0.0,0.0,0.0,0.0,0.0,0.0,0.0,0.0,0.0,0.0,0.0,0.0,0.0,0.0,0.0,0.0,0.0,0.0,0.0,0.0,0.0,0.0,0.0,0.0,0.0,0.0,0.0,0.0,0.0,0.0,0.0,0.0,0.0,0.0,0.0,0.0,0.0,0.0,0.0,0.0,0.0,0.0,0.0,0.0,0.0,0.0,0.0,0.0,0.0,0.0,0.0,0.0,0.0,0.0,0.0,0.0,0.0,0.0,0.0,0.0,0.0,0.0,0.0,0.0,0.0,0.0,0.0,0.0,0.0,0.0,0.0,0.0,0.0,0.0,0.0,0.0,0.0,0.0,0.0,0.0,0.0,0.0,0.0,0.0,0.0,0.0,0.0,0.0,0.0,0.0,0.0,0.0,0.0,0.0,0.0,0.0,0.0,0.0,0.0,0.0,0.0,0.0,0.0,0.0,0.0,0.0,0.0,0.0,0.0,0.0,0.0,0.0,0.0,0.0,0.0,0.0,0.0,0.0,0.0,0.0,0.0,0.0,0.0,0.0,0.0,0.0,0.0,0.0,0.0,0.0,0.0,0.0,0.0,0.0,0.0,0.0,0.0,0.0,0.0,0.0,0.0,0.0,0.0,0.0,0.0,0.0,0.0,0.0,0.0,0.0,0.0,0.0,0.0,0.0,0.0,0.0,0.0,0.0,0.0,0.0,0.0,0.0,0.0,0.0,0.0,0.0,0.0,0.0,0.0,0.0,0.0,0.0,0.0,0.0,0.0,0.0,0.0,0.0,0.0,0.0,0.0,0.0,0.0,0.0,0.0,0.0,0.0,0.0,0.0,0.0,0.0,0.0,0.0,0.0,0.0,0.0,0.0,0.0,0.0,0.0,0.0,0.0,0.0,0.0,0.0,0.0,0.0,0.0,0.0,0.0,0.0,0.0,0.0,0.0,0.0,0.0,0.0,0.0,0.0,0.0,0.0,0.0,0.0,0.0,0.0,0.0,0.0,0.0,0.0,0.0,0.0,0.0,0.0,0.0,0.0,0.0,0.0,0.0,0.0,0.0,0.0,0.0,0.0,0.0,0.0,0.0,0.0,0.0,0.0,0.0,0.0,0.0,0.0,0.0,0.0,0.0,0.0,0.0,0.0,0.0,0.0,0.0,0.0,0.0,0.0,0.0,0.0,0.0,0.0,0.0,0.0,0.0,0.0,0.0,0.0,0.0,0.0,0.0,0.0,0.0,0.0,0.0,0.0,0.0,0.0,0.0,0.0,0.0,0.0,0.0,0.0,0.0,0.0,0.0,0.0,0.0,0.0,0.0,0.0,0.0,0.0,0.0,0.0,0.0,0.0,0.0,0.0,0.0,0.0,0.0,0.0,0.0,0.0,0.0,0.0,0.0,0.0,0.0,0.0,0.0,0.0,0.0,0.0,0.0,0.0,0.0,0.0,0.0,0.0,0.0,0.0,0.0,0.0,0.0,0.0,0.0,0.0,0.0,0.0,0.0,0.0,0.0,0.0,0.0,0.0,0.0,0.0,0.0,0.0,0.0,0.0,0.0,0.0,0.0,0.0,0.0,0.0,0.0,0.0,0.0,0.0,0.0,0.0,0.0,0.0,0.0,0.0,0.0,0.0,0.0,0.0,0.0,0.0,0.0,0.0,0.0,0.0,0.0,0.0,0.0,0.0,0.0,0.0,0.0,0.0,0.0,0.0,0.0,0.0,0.0,0.0,0.0,0.0,0.0,0.0,0.0,0.0,0.0,0.0,0.0,0.0,0.0,0.0,0.0,0.0,0.0,0.0,0.0,0.0,0.0,0.0,0.0,0.0,0.0,0.0,0.0,0.0,0.0,0.0,0.0,0.0,0.0,0.0,0.0,0.0,0.0,0.0,0.0,0.0,0.0,0.0,0.0,0.0,0.0,0.0,0.0,0.0,0.0,0.0,0.0,0.0,0.0,0.0,0.0,0.0,0.0,0.0,0.0,0.0,0.0,0.0,0.0,0.0,0.0,0.0,0.0,0.0,0.0,0.0,0.0,0.0,0.0,0.0,0.0,0.0,0.0,0.0,0.0,0.0,0.0,0.0,0.0,0.0,0.0,0.0,0.0,0.0,0.0,0.0,0.0,0.0,0.0,0.0,0.0,0.0,0.0,0.0,0.0,0.0,0.0,0.0,0.0,0.0,0.0,0.0,0.0,0.0,0.0,0.0,0.0,0.0,0.0,0.0,0.0,0.0,0.0,0.0,0.0,0.0,0.0,0.0,0.0,0.0,0.0,0.0,0.0,0.0,0.0,0.0,0.0,0.0,0.0,0.0,0.0,0.0,0.0,0.0,0.0,0.0,0.0,0.0,0.0,0.0,0.0,0.0,0.0,0.0,0.0,0.0,0.0,0.0,0.0,0.0,0.0,0.0,0.0,0.0,0.0,0.0,0.0,0.0,0.0,0.0,0.0,0.0,0.0,0.0,0.0,0.0,0.0,0.0,0.0,0.0,0.0,0.0,0.0,0.0,0.0,0.0,0.0,0.0,0.0,0.0,0.0,0.0,0.0,0.0,0.0,0.0,0.0,0.0,0.0,0.0,0.0,0.0,0.0,0.0,0.0,0.0,0.0,0.0,0.0,0.0,0.0,0.0,0.0,0.0,0.0,0.0,0.0,0.0,0.0,0.0,0.0,0.0,0.0,0.0,0.0,0.0,0.0,0.0,0.0,0.0,0.0,0.0,0.0,0.0,0.0,0.0,0.0,0.0,0.0,0.0,0.0,0.0,0.0,0.0,0.0,0.0,0.0,0.0,0.0,0.0,0.0,0.0,0.0,0.0,0.0,0.0,0.0,0.0,0.0,0.0,0.0,0.0,0.0,0.0,0.0,0.0,0.0,0.0,0.0,0.0,0.0,0.0,0.0,0.0,0.0,0.0,0.0,0.0,0.0,0.0,0.0,0.0,0.0,0.0,0.0,0.0,0.0,0.0,0.0,0.0,0.0,0.0,0.0,0.0,0.0,0.0,0.0,0.0,0.0,0.0,0.0,0.0,0.0,0.0,0.0,0.0,0.0,0.0,0.0,0.0,0.0,0.0,0.0,0.0,0.0,0.0,0.0,0.0,0.0,0.0,0.0,0.0,0.0,0.0]}]]]